<?xml version="1.0" encoding="UTF-8" standalone="no" ?><gpx xmlns="http://www.topografix.com/GPX/1/1" xmlns:gpxx="http://www.garmin.com/xmlschemas/GpxExtensions/v3" xmlns:wptx1="http://www.garmin.com/xmlschemas/WaypointExtension/v1" xmlns:gpxtpx="http://www.garmin.com/xmlschemas/TrackPointExtension/v1" creator="eTrex 30" version="1.1" xmlns:xsi="http://www.w3.org/2001/XMLSchema-instance" xsi:schemaLocation="http://www.topografix.com/GPX/1/1 http://www.topografix.com/GPX/1/1/gpx.xsd http://www.garmin.com/xmlschemas/GpxExtensions/v3 http://www8.garmin.com/xmlschemas/GpxExtensionsv3.xsd http://www.garmin.com/xmlschemas/WaypointExtension/v1 http://www8.garmin.com/xmlschemas/WaypointExtensionv1.xsd http://www.garmin.com/xmlschemas/TrackPointExtension/v1 http://www.garmin.com/xmlschemas/TrackPointExtensionv1.xsd"><metadata><link href="http://www.garmin.com"><text>Garmin International</text></link><time>2015-11-21T15:10:41Z</time></metadata><trk><name>21-NOV-15 17:10:38</name><extensions><gpxx:TrackExtension><gpxx:DisplayColor>Cyan</gpxx:DisplayColor></gpxx:TrackExtension></extensions><trkseg><trkpt lat="31.2551661674" lon="35.5208076350"><ele>-314.21</ele><time>2015-11-21T07:18:38Z</time></trkpt><trkpt lat="31.2551655807" lon="35.5208078027"><ele>-314.21</ele><time>2015-11-21T07:18:45Z</time></trkpt><trkpt lat="31.2551608030" lon="35.5208041146"><ele>-314.21</ele><time>2015-11-21T07:18:58Z</time></trkpt><trkpt lat="31.2551556062" lon="35.5208085570"><ele>-314.21</ele><time>2015-11-21T07:19:21Z</time></trkpt><trkpt lat="31.2551255990" lon="35.5208503827"><ele>-313.73</ele><time>2015-11-21T07:19:36Z</time></trkpt><trkpt lat="31.2550328113" lon="35.5208948907"><ele>-313.25</ele><time>2015-11-21T07:19:50Z</time></trkpt><trkpt lat="31.2549343240" lon="35.5209000874"><ele>-313.25</ele><time>2015-11-21T07:20:08Z</time></trkpt><trkpt lat="31.2549075019" lon="35.5208956450"><ele>-313.25</ele><time>2015-11-21T07:20:29Z</time></trkpt><trkpt lat="31.2549063284" lon="35.5208915379"><ele>-313.25</ele><time>2015-11-21T07:20:30Z</time></trkpt><trkpt lat="31.2548946775" lon="35.5205084849"><ele>-314.21</ele><time>2015-11-21T07:20:44Z</time></trkpt><trkpt lat="31.2548828591" lon="35.5202763062"><ele>-314.69</ele><time>2015-11-21T07:20:53Z</time></trkpt><trkpt lat="31.2548748124" lon="35.5198969413"><ele>-315.66</ele><time>2015-11-21T07:21:05Z</time></trkpt><trkpt lat="31.2548759021" lon="35.5198905710"><ele>-316.14</ele><time>2015-11-21T07:21:07Z</time></trkpt><trkpt lat="31.2548251078" lon="35.5196422152"><ele>-316.14</ele><time>2015-11-21T07:21:17Z</time></trkpt><trkpt lat="31.2548683584" lon="35.5195651017"><ele>-316.14</ele><time>2015-11-21T07:21:20Z</time></trkpt><trkpt lat="31.2548902351" lon="35.5195604917"><ele>-316.14</ele><time>2015-11-21T07:21:21Z</time></trkpt><trkpt lat="31.2549133692" lon="35.5195630901"><ele>-316.14</ele><time>2015-11-21T07:21:22Z</time></trkpt><trkpt lat="31.2549379282" lon="35.5195693765"><ele>-316.14</ele><time>2015-11-21T07:21:23Z</time></trkpt><trkpt lat="31.2554039620" lon="35.5196961109"><ele>-315.66</ele><time>2015-11-21T07:21:39Z</time></trkpt><trkpt lat="31.2558422517" lon="35.5198184028"><ele>-315.66</ele><time>2015-11-21T07:21:55Z</time></trkpt><trkpt lat="31.2563749216" lon="35.5200069118"><ele>-315.18</ele><time>2015-11-21T07:22:11Z</time></trkpt><trkpt lat="31.2570234295" lon="35.5202442035"><ele>-315.18</ele><time>2015-11-21T07:22:29Z</time></trkpt><trkpt lat="31.2577780522" lon="35.5205595307"><ele>-316.14</ele><time>2015-11-21T07:22:49Z</time></trkpt><trkpt lat="31.2584644463" lon="35.5208583456"><ele>-317.58</ele><time>2015-11-21T07:23:10Z</time></trkpt><trkpt lat="31.2590168975" lon="35.5210867524"><ele>-318.54</ele><time>2015-11-21T07:23:28Z</time></trkpt><trkpt lat="31.2595694326" lon="35.5213429034"><ele>-319.02</ele><time>2015-11-21T07:23:45Z</time></trkpt><trkpt lat="31.2599361409" lon="35.5214998964"><ele>-319.50</ele><time>2015-11-21T07:24:00Z</time></trkpt><trkpt lat="31.2603232171" lon="35.5216537043"><ele>-319.98</ele><time>2015-11-21T07:24:14Z</time></trkpt><trkpt lat="31.2608659454" lon="35.5218909960"><ele>-321.90</ele><time>2015-11-21T07:24:32Z</time></trkpt><trkpt lat="31.2613862939" lon="35.5221393518"><ele>-322.39</ele><time>2015-11-21T07:24:50Z</time></trkpt><trkpt lat="31.2614915706" lon="35.5221480690"><ele>-322.87</ele><time>2015-11-21T07:25:01Z</time></trkpt><trkpt lat="31.2615038920" lon="35.5221396033"><ele>-322.87</ele><time>2015-11-21T07:25:05Z</time></trkpt><trkpt lat="31.2615597155" lon="35.5219525192"><ele>-321.42</ele><time>2015-11-21T07:25:16Z</time></trkpt><trkpt lat="31.2615701091" lon="35.5219354201"><ele>-321.42</ele><time>2015-11-21T07:25:31Z</time></trkpt><trkpt lat="31.2615542673" lon="35.5220018886"><ele>-321.42</ele><time>2015-11-21T07:25:56Z</time></trkpt><trkpt lat="31.2615494058" lon="35.5220861267"><ele>-321.42</ele><time>2015-11-21T07:26:28Z</time></trkpt><trkpt lat="31.2615561951" lon="35.5220722966"><ele>-320.94</ele><time>2015-11-21T07:26:50Z</time></trkpt><trkpt lat="31.2615656666" lon="35.5220357515"><ele>-320.94</ele><time>2015-11-21T07:27:23Z</time></trkpt><trkpt lat="31.2615837716" lon="35.5221123621"><ele>-320.94</ele><time>2015-11-21T07:28:03Z</time></trkpt><trkpt lat="31.2615945842" lon="35.5220394395"><ele>-320.94</ele><time>2015-11-21T07:28:35Z</time></trkpt><trkpt lat="31.2615874596" lon="35.5220795050"><ele>-320.46</ele><time>2015-11-21T07:29:09Z</time></trkpt><trkpt lat="31.2615791615" lon="35.5220373441"><ele>-320.46</ele><time>2015-11-21T07:29:43Z</time></trkpt><trkpt lat="31.2616101746" lon="35.5220793374"><ele>-320.46</ele><time>2015-11-21T07:30:23Z</time></trkpt><trkpt lat="31.2616002839" lon="35.5221324787"><ele>-320.46</ele><time>2015-11-21T07:30:54Z</time></trkpt><trkpt lat="31.2615934107" lon="35.5220779125"><ele>-319.98</ele><time>2015-11-21T07:31:27Z</time></trkpt><trkpt lat="31.2616054807" lon="35.5220820196"><ele>-319.98</ele><time>2015-11-21T07:32:01Z</time></trkpt><trkpt lat="31.2615935784" lon="35.5221079197"><ele>-319.98</ele><time>2015-11-21T07:32:29Z</time></trkpt><trkpt lat="31.2616100907" lon="35.5221041478"><ele>-319.98</ele><time>2015-11-21T07:33:02Z</time></trkpt><trkpt lat="31.2615866214" lon="35.5220862944"><ele>-319.98</ele><time>2015-11-21T07:33:32Z</time></trkpt><trkpt lat="31.2615862861" lon="35.5221154634"><ele>-319.50</ele><time>2015-11-21T07:34:09Z</time></trkpt><trkpt lat="31.2615878787" lon="35.5220917426"><ele>-319.50</ele><time>2015-11-21T07:34:44Z</time></trkpt><trkpt lat="31.2615918182" lon="35.5220841989"><ele>-319.50</ele><time>2015-11-21T07:35:22Z</time></trkpt><trkpt lat="31.2616231665" lon="35.5220044870"><ele>-319.02</ele><time>2015-11-21T07:35:49Z</time></trkpt><trkpt lat="31.2615922373" lon="35.5220510066"><ele>-319.02</ele><time>2015-11-21T07:36:24Z</time></trkpt><trkpt lat="31.2615698576" lon="35.5221437104"><ele>-318.54</ele><time>2015-11-21T07:37:07Z</time></trkpt><trkpt lat="31.2615890522" lon="35.5221391004"><ele>-318.06</ele><time>2015-11-21T07:37:46Z</time></trkpt><trkpt lat="31.2616022956" lon="35.5221794173"><ele>-318.54</ele><time>2015-11-21T07:38:22Z</time></trkpt><trkpt lat="31.2615604699" lon="35.5221939180"><ele>-318.06</ele><time>2015-11-21T07:39:05Z</time></trkpt><trkpt lat="31.2615401018" lon="35.5221673474"><ele>-317.58</ele><time>2015-11-21T07:39:41Z</time></trkpt><trkpt lat="31.2615601346" lon="35.5221314728"><ele>-317.58</ele><time>2015-11-21T07:40:19Z</time></trkpt><trkpt lat="31.2616184726" lon="35.5220852047"><ele>-317.10</ele><time>2015-11-21T07:40:52Z</time></trkpt><trkpt lat="31.2616106775" lon="35.5219949316"><ele>-317.10</ele><time>2015-11-21T07:41:28Z</time></trkpt><trkpt lat="31.2615784071" lon="35.5219973624"><ele>-317.10</ele><time>2015-11-21T07:42:02Z</time></trkpt><trkpt lat="31.2615644932" lon="35.5220039841"><ele>-317.10</ele><time>2015-11-21T07:42:30Z</time></trkpt><trkpt lat="31.2615597155" lon="35.5220253579"><ele>-317.10</ele><time>2015-11-21T07:42:57Z</time></trkpt><trkpt lat="31.2615880463" lon="35.5220386013"><ele>-316.62</ele><time>2015-11-21T07:43:25Z</time></trkpt><trkpt lat="31.2616057321" lon="35.5220220890"><ele>-317.10</ele><time>2015-11-21T07:43:49Z</time></trkpt><trkpt lat="31.2615966797" lon="35.5219961051"><ele>-317.10</ele><time>2015-11-21T07:44:08Z</time></trkpt><trkpt lat="31.2615815923" lon="35.5219973624"><ele>-317.10</ele><time>2015-11-21T07:44:33Z</time></trkpt><trkpt lat="31.2615870405" lon="35.5220415350"><ele>-316.62</ele><time>2015-11-21T07:45:03Z</time></trkpt><trkpt lat="31.2615906447" lon="35.5219940934"><ele>-317.10</ele><time>2015-11-21T07:45:27Z</time></trkpt><trkpt lat="31.2615962606" lon="35.5219616555"><ele>-317.10</ele><time>2015-11-21T07:45:54Z</time></trkpt><trkpt lat="31.2616069894" lon="35.5220109411"><ele>-317.10</ele><time>2015-11-21T07:46:17Z</time></trkpt><trkpt lat="31.2615998648" lon="35.5220091809"><ele>-317.58</ele><time>2015-11-21T07:46:48Z</time></trkpt><trkpt lat="31.2615862861" lon="35.5220148806"><ele>-317.58</ele><time>2015-11-21T07:47:13Z</time></trkpt><trkpt lat="31.2615856994" lon="35.5219614040"><ele>-317.58</ele><time>2015-11-21T07:47:38Z</time></trkpt><trkpt lat="31.2615714502" lon="35.5219734740"><ele>-317.58</ele><time>2015-11-21T07:48:14Z</time></trkpt><trkpt lat="31.2615811732" lon="35.5219646730"><ele>-317.58</ele><time>2015-11-21T07:48:39Z</time></trkpt><trkpt lat="31.2615675945" lon="35.5219908245"><ele>-317.58</ele><time>2015-11-21T07:48:59Z</time></trkpt><trkpt lat="31.2615909800" lon="35.5219802633"><ele>-318.06</ele><time>2015-11-21T07:49:28Z</time></trkpt><trkpt lat="31.2615766469" lon="35.5219369289"><ele>-318.54</ele><time>2015-11-21T07:49:58Z</time></trkpt><trkpt lat="31.2616009545" lon="35.5219211709"><ele>-318.06</ele><time>2015-11-21T07:50:23Z</time></trkpt><trkpt lat="31.2615937460" lon="35.5219350010"><ele>-318.06</ele><time>2015-11-21T07:50:52Z</time></trkpt><trkpt lat="31.2615721207" lon="35.5219585542"><ele>-318.54</ele><time>2015-11-21T07:51:04Z</time></trkpt><trkpt lat="31.2615427841" lon="35.5220301356"><ele>-318.54</ele><time>2015-11-21T07:51:10Z</time></trkpt><trkpt lat="31.2614515051" lon="35.5219805147"><ele>-319.02</ele><time>2015-11-21T07:51:17Z</time></trkpt><trkpt lat="31.2614315562" lon="35.5219712108"><ele>-318.54</ele><time>2015-11-21T07:51:18Z</time></trkpt><trkpt lat="31.2614121940" lon="35.5219650082"><ele>-318.54</ele><time>2015-11-21T07:51:19Z</time></trkpt><trkpt lat="31.2613928318" lon="35.5219614878"><ele>-318.54</ele><time>2015-11-21T07:51:20Z</time></trkpt><trkpt lat="31.2613727152" lon="35.5219603982"><ele>-318.54</ele><time>2015-11-21T07:51:21Z</time></trkpt><trkpt lat="31.2610697094" lon="35.5218381900"><ele>-318.54</ele><time>2015-11-21T07:51:34Z</time></trkpt><trkpt lat="31.2606772687" lon="35.5216709711"><ele>-317.58</ele><time>2015-11-21T07:51:50Z</time></trkpt><trkpt lat="31.2602927908" lon="35.5215167440"><ele>-317.10</ele><time>2015-11-21T07:52:05Z</time></trkpt><trkpt lat="31.2602338661" lon="35.5215082783"><ele>-316.62</ele><time>2015-11-21T07:52:08Z</time></trkpt><trkpt lat="31.2602130789" lon="35.5215874873"><ele>-316.62</ele><time>2015-11-21T07:52:11Z</time></trkpt><trkpt lat="31.2602201197" lon="35.5216161534"><ele>-316.62</ele><time>2015-11-21T07:52:12Z</time></trkpt><trkpt lat="31.2602327764" lon="35.5216376949"><ele>-316.62</ele><time>2015-11-21T07:52:13Z</time></trkpt><trkpt lat="31.2602458522" lon="35.5216565542"><ele>-316.62</ele><time>2015-11-21T07:52:14Z</time></trkpt><trkpt lat="31.2602562457" lon="35.5216753297"><ele>-317.10</ele><time>2015-11-21T07:52:15Z</time></trkpt><trkpt lat="31.2602750212" lon="35.5217402056"><ele>-316.62</ele><time>2015-11-21T07:52:26Z</time></trkpt><trkpt lat="31.2602554075" lon="35.5217299797"><ele>-316.62</ele><time>2015-11-21T07:52:50Z</time></trkpt><trkpt lat="31.2602518871" lon="35.5217809416"><ele>-317.10</ele><time>2015-11-21T07:53:27Z</time></trkpt><trkpt lat="31.2602476124" lon="35.5217862222"><ele>-317.10</ele><time>2015-11-21T07:54:05Z</time></trkpt><trkpt lat="31.2602471933" lon="35.5218086019"><ele>-317.10</ele><time>2015-11-21T07:54:47Z</time></trkpt><trkpt lat="31.2602172699" lon="35.5218278803"><ele>-316.62</ele><time>2015-11-21T07:55:32Z</time></trkpt><trkpt lat="31.2602220476" lon="35.5218270421"><ele>-317.10</ele><time>2015-11-21T07:56:09Z</time></trkpt><trkpt lat="31.2602220476" lon="35.5218224321"><ele>-317.58</ele><time>2015-11-21T07:56:51Z</time></trkpt><trkpt lat="31.2602435052" lon="35.5218149722"><ele>-317.58</ele><time>2015-11-21T07:57:23Z</time></trkpt><trkpt lat="31.2602433376" lon="35.5218030699"><ele>-317.58</ele><time>2015-11-21T07:57:59Z</time></trkpt><trkpt lat="31.2602561619" lon="35.5218008067"><ele>-318.06</ele><time>2015-11-21T07:58:38Z</time></trkpt><trkpt lat="31.2602490373" lon="35.5218163971"><ele>-317.58</ele><time>2015-11-21T07:59:03Z</time></trkpt><trkpt lat="31.2602577545" lon="35.5218203366"><ele>-318.06</ele><time>2015-11-21T07:59:39Z</time></trkpt><trkpt lat="31.2602524739" lon="35.5218163133"><ele>-318.06</ele><time>2015-11-21T08:00:09Z</time></trkpt><trkpt lat="31.2602605205" lon="35.5217875633"><ele>-317.58</ele><time>2015-11-21T08:00:44Z</time></trkpt><trkpt lat="31.2602368835" lon="35.5218192469"><ele>-317.58</ele><time>2015-11-21T08:01:30Z</time></trkpt><trkpt lat="31.2602476124" lon="35.5218153074"><ele>-317.58</ele><time>2015-11-21T08:02:12Z</time></trkpt><trkpt lat="31.2602631189" lon="35.5217878986"><ele>-317.10</ele><time>2015-11-21T08:02:47Z</time></trkpt><trkpt lat="31.2602511328" lon="35.5217891559"><ele>-317.10</ele><time>2015-11-21T08:03:19Z</time></trkpt><trkpt lat="31.2602548208" lon="35.5217960291"><ele>-317.10</ele><time>2015-11-21T08:03:46Z</time></trkpt><trkpt lat="31.2602659687" lon="35.5217827857"><ele>-317.10</ele><time>2015-11-21T08:04:13Z</time></trkpt><trkpt lat="31.2602564972" lon="35.5218007229"><ele>-317.58</ele><time>2015-11-21T08:04:54Z</time></trkpt><trkpt lat="31.2602721713" lon="35.5217646807"><ele>-317.58</ele><time>2015-11-21T08:05:19Z</time></trkpt><trkpt lat="31.2602585927" lon="35.5217386130"><ele>-317.58</ele><time>2015-11-21T08:05:29Z</time></trkpt><trkpt lat="31.2602428347" lon="35.5217284709"><ele>-317.58</ele><time>2015-11-21T08:05:31Z</time></trkpt><trkpt lat="31.2601728458" lon="35.5216512736"><ele>-318.06</ele><time>2015-11-21T08:05:39Z</time></trkpt><trkpt lat="31.2598892022" lon="35.5214784387"><ele>-317.10</ele><time>2015-11-21T08:05:55Z</time></trkpt><trkpt lat="31.2598774675" lon="35.5214789417"><ele>-317.10</ele><time>2015-11-21T08:05:56Z</time></trkpt><trkpt lat="31.2598658167" lon="35.5214769300"><ele>-317.10</ele><time>2015-11-21T08:05:57Z</time></trkpt><trkpt lat="31.2595661636" lon="35.5213670433"><ele>-316.62</ele><time>2015-11-21T08:06:10Z</time></trkpt><trkpt lat="31.2593418639" lon="35.5212454218"><ele>-316.14</ele><time>2015-11-21T08:06:19Z</time></trkpt><trkpt lat="31.2593192328" lon="35.5212345254"><ele>-316.14</ele><time>2015-11-21T08:06:20Z</time></trkpt><trkpt lat="31.2592950929" lon="35.5212249700"><ele>-316.62</ele><time>2015-11-21T08:06:21Z</time></trkpt><trkpt lat="31.2592722941" lon="35.5212120619"><ele>-316.14</ele><time>2015-11-21T08:06:22Z</time></trkpt><trkpt lat="31.2592499144" lon="35.5211988185"><ele>-316.62</ele><time>2015-11-21T08:06:23Z</time></trkpt><trkpt lat="31.2591194082" lon="35.5211144127"><ele>-316.14</ele><time>2015-11-21T08:06:29Z</time></trkpt><trkpt lat="31.2591116969" lon="35.5210845731"><ele>-315.66</ele><time>2015-11-21T08:06:30Z</time></trkpt><trkpt lat="31.2591023091" lon="35.5210559070"><ele>-316.14</ele><time>2015-11-21T08:06:31Z</time></trkpt><trkpt lat="31.2590866350" lon="35.5210290849"><ele>-315.66</ele><time>2015-11-21T08:06:32Z</time></trkpt><trkpt lat="31.2590629142" lon="35.5210068729"><ele>-316.14</ele><time>2015-11-21T08:06:33Z</time></trkpt><trkpt lat="31.2590359244" lon="35.5209876783"><ele>-315.66</ele><time>2015-11-21T08:06:34Z</time></trkpt><trkpt lat="31.2590060849" lon="35.5209715012"><ele>-315.66</ele><time>2015-11-21T08:06:35Z</time></trkpt><trkpt lat="31.2585487682" lon="35.5207693297"><ele>-314.69</ele><time>2015-11-21T08:06:51Z</time></trkpt><trkpt lat="31.2580522243" lon="35.5205524061"><ele>-314.21</ele><time>2015-11-21T08:07:06Z</time></trkpt><trkpt lat="31.2572406046" lon="35.5202030484"><ele>-312.77</ele><time>2015-11-21T08:07:27Z</time></trkpt><trkpt lat="31.2565009855" lon="35.5199116934"><ele>-312.77</ele><time>2015-11-21T08:07:46Z</time></trkpt><trkpt lat="31.2557017710" lon="35.5196510162"><ele>-312.77</ele><time>2015-11-21T08:08:05Z</time></trkpt><trkpt lat="31.2552653253" lon="35.5195259582"><ele>-313.25</ele><time>2015-11-21T08:08:15Z</time></trkpt><trkpt lat="31.2544360198" lon="35.5193166621"><ele>-314.21</ele><time>2015-11-21T08:08:32Z</time></trkpt><trkpt lat="31.2535886932" lon="35.5191262253"><ele>-314.21</ele><time>2015-11-21T08:08:49Z</time></trkpt><trkpt lat="31.2524966151" lon="35.5188849103"><ele>-314.69</ele><time>2015-11-21T08:09:10Z</time></trkpt><trkpt lat="31.2514229771" lon="35.5186487082"><ele>-314.69</ele><time>2015-11-21T08:09:30Z</time></trkpt><trkpt lat="31.2509254273" lon="35.5186171923"><ele>-313.25</ele><time>2015-11-21T08:09:42Z</time></trkpt><trkpt lat="31.2509022932" lon="35.5186480377"><ele>-313.25</ele><time>2015-11-21T08:09:43Z</time></trkpt><trkpt lat="31.2508751359" lon="35.5186779611"><ele>-313.25</ele><time>2015-11-21T08:09:44Z</time></trkpt><trkpt lat="31.2508444581" lon="35.5187038612"><ele>-313.25</ele><time>2015-11-21T08:09:45Z</time></trkpt><trkpt lat="31.2508180551" lon="35.5187318567"><ele>-313.73</ele><time>2015-11-21T08:09:46Z</time></trkpt><trkpt lat="31.2508024648" lon="35.5187675636"><ele>-313.25</ele><time>2015-11-21T08:09:47Z</time></trkpt><trkpt lat="31.2507960107" lon="35.5188062042"><ele>-313.25</ele><time>2015-11-21T08:09:48Z</time></trkpt><trkpt lat="31.2507922389" lon="35.5188457668"><ele>-313.25</ele><time>2015-11-21T08:09:49Z</time></trkpt><trkpt lat="31.2508217432" lon="35.5194091983"><ele>-312.29</ele><time>2015-11-21T08:10:02Z</time></trkpt><trkpt lat="31.2508680113" lon="35.5200526770"><ele>-310.85</ele><time>2015-11-21T08:10:18Z</time></trkpt><trkpt lat="31.2509095017" lon="35.5207604449"><ele>-308.93</ele><time>2015-11-21T08:10:36Z</time></trkpt><trkpt lat="31.2509311270" lon="35.5213042628"><ele>-306.52</ele><time>2015-11-21T08:10:51Z</time></trkpt><trkpt lat="31.2509754673" lon="35.5219160579"><ele>-304.60</ele><time>2015-11-21T08:11:09Z</time></trkpt><trkpt lat="31.2510000262" lon="35.5225056410"><ele>-302.68</ele><time>2015-11-21T08:11:26Z</time></trkpt><trkpt lat="31.2510093302" lon="35.5229882710"><ele>-300.76</ele><time>2015-11-21T08:11:41Z</time></trkpt><trkpt lat="31.2509712763" lon="35.5234904308"><ele>-299.31</ele><time>2015-11-21T08:11:57Z</time></trkpt><trkpt lat="31.2508880440" lon="35.5239951052"><ele>-296.91</ele><time>2015-11-21T08:12:12Z</time></trkpt><trkpt lat="31.2507825159" lon="35.5244556069"><ele>-294.99</ele><time>2015-11-21T08:12:27Z</time></trkpt><trkpt lat="31.2506628223" lon="35.5249870196"><ele>-292.10</ele><time>2015-11-21T08:12:44Z</time></trkpt><trkpt lat="31.2506059092" lon="35.5253518838"><ele>-290.18</ele><time>2015-11-21T08:12:57Z</time></trkpt><trkpt lat="31.2505641673" lon="35.5257132277"><ele>-288.26</ele><time>2015-11-21T08:13:11Z</time></trkpt><trkpt lat="31.2505611498" lon="35.5261245277"><ele>-285.37</ele><time>2015-11-21T08:13:27Z</time></trkpt><trkpt lat="31.2505800091" lon="35.5265608057"><ele>-282.49</ele><time>2015-11-21T08:13:44Z</time></trkpt><trkpt lat="31.2506192364" lon="35.5269700941"><ele>-279.61</ele><time>2015-11-21T08:14:01Z</time></trkpt><trkpt lat="31.2506926619" lon="35.5273777898"><ele>-277.20</ele><time>2015-11-21T08:14:18Z</time></trkpt><trkpt lat="31.2507515866" lon="35.5277496949"><ele>-274.32</ele><time>2015-11-21T08:14:33Z</time></trkpt><trkpt lat="31.2508167978" lon="35.5281112064"><ele>-271.92</ele><time>2015-11-21T08:14:48Z</time></trkpt><trkpt lat="31.2508887984" lon="35.5285260268"><ele>-268.55</ele><time>2015-11-21T08:15:05Z</time></trkpt><trkpt lat="31.2509605475" lon="35.5289242510"><ele>-266.63</ele><time>2015-11-21T08:15:21Z</time></trkpt><trkpt lat="31.2510251720" lon="35.5293068849"><ele>-264.23</ele><time>2015-11-21T08:15:37Z</time></trkpt><trkpt lat="31.2510884553" lon="35.5296746828"><ele>-261.82</ele><time>2015-11-21T08:15:52Z</time></trkpt><trkpt lat="31.2511799019" lon="35.5301646888"><ele>-258.46</ele><time>2015-11-21T08:16:12Z</time></trkpt><trkpt lat="31.2512540817" lon="35.5305623263"><ele>-255.57</ele><time>2015-11-21T08:16:28Z</time></trkpt><trkpt lat="31.2513311114" lon="35.5309775658"><ele>-253.17</ele><time>2015-11-21T08:16:45Z</time></trkpt><trkpt lat="31.2513959035" lon="35.5314151850"><ele>-250.29</ele><time>2015-11-21T08:17:02Z</time></trkpt><trkpt lat="31.2514435127" lon="35.5317632854"><ele>-247.88</ele><time>2015-11-21T08:17:16Z</time></trkpt><trkpt lat="31.2515029404" lon="35.5321546365"><ele>-245.48</ele><time>2015-11-21T08:17:33Z</time></trkpt><trkpt lat="31.2515554950" lon="35.5325181596"><ele>-243.08</ele><time>2015-11-21T08:17:48Z</time></trkpt><trkpt lat="31.2516203709" lon="35.5329409428"><ele>-241.63</ele><time>2015-11-21T08:18:04Z</time></trkpt><trkpt lat="31.2516979873" lon="35.5334367324"><ele>-239.71</ele><time>2015-11-21T08:18:23Z</time></trkpt><trkpt lat="31.2517861649" lon="35.5340010021"><ele>-237.31</ele><time>2015-11-21T08:18:43Z</time></trkpt><trkpt lat="31.2518517114" lon="35.5345266312"><ele>-235.87</ele><time>2015-11-21T08:19:00Z</time></trkpt><trkpt lat="31.2519051041" lon="35.5350819323"><ele>-232.98</ele><time>2015-11-21T08:19:17Z</time></trkpt><trkpt lat="31.2519384641" lon="35.5356773827"><ele>-232.50</ele><time>2015-11-21T08:19:34Z</time></trkpt><trkpt lat="31.2519642804" lon="35.5362468492"><ele>-230.58</ele><time>2015-11-21T08:19:50Z</time></trkpt><trkpt lat="31.2519897614" lon="35.5368975364"><ele>-229.14</ele><time>2015-11-21T08:20:08Z</time></trkpt><trkpt lat="31.2520084530" lon="35.5375043023"><ele>-228.18</ele><time>2015-11-21T08:20:24Z</time></trkpt><trkpt lat="31.2520288210" lon="35.5382937938"><ele>-226.73</ele><time>2015-11-21T08:20:43Z</time></trkpt><trkpt lat="31.2520564813" lon="35.5388734862"><ele>-225.77</ele><time>2015-11-21T08:20:57Z</time></trkpt><trkpt lat="31.2520696409" lon="35.5394909810"><ele>-224.33</ele><time>2015-11-21T08:21:13Z</time></trkpt><trkpt lat="31.2520943675" lon="35.5401305202"><ele>-221.93</ele><time>2015-11-21T08:21:30Z</time></trkpt><trkpt lat="31.2521161605" lon="35.5407509487"><ele>-220.00</ele><time>2015-11-21T08:21:47Z</time></trkpt><trkpt lat="31.2521361094" lon="35.5413007177"><ele>-218.56</ele><time>2015-11-21T08:22:02Z</time></trkpt><trkpt lat="31.2521534599" lon="35.5419146083"><ele>-216.16</ele><time>2015-11-21T08:22:19Z</time></trkpt><trkpt lat="31.2521689665" lon="35.5424860865"><ele>-214.24</ele><time>2015-11-21T08:22:36Z</time></trkpt><trkpt lat="31.2521758396" lon="35.5429155752"><ele>-213.28</ele><time>2015-11-21T08:22:50Z</time></trkpt><trkpt lat="31.2521998119" lon="35.5433718022"><ele>-211.35</ele><time>2015-11-21T08:23:04Z</time></trkpt><trkpt lat="31.2522041705" lon="35.5438824277"><ele>-209.43</ele><time>2015-11-21T08:23:19Z</time></trkpt><trkpt lat="31.2521443237" lon="35.5446456838"><ele>-207.99</ele><time>2015-11-21T08:23:40Z</time></trkpt><trkpt lat="31.2520548888" lon="35.5450589117"><ele>-207.03</ele><time>2015-11-21T08:23:53Z</time></trkpt><trkpt lat="31.2520432379" lon="35.5451334268"><ele>-207.03</ele><time>2015-11-21T08:24:05Z</time></trkpt><trkpt lat="31.2520481832" lon="35.5451480113"><ele>-207.03</ele><time>2015-11-21T08:24:31Z</time></trkpt><trkpt lat="31.2520488538" lon="35.5451550521"><ele>-207.03</ele><time>2015-11-21T08:24:58Z</time></trkpt><trkpt lat="31.2520317547" lon="35.5451656133"><ele>-207.03</ele><time>2015-11-21T08:25:33Z</time></trkpt><trkpt lat="31.2520428188" lon="35.5451516993"><ele>-207.51</ele><time>2015-11-21T08:26:07Z</time></trkpt><trkpt lat="31.2520497758" lon="35.5451469216"><ele>-208.95</ele><time>2015-11-21T08:26:23Z</time></trkpt><trkpt lat="31.2520501111" lon="35.5451448262"><ele>-204.14</ele><time>2015-11-21T08:26:26Z</time></trkpt><trkpt lat="31.2520504463" lon="35.5451417249"><ele>-207.99</ele><time>2015-11-21T08:26:28Z</time></trkpt><trkpt lat="31.2520347722" lon="35.5451542977"><ele>-207.03</ele><time>2015-11-21T08:26:57Z</time></trkpt><trkpt lat="31.2520286534" lon="35.5451717321"><ele>-207.03</ele><time>2015-11-21T08:27:00Z</time></trkpt><trkpt lat="31.2520256359" lon="35.5451864842"><ele>-207.51</ele><time>2015-11-21T08:27:01Z</time></trkpt><trkpt lat="31.2520219479" lon="35.5452063493"><ele>-207.03</ele><time>2015-11-21T08:27:02Z</time></trkpt><trkpt lat="31.2520153262" lon="35.5452273879"><ele>-207.03</ele><time>2015-11-21T08:27:03Z</time></trkpt><trkpt lat="31.2520058546" lon="35.5452519469"><ele>-207.03</ele><time>2015-11-21T08:27:04Z</time></trkpt><trkpt lat="31.2519970536" lon="35.5452777632"><ele>-207.03</ele><time>2015-11-21T08:27:05Z</time></trkpt><trkpt lat="31.2519885041" lon="35.5453049205"><ele>-207.03</ele><time>2015-11-21T08:27:06Z</time></trkpt><trkpt lat="31.2519800384" lon="35.5453333352"><ele>-207.03</ele><time>2015-11-21T08:27:07Z</time></trkpt><trkpt lat="31.2519683875" lon="35.5453618336"><ele>-206.55</ele><time>2015-11-21T08:27:08Z</time></trkpt><trkpt lat="31.2517836504" lon="35.5458289571"><ele>-205.58</ele><time>2015-11-21T08:27:23Z</time></trkpt><trkpt lat="31.2515333667" lon="35.5463800672"><ele>-204.14</ele><time>2015-11-21T08:27:39Z</time></trkpt><trkpt lat="31.2512576859" lon="35.5469849054"><ele>-200.78</ele><time>2015-11-21T08:27:57Z</time></trkpt><trkpt lat="31.2510421034" lon="35.5474632606"><ele>-198.86</ele><time>2015-11-21T08:28:11Z</time></trkpt><trkpt lat="31.2507469766" lon="35.5480897240"><ele>-195.97</ele><time>2015-11-21T08:28:30Z</time></trkpt><trkpt lat="31.2505201623" lon="35.5486092344"><ele>-193.57</ele><time>2015-11-21T08:28:46Z</time></trkpt><trkpt lat="31.2503027357" lon="35.5490869191"><ele>-191.65</ele><time>2015-11-21T08:29:01Z</time></trkpt><trkpt lat="31.2500380352" lon="35.5496941041"><ele>-188.28</ele><time>2015-11-21T08:29:20Z</time></trkpt><trkpt lat="31.2497495301" lon="35.5503046419"><ele>-185.40</ele><time>2015-11-21T08:29:39Z</time></trkpt><trkpt lat="31.2494623661" lon="35.5509381462"><ele>-182.51</ele><time>2015-11-21T08:29:59Z</time></trkpt><trkpt lat="31.2492207997" lon="35.5514468439"><ele>-180.11</ele><time>2015-11-21T08:30:16Z</time></trkpt><trkpt lat="31.2489811610" lon="35.5519861355"><ele>-177.23</ele><time>2015-11-21T08:30:34Z</time></trkpt><trkpt lat="31.2487424444" lon="35.5525252596"><ele>-174.34</ele><time>2015-11-21T08:30:52Z</time></trkpt><trkpt lat="31.2485135347" lon="35.5530334543"><ele>-171.94</ele><time>2015-11-21T08:31:09Z</time></trkpt><trkpt lat="31.2482939288" lon="35.5535288248"><ele>-169.54</ele><time>2015-11-21T08:31:26Z</time></trkpt><trkpt lat="31.2480283901" lon="35.5541055836"><ele>-166.17</ele><time>2015-11-21T08:31:45Z</time></trkpt><trkpt lat="31.2478285655" lon="35.5545705277"><ele>-164.73</ele><time>2015-11-21T08:32:00Z</time></trkpt><trkpt lat="31.2476152461" lon="35.5550332088"><ele>-163.29</ele><time>2015-11-21T08:32:15Z</time></trkpt><trkpt lat="31.2473792117" lon="35.5555485282"><ele>-160.40</ele><time>2015-11-21T08:32:32Z</time></trkpt><trkpt lat="31.2471458595" lon="35.5560801085"><ele>-157.52</ele><time>2015-11-21T08:32:49Z</time></trkpt><trkpt lat="31.2469062209" lon="35.5565981939"><ele>-154.64</ele><time>2015-11-21T08:33:05Z</time></trkpt><trkpt lat="31.2466955837" lon="35.5570871942"><ele>-151.75</ele><time>2015-11-21T08:33:22Z</time></trkpt><trkpt lat="31.2465158757" lon="35.5574729294"><ele>-148.87</ele><time>2015-11-21T08:33:36Z</time></trkpt><trkpt lat="31.2463308871" lon="35.5578929465"><ele>-146.46</ele><time>2015-11-21T08:33:52Z</time></trkpt><trkpt lat="31.2461446412" lon="35.5582923442"><ele>-143.58</ele><time>2015-11-21T08:34:09Z</time></trkpt><trkpt lat="31.2459443137" lon="35.5587428715"><ele>-141.18</ele><time>2015-11-21T08:34:27Z</time></trkpt><trkpt lat="31.2457176670" lon="35.5592397507"><ele>-138.29</ele><time>2015-11-21T08:34:47Z</time></trkpt><trkpt lat="31.2455203570" lon="35.5596771184"><ele>-135.89</ele><time>2015-11-21T08:35:05Z</time></trkpt><trkpt lat="31.2453603465" lon="35.5600450002"><ele>-133.49</ele><time>2015-11-21T08:35:20Z</time></trkpt><trkpt lat="31.2452037726" lon="35.5604006443"><ele>-131.56</ele><time>2015-11-21T08:35:35Z</time></trkpt><trkpt lat="31.2450459413" lon="35.5607408658"><ele>-129.64</ele><time>2015-11-21T08:35:50Z</time></trkpt><trkpt lat="31.2448819913" lon="35.5611183029"><ele>-127.24</ele><time>2015-11-21T08:36:06Z</time></trkpt><trkpt lat="31.2446744554" lon="35.5615713447"><ele>-124.83</ele><time>2015-11-21T08:36:25Z</time></trkpt><trkpt lat="31.2444693502" lon="35.5620383844"><ele>-121.95</ele><time>2015-11-21T08:36:44Z</time></trkpt><trkpt lat="31.2442981917" lon="35.5624315795"><ele>-120.03</ele><time>2015-11-21T08:37:00Z</time></trkpt><trkpt lat="31.2440925837" lon="35.5628614873"><ele>-117.62</ele><time>2015-11-21T08:37:18Z</time></trkpt><trkpt lat="31.2438803539" lon="35.5633416027"><ele>-114.26</ele><time>2015-11-21T08:37:38Z</time></trkpt><trkpt lat="31.2436844688" lon="35.5637777969"><ele>-111.38</ele><time>2015-11-21T08:37:56Z</time></trkpt><trkpt lat="31.2434470933" lon="35.5643025879"><ele>-108.01</ele><time>2015-11-21T08:38:17Z</time></trkpt><trkpt lat="31.2432777788" lon="35.5646806117"><ele>-105.61</ele><time>2015-11-21T08:38:33Z</time></trkpt><trkpt lat="31.2431049440" lon="35.5650670175"><ele>-103.20</ele><time>2015-11-21T08:38:49Z</time></trkpt><trkpt lat="31.2429551594" lon="35.5653913133"><ele>-101.28</ele><time>2015-11-21T08:39:03Z</time></trkpt><trkpt lat="31.2427787203" lon="35.5657979194"><ele>-98.88</ele><time>2015-11-21T08:39:20Z</time></trkpt><trkpt lat="31.2425915524" lon="35.5662018433"><ele>-96.48</ele><time>2015-11-21T08:39:37Z</time></trkpt><trkpt lat="31.2423614692" lon="35.5667000636"><ele>-93.59</ele><time>2015-11-21T08:39:58Z</time></trkpt><trkpt lat="31.2421802524" lon="35.5670965277"><ele>-91.67</ele><time>2015-11-21T08:40:14Z</time></trkpt><trkpt lat="31.2419916596" lon="35.5675273575"><ele>-89.27</ele><time>2015-11-21T08:40:33Z</time></trkpt><trkpt lat="31.2418293022" lon="35.5678848457"><ele>-87.82</ele><time>2015-11-21T08:40:49Z</time></trkpt><trkpt lat="31.2416775059" lon="35.5682200380"><ele>-85.42</ele><time>2015-11-21T08:41:04Z</time></trkpt><trkpt lat="31.2415251229" lon="35.5685869139"><ele>-83.50</ele><time>2015-11-21T08:41:21Z</time></trkpt><trkpt lat="31.2413744163" lon="35.5689533707"><ele>-81.09</ele><time>2015-11-21T08:41:38Z</time></trkpt><trkpt lat="31.2412562314" lon="35.5693784170"><ele>-77.73</ele><time>2015-11-21T08:41:58Z</time></trkpt><trkpt lat="31.2412089575" lon="35.5696554389"><ele>-75.33</ele><time>2015-11-21T08:42:12Z</time></trkpt><trkpt lat="31.2411652878" lon="35.5700136814"><ele>-72.92</ele><time>2015-11-21T08:42:30Z</time></trkpt><trkpt lat="31.2411542237" lon="35.5703208782"><ele>-71.00</ele><time>2015-11-21T08:42:46Z</time></trkpt><trkpt lat="31.2411625218" lon="35.5706023425"><ele>-68.60</ele><time>2015-11-21T08:43:00Z</time></trkpt><trkpt lat="31.2412025034" lon="35.5709489342"><ele>-66.19</ele><time>2015-11-21T08:43:17Z</time></trkpt><trkpt lat="31.2412652001" lon="35.5712865572"><ele>-63.79</ele><time>2015-11-21T08:43:35Z</time></trkpt><trkpt lat="31.2413560599" lon="35.5716119427"><ele>-61.39</ele><time>2015-11-21T08:43:52Z</time></trkpt><trkpt lat="31.2414428964" lon="35.5718245916"><ele>-59.46</ele><time>2015-11-21T08:44:04Z</time></trkpt><trkpt lat="31.2414542958" lon="35.5718387570"><ele>-59.46</ele><time>2015-11-21T08:44:05Z</time></trkpt><trkpt lat="31.2414660305" lon="35.5718535092"><ele>-59.46</ele><time>2015-11-21T08:44:06Z</time></trkpt><trkpt lat="31.2414754182" lon="35.5718672555"><ele>-59.46</ele><time>2015-11-21T08:44:07Z</time></trkpt><trkpt lat="31.2414792739" lon="35.5718841869"><ele>-59.46</ele><time>2015-11-21T08:44:08Z</time></trkpt><trkpt lat="31.2414803635" lon="35.5719016213"><ele>-58.98</ele><time>2015-11-21T08:44:09Z</time></trkpt><trkpt lat="31.2414808664" lon="35.5719184689"><ele>-58.98</ele><time>2015-11-21T08:44:10Z</time></trkpt><trkpt lat="31.2414836325" lon="35.5719380826"><ele>-58.98</ele><time>2015-11-21T08:44:11Z</time></trkpt><trkpt lat="31.2414878234" lon="35.5719555169"><ele>-58.98</ele><time>2015-11-21T08:44:12Z</time></trkpt><trkpt lat="31.2414914276" lon="35.5719735380"><ele>-58.50</ele><time>2015-11-21T08:44:13Z</time></trkpt><trkpt lat="31.2414976303" lon="35.5719889607"><ele>-58.50</ele><time>2015-11-21T08:44:14Z</time></trkpt><trkpt lat="31.2416350935" lon="35.5723108258"><ele>-55.62</ele><time>2015-11-21T08:44:33Z</time></trkpt><trkpt lat="31.2416982092" lon="35.5724726804"><ele>-54.18</ele><time>2015-11-21T08:44:42Z</time></trkpt><trkpt lat="31.2417040765" lon="35.5724909529"><ele>-54.18</ele><time>2015-11-21T08:44:43Z</time></trkpt><trkpt lat="31.2417132128" lon="35.5725095607"><ele>-53.70</ele><time>2015-11-21T08:44:44Z</time></trkpt><trkpt lat="31.2417215109" lon="35.5725274980"><ele>-53.70</ele><time>2015-11-21T08:44:45Z</time></trkpt><trkpt lat="31.2417270429" lon="35.5725456867"><ele>-53.70</ele><time>2015-11-21T08:44:46Z</time></trkpt><trkpt lat="31.2417326588" lon="35.5725658033"><ele>-53.70</ele><time>2015-11-21T08:44:47Z</time></trkpt><trkpt lat="31.2417410407" lon="35.5725844111"><ele>-53.70</ele><time>2015-11-21T08:44:48Z</time></trkpt><trkpt lat="31.2417462375" lon="35.5726048630"><ele>-53.22</ele><time>2015-11-21T08:44:49Z</time></trkpt><trkpt lat="31.2417526077" lon="35.5726224650"><ele>-53.22</ele><time>2015-11-21T08:44:50Z</time></trkpt><trkpt lat="31.2418826949" lon="35.5729259737"><ele>-50.81</ele><time>2015-11-21T08:45:07Z</time></trkpt><trkpt lat="31.2419793382" lon="35.5731515307"><ele>-48.89</ele><time>2015-11-21T08:45:20Z</time></trkpt><trkpt lat="31.2420967687" lon="35.5734568834"><ele>-46.01</ele><time>2015-11-21T08:45:36Z</time></trkpt><trkpt lat="31.2422093377" lon="35.5737411138"><ele>-44.08</ele><time>2015-11-21T08:45:52Z</time></trkpt><trkpt lat="31.2423208170" lon="35.5740074906"><ele>-42.16</ele><time>2015-11-21T08:46:08Z</time></trkpt><trkpt lat="31.2424149457" lon="35.5742473807"><ele>-40.24</ele><time>2015-11-21T08:46:21Z</time></trkpt><trkpt lat="31.2425183784" lon="35.5745036155"><ele>-37.83</ele><time>2015-11-21T08:46:35Z</time></trkpt><trkpt lat="31.2426326238" lon="35.5747929588"><ele>-35.91</ele><time>2015-11-21T08:46:52Z</time></trkpt><trkpt lat="31.2427362241" lon="35.5750621855"><ele>-33.99</ele><time>2015-11-21T08:47:07Z</time></trkpt><trkpt lat="31.2427844200" lon="35.5751733296"><ele>-33.51</ele><time>2015-11-21T08:47:15Z</time></trkpt><trkpt lat="31.2428885233" lon="35.5754589848"><ele>-32.07</ele><time>2015-11-21T08:47:31Z</time></trkpt><trkpt lat="31.2429719232" lon="35.5757059157"><ele>-30.62</ele><time>2015-11-21T08:47:46Z</time></trkpt><trkpt lat="31.2429598533" lon="35.5756935943"><ele>-30.62</ele><time>2015-11-21T08:47:56Z</time></trkpt><trkpt lat="31.2429561652" lon="35.5757001322"><ele>-30.62</ele><time>2015-11-21T08:48:13Z</time></trkpt><trkpt lat="31.2429536507" lon="35.5757148005"><ele>-30.14</ele><time>2015-11-21T08:48:51Z</time></trkpt><trkpt lat="31.2429551594" lon="35.5757002160"><ele>-30.14</ele><time>2015-11-21T08:49:38Z</time></trkpt><trkpt lat="31.2429570034" lon="35.5757056642"><ele>-29.66</ele><time>2015-11-21T08:50:20Z</time></trkpt><trkpt lat="31.2429658882" lon="35.5757006351"><ele>-29.18</ele><time>2015-11-21T08:51:02Z</time></trkpt><trkpt lat="31.2429648824" lon="35.5757043231"><ele>-29.66</ele><time>2015-11-21T08:51:47Z</time></trkpt><trkpt lat="31.2429610267" lon="35.5756990425"><ele>-29.18</ele><time>2015-11-21T08:52:30Z</time></trkpt><trkpt lat="31.2429647148" lon="35.5757120345"><ele>-29.18</ele><time>2015-11-21T08:53:18Z</time></trkpt><trkpt lat="31.2429564167" lon="35.5757024791"><ele>-28.70</ele><time>2015-11-21T08:54:10Z</time></trkpt><trkpt lat="31.2429506332" lon="35.5757082626"><ele>-28.70</ele><time>2015-11-21T08:54:54Z</time></trkpt><trkpt lat="31.2429573387" lon="35.5757163931"><ele>-28.70</ele><time>2015-11-21T08:55:32Z</time></trkpt><trkpt lat="31.2429544050" lon="35.5757051613"><ele>-28.22</ele><time>2015-11-21T08:56:10Z</time></trkpt><trkpt lat="31.2429545727" lon="35.5757108610"><ele>-27.74</ele><time>2015-11-21T08:56:57Z</time></trkpt><trkpt lat="31.2429540697" lon="35.5757176504"><ele>-27.74</ele><time>2015-11-21T08:57:36Z</time></trkpt><trkpt lat="31.2429532316" lon="35.5757131241"><ele>-27.26</ele><time>2015-11-21T08:58:24Z</time></trkpt><trkpt lat="31.2429630384" lon="35.5757227633"><ele>-27.26</ele><time>2015-11-21T08:59:06Z</time></trkpt><trkpt lat="31.2429637089" lon="35.5757269543"><ele>-26.78</ele><time>2015-11-21T08:59:50Z</time></trkpt><trkpt lat="31.2429654691" lon="35.5757162254"><ele>-26.78</ele><time>2015-11-21T09:00:27Z</time></trkpt><trkpt lat="31.2429658044" lon="35.5757163092"><ele>-26.78</ele><time>2015-11-21T09:01:11Z</time></trkpt><trkpt lat="31.2429632898" lon="35.5757155549"><ele>-26.78</ele><time>2015-11-21T09:01:49Z</time></trkpt><trkpt lat="31.2429614458" lon="35.5757090170"><ele>-26.30</ele><time>2015-11-21T09:02:28Z</time></trkpt><trkpt lat="31.2429667264" lon="35.5757148843"><ele>-26.30</ele><time>2015-11-21T09:03:09Z</time></trkpt><trkpt lat="31.2429594342" lon="35.5757210031"><ele>-26.30</ele><time>2015-11-21T09:03:42Z</time></trkpt><trkpt lat="31.2429596856" lon="35.5757210869"><ele>-26.78</ele><time>2015-11-21T09:04:27Z</time></trkpt><trkpt lat="31.2429518066" lon="35.5757113639"><ele>-26.30</ele><time>2015-11-21T09:05:00Z</time></trkpt><trkpt lat="31.2429570872" lon="35.5757163931"><ele>-26.30</ele><time>2015-11-21T09:05:44Z</time></trkpt><trkpt lat="31.2429590989" lon="35.5757074244"><ele>-26.78</ele><time>2015-11-21T09:06:28Z</time></trkpt><trkpt lat="31.2429605238" lon="35.5757178180"><ele>-26.30</ele><time>2015-11-21T09:07:07Z</time></trkpt><trkpt lat="31.2429576740" lon="35.5757197458"><ele>-26.30</ele><time>2015-11-21T09:07:58Z</time></trkpt><trkpt lat="31.2429657206" lon="35.5757295527"><ele>-26.78</ele><time>2015-11-21T09:08:40Z</time></trkpt><trkpt lat="31.2429653853" lon="35.5757229310"><ele>-26.78</ele><time>2015-11-21T09:09:18Z</time></trkpt><trkpt lat="31.2429529801" lon="35.5757105257"><ele>-26.78</ele><time>2015-11-21T09:09:57Z</time></trkpt><trkpt lat="31.2429546565" lon="35.5757080112"><ele>-26.78</ele><time>2015-11-21T09:10:43Z</time></trkpt><trkpt lat="31.2429615296" lon="35.5756977014"><ele>-26.78</ele><time>2015-11-21T09:11:21Z</time></trkpt><trkpt lat="31.2429627031" lon="35.5756984558"><ele>-26.78</ele><time>2015-11-21T09:11:55Z</time></trkpt><trkpt lat="31.2429627869" lon="35.5757201649"><ele>-26.78</ele><time>2015-11-21T09:12:28Z</time></trkpt><trkpt lat="31.2429626193" lon="35.5756989587"><ele>-26.78</ele><time>2015-11-21T09:13:11Z</time></trkpt><trkpt lat="31.2429728452" lon="35.5757025629"><ele>-26.78</ele><time>2015-11-21T09:13:47Z</time></trkpt><trkpt lat="31.2429680675" lon="35.5757147167"><ele>-26.78</ele><time>2015-11-21T09:14:22Z</time></trkpt><trkpt lat="31.2429898605" lon="35.5757366773"><ele>-26.78</ele><time>2015-11-21T09:14:43Z</time></trkpt><trkpt lat="31.2429946382" lon="35.5757557042"><ele>-26.30</ele><time>2015-11-21T09:15:00Z</time></trkpt><trkpt lat="31.2430745177" lon="35.5759302154"><ele>-25.34</ele><time>2015-11-21T09:15:10Z</time></trkpt><trkpt lat="31.2433146592" lon="35.5764865223"><ele>-23.90</ele><time>2015-11-21T09:15:29Z</time></trkpt><trkpt lat="31.2434998155" lon="35.5769677274"><ele>-24.38</ele><time>2015-11-21T09:15:40Z</time></trkpt><trkpt lat="31.2438590638" lon="35.5777648464"><ele>-22.93</ele><time>2015-11-21T09:15:57Z</time></trkpt><trkpt lat="31.2438793480" lon="35.5778073426"><ele>-22.93</ele><time>2015-11-21T09:15:58Z</time></trkpt><trkpt lat="31.2439417932" lon="35.5779294670"><ele>-22.45</ele><time>2015-11-21T09:16:01Z</time></trkpt><trkpt lat="31.2443501595" lon="35.5784768052"><ele>-20.53</ele><time>2015-11-21T09:16:17Z</time></trkpt><trkpt lat="31.2448998448" lon="35.5789992493"><ele>-19.57</ele><time>2015-11-21T09:16:35Z</time></trkpt><trkpt lat="31.2456704769" lon="35.5793496966"><ele>-19.57</ele><time>2015-11-21T09:16:54Z</time></trkpt><trkpt lat="31.2465136964" lon="35.5796345975"><ele>-19.57</ele><time>2015-11-21T09:17:12Z</time></trkpt><trkpt lat="31.2470093183" lon="35.5797855556"><ele>-16.69</ele><time>2015-11-21T09:17:26Z</time></trkpt><trkpt lat="31.2473530602" lon="35.5798910838"><ele>-13.80</ele><time>2015-11-21T09:17:41Z</time></trkpt><trkpt lat="31.2476836424" lon="35.5799843743"><ele>-10.92</ele><time>2015-11-21T09:17:57Z</time></trkpt><trkpt lat="31.2480272166" lon="35.5800919142"><ele>-7.55</ele><time>2015-11-21T09:18:14Z</time></trkpt><trkpt lat="31.2483534403" lon="35.5801864620"><ele>-4.67</ele><time>2015-11-21T09:18:31Z</time></trkpt><trkpt lat="31.2486380059" lon="35.5802979413"><ele>-3.23</ele><time>2015-11-21T09:18:47Z</time></trkpt><trkpt lat="31.2489389163" lon="35.5804146174"><ele>-0.82</ele><time>2015-11-21T09:19:04Z</time></trkpt><trkpt lat="31.2491383217" lon="35.5804991908"><ele>0.14</ele><time>2015-11-21T09:19:19Z</time></trkpt><trkpt lat="31.2491389923" lon="35.5804975983"><ele>1.10</ele><time>2015-11-21T09:19:41Z</time></trkpt><trkpt lat="31.2491570134" lon="35.5804976821"><ele>0.62</ele><time>2015-11-21T09:20:02Z</time></trkpt><trkpt lat="31.2491643056" lon="35.5804841872"><ele>0.62</ele><time>2015-11-21T09:20:03Z</time></trkpt><trkpt lat="31.2491696700" lon="35.5804705247"><ele>0.62</ele><time>2015-11-21T09:20:04Z</time></trkpt><trkpt lat="31.2491724361" lon="35.5804566946"><ele>0.62</ele><time>2015-11-21T09:20:05Z</time></trkpt><trkpt lat="31.2491741125" lon="35.5804426130"><ele>0.62</ele><time>2015-11-21T09:20:06Z</time></trkpt><trkpt lat="31.2491627969" lon="35.5804246757"><ele>0.62</ele><time>2015-11-21T09:20:22Z</time></trkpt><trkpt lat="31.2491362263" lon="35.5804292858"><ele>1.10</ele><time>2015-11-21T09:20:59Z</time></trkpt><trkpt lat="31.2491208874" lon="35.5804366618"><ele>0.62</ele><time>2015-11-21T09:21:03Z</time></trkpt><trkpt lat="31.2491568457" lon="35.5804996938"><ele>1.10</ele><time>2015-11-21T09:21:08Z</time></trkpt><trkpt lat="31.2493709195" lon="35.5805993546"><ele>3.02</ele><time>2015-11-21T09:21:22Z</time></trkpt><trkpt lat="31.2494021840" lon="35.5806099158"><ele>3.02</ele><time>2015-11-21T09:21:24Z</time></trkpt><trkpt lat="31.2497073691" lon="35.5807285197"><ele>5.91</ele><time>2015-11-21T09:21:42Z</time></trkpt><trkpt lat="31.2499694712" lon="35.5808475427"><ele>7.83</ele><time>2015-11-21T09:21:58Z</time></trkpt><trkpt lat="31.2502523605" lon="35.5809530709"><ele>9.27</ele><time>2015-11-21T09:22:13Z</time></trkpt><trkpt lat="31.2507107668" lon="35.5810970720"><ele>9.75</ele><time>2015-11-21T09:22:28Z</time></trkpt><trkpt lat="31.2511295266" lon="35.5812387262"><ele>9.75</ele><time>2015-11-21T09:22:41Z</time></trkpt><trkpt lat="31.2516738474" lon="35.5814224575"><ele>9.75</ele><time>2015-11-21T09:22:54Z</time></trkpt><trkpt lat="31.2523499317" lon="35.5816381238"><ele>12.63</ele><time>2015-11-21T09:23:09Z</time></trkpt><trkpt lat="31.2527697813" lon="35.5821126234"><ele>14.56</ele><time>2015-11-21T09:23:24Z</time></trkpt><trkpt lat="31.2531456258" lon="35.5825865362"><ele>17.44</ele><time>2015-11-21T09:23:41Z</time></trkpt><trkpt lat="31.2532779761" lon="35.5828044657"><ele>19.84</ele><time>2015-11-21T09:23:52Z</time></trkpt><trkpt lat="31.2533435225" lon="35.5829730257"><ele>22.25</ele><time>2015-11-21T09:24:04Z</time></trkpt><trkpt lat="31.2533873599" lon="35.5832326971"><ele>24.65</ele><time>2015-11-21T09:24:18Z</time></trkpt><trkpt lat="31.2534221448" lon="35.5835375469"><ele>27.05</ele><time>2015-11-21T09:24:34Z</time></trkpt><trkpt lat="31.2534562591" lon="35.5839049257"><ele>29.46</ele><time>2015-11-21T09:24:52Z</time></trkpt><trkpt lat="31.2535261642" lon="35.5842275452"><ele>31.38</ele><time>2015-11-21T09:25:09Z</time></trkpt><trkpt lat="31.2536401581" lon="35.5844770744"><ele>33.30</ele><time>2015-11-21T09:25:23Z</time></trkpt><trkpt lat="31.2537912000" lon="35.5847403500"><ele>35.71</ele><time>2015-11-21T09:25:38Z</time></trkpt><trkpt lat="31.2539911084" lon="35.5849757977"><ele>38.11</ele><time>2015-11-21T09:25:53Z</time></trkpt><trkpt lat="31.2541776057" lon="35.5852185376"><ele>40.03</ele><time>2015-11-21T09:26:09Z</time></trkpt><trkpt lat="31.2543547153" lon="35.5854647141"><ele>42.44</ele><time>2015-11-21T09:26:24Z</time></trkpt><trkpt lat="31.2544632610" lon="35.5857063644"><ele>45.32</ele><time>2015-11-21T09:26:37Z</time></trkpt><trkpt lat="31.2544676196" lon="35.5857222900"><ele>45.80</ele><time>2015-11-21T09:26:38Z</time></trkpt><trkpt lat="31.2544697989" lon="35.5857382994"><ele>45.80</ele><time>2015-11-21T09:26:39Z</time></trkpt><trkpt lat="31.2544734031" lon="35.5857555661"><ele>46.28</ele><time>2015-11-21T09:26:40Z</time></trkpt><trkpt lat="31.2545020692" lon="35.5858207773"><ele>47.24</ele><time>2015-11-21T09:26:44Z</time></trkpt><trkpt lat="31.2545043323" lon="35.5858377926"><ele>47.72</ele><time>2015-11-21T09:26:45Z</time></trkpt><trkpt lat="31.2545079365" lon="35.5858531315"><ele>47.72</ele><time>2015-11-21T09:26:46Z</time></trkpt><trkpt lat="31.2545127980" lon="35.5858671293"><ele>48.20</ele><time>2015-11-21T09:26:47Z</time></trkpt><trkpt lat="31.2545143068" lon="35.5858830549"><ele>48.20</ele><time>2015-11-21T09:26:48Z</time></trkpt><trkpt lat="31.2545163184" lon="35.5859009083"><ele>48.68</ele><time>2015-11-21T09:26:49Z</time></trkpt><trkpt lat="31.2545210123" lon="35.5859191809"><ele>48.68</ele><time>2015-11-21T09:26:50Z</time></trkpt><trkpt lat="31.2545259576" lon="35.5859366152"><ele>49.16</ele><time>2015-11-21T09:26:51Z</time></trkpt><trkpt lat="31.2545302324" lon="35.5859540496"><ele>49.16</ele><time>2015-11-21T09:26:52Z</time></trkpt><trkpt lat="31.2545313220" lon="35.5859723222"><ele>49.65</ele><time>2015-11-21T09:26:53Z</time></trkpt><trkpt lat="31.2545375247" lon="35.5860073585"><ele>50.13</ele><time>2015-11-21T09:26:55Z</time></trkpt><trkpt lat="31.2545331661" lon="35.5860271398"><ele>50.61</ele><time>2015-11-21T09:26:56Z</time></trkpt><trkpt lat="31.2545257062" lon="35.5860453285"><ele>50.61</ele><time>2015-11-21T09:26:57Z</time></trkpt><trkpt lat="31.2545236107" lon="35.5860620085"><ele>51.09</ele><time>2015-11-21T09:26:58Z</time></trkpt><trkpt lat="31.2545226887" lon="35.5860778503"><ele>51.09</ele><time>2015-11-21T09:26:59Z</time></trkpt><trkpt lat="31.2545196712" lon="35.5860937759"><ele>51.09</ele><time>2015-11-21T09:27:00Z</time></trkpt><trkpt lat="31.2545168214" lon="35.5861105397"><ele>51.57</ele><time>2015-11-21T09:27:01Z</time></trkpt><trkpt lat="31.2545141391" lon="35.5861262977"><ele>51.57</ele><time>2015-11-21T09:27:02Z</time></trkpt><trkpt lat="31.2545114569" lon="35.5861417204"><ele>52.05</ele><time>2015-11-21T09:27:03Z</time></trkpt><trkpt lat="31.2544556335" lon="35.5863634218"><ele>54.45</ele><time>2015-11-21T09:27:16Z</time></trkpt><trkpt lat="31.2544527836" lon="35.5864106119"><ele>54.93</ele><time>2015-11-21T09:27:19Z</time></trkpt><trkpt lat="31.2544521969" lon="35.5864282139"><ele>54.93</ele><time>2015-11-21T09:27:20Z</time></trkpt><trkpt lat="31.2544532027" lon="35.5864444748"><ele>55.41</ele><time>2015-11-21T09:27:21Z</time></trkpt><trkpt lat="31.2544495147" lon="35.5864608195"><ele>55.41</ele><time>2015-11-21T09:27:22Z</time></trkpt><trkpt lat="31.2544486765" lon="35.5864767451"><ele>55.89</ele><time>2015-11-21T09:27:23Z</time></trkpt><trkpt lat="31.2544493470" lon="35.5864934251"><ele>55.89</ele><time>2015-11-21T09:27:24Z</time></trkpt><trkpt lat="31.2544476707" lon="35.5865103565"><ele>55.89</ele><time>2015-11-21T09:27:25Z</time></trkpt><trkpt lat="31.2544437312" lon="35.5865266174"><ele>56.37</ele><time>2015-11-21T09:27:26Z</time></trkpt><trkpt lat="31.2544191722" lon="35.5867419485"><ele>59.74</ele><time>2015-11-21T09:27:39Z</time></trkpt><trkpt lat="31.2544153165" lon="35.5868334789"><ele>60.70</ele><time>2015-11-21T09:27:45Z</time></trkpt><trkpt lat="31.2544154003" lon="35.5868491530"><ele>61.18</ele><time>2015-11-21T09:27:46Z</time></trkpt><trkpt lat="31.2544180825" lon="35.5868660007"><ele>61.18</ele><time>2015-11-21T09:27:47Z</time></trkpt><trkpt lat="31.2544203456" lon="35.5868823454"><ele>61.66</ele><time>2015-11-21T09:27:48Z</time></trkpt><trkpt lat="31.2544212677" lon="35.5868986063"><ele>61.66</ele><time>2015-11-21T09:27:49Z</time></trkpt><trkpt lat="31.2544213515" lon="35.5870184675"><ele>62.62</ele><time>2015-11-21T09:27:56Z</time></trkpt><trkpt lat="31.2544199266" lon="35.5870374106"><ele>62.62</ele><time>2015-11-21T09:27:57Z</time></trkpt><trkpt lat="31.2544184178" lon="35.5870588683"><ele>63.10</ele><time>2015-11-21T09:27:58Z</time></trkpt><trkpt lat="31.2544180825" lon="35.5870822538"><ele>63.10</ele><time>2015-11-21T09:27:59Z</time></trkpt><trkpt lat="31.2544169091" lon="35.5871016160"><ele>63.10</ele><time>2015-11-21T09:28:00Z</time></trkpt><trkpt lat="31.2544156518" lon="35.5871368200"><ele>63.58</ele><time>2015-11-21T09:28:02Z</time></trkpt><trkpt lat="31.2544128858" lon="35.5871566013"><ele>63.58</ele><time>2015-11-21T09:28:03Z</time></trkpt><trkpt lat="31.2544059288" lon="35.5871747900"><ele>63.58</ele><time>2015-11-21T09:28:04Z</time></trkpt><trkpt lat="31.2543956190" lon="35.5871913023"><ele>64.07</ele><time>2015-11-21T09:28:05Z</time></trkpt><trkpt lat="31.2543860637" lon="35.5872073118"><ele>64.07</ele><time>2015-11-21T09:28:06Z</time></trkpt><trkpt lat="31.2543749996" lon="35.5872189626"><ele>64.55</ele><time>2015-11-21T09:28:07Z</time></trkpt><trkpt lat="31.2543597445" lon="35.5872241594"><ele>65.03</ele><time>2015-11-21T09:28:08Z</time></trkpt><trkpt lat="31.2542890012" lon="35.5871911347"><ele>66.47</ele><time>2015-11-21T09:28:13Z</time></trkpt><trkpt lat="31.2542500254" lon="35.5870436970"><ele>67.43</ele><time>2015-11-21T09:28:22Z</time></trkpt><trkpt lat="31.2541929446" lon="35.5867079180"><ele>69.35</ele><time>2015-11-21T09:28:41Z</time></trkpt><trkpt lat="31.2541474309" lon="35.5864354223"><ele>70.79</ele><time>2015-11-21T09:28:56Z</time></trkpt><trkpt lat="31.2540889252" lon="35.5862196721"><ele>73.20</ele><time>2015-11-21T09:29:09Z</time></trkpt><trkpt lat="31.2539619394" lon="35.5860433169"><ele>75.60</ele><time>2015-11-21T09:29:22Z</time></trkpt><trkpt lat="31.2538617756" lon="35.5859924387"><ele>77.52</ele><time>2015-11-21T09:29:30Z</time></trkpt><trkpt lat="31.2537333649" lon="35.5860003177"><ele>79.45</ele><time>2015-11-21T09:29:39Z</time></trkpt><trkpt lat="31.2537068781" lon="35.5860133097"><ele>79.93</ele><time>2015-11-21T09:29:41Z</time></trkpt><trkpt lat="31.2536640465" lon="35.5860560574"><ele>80.41</ele><time>2015-11-21T09:29:45Z</time></trkpt><trkpt lat="31.2536414992" lon="35.5860763416"><ele>80.41</ele><time>2015-11-21T09:29:47Z</time></trkpt><trkpt lat="31.2535621226" lon="35.5862125475"><ele>81.85</ele><time>2015-11-21T09:29:58Z</time></trkpt><trkpt lat="31.2535275053" lon="35.5862767529"><ele>82.81</ele><time>2015-11-21T09:30:04Z</time></trkpt><trkpt lat="31.2534427643" lon="35.5864258669"><ele>84.73</ele><time>2015-11-21T09:30:16Z</time></trkpt><trkpt lat="31.2534200493" lon="35.5864417925"><ele>84.73</ele><time>2015-11-21T09:30:18Z</time></trkpt><trkpt lat="31.2533690874" lon="35.5864933413"><ele>85.69</ele><time>2015-11-21T09:30:23Z</time></trkpt><trkpt lat="31.2532665767" lon="35.5865939241"><ele>87.62</ele><time>2015-11-21T09:30:33Z</time></trkpt><trkpt lat="31.2531970069" lon="35.5866392702"><ele>88.10</ele><time>2015-11-21T09:30:39Z</time></trkpt><trkpt lat="31.2529963441" lon="35.5867511686"><ele>90.02</ele><time>2015-11-21T09:30:54Z</time></trkpt><trkpt lat="31.2528477330" lon="35.5868116859"><ele>91.46</ele><time>2015-11-21T09:31:04Z</time></trkpt><trkpt lat="31.2526230142" lon="35.5868515838"><ele>93.39</ele><time>2015-11-21T09:31:20Z</time></trkpt><trkpt lat="31.2523630913" lon="35.5869145319"><ele>95.79</ele><time>2015-11-21T09:31:36Z</time></trkpt><trkpt lat="31.2522605807" lon="35.5869570281"><ele>96.75</ele><time>2015-11-21T09:31:42Z</time></trkpt><trkpt lat="31.2522513606" lon="35.5869690143"><ele>97.23</ele><time>2015-11-21T09:31:43Z</time></trkpt><trkpt lat="31.2522351835" lon="35.5869793240"><ele>97.23</ele><time>2015-11-21T09:31:44Z</time></trkpt><trkpt lat="31.2522187550" lon="35.5869914778"><ele>97.71</ele><time>2015-11-21T09:31:45Z</time></trkpt><trkpt lat="31.2522055954" lon="35.5870063975"><ele>97.71</ele><time>2015-11-21T09:31:46Z</time></trkpt><trkpt lat="31.2521938607" lon="35.5870191380"><ele>98.19</ele><time>2015-11-21T09:31:47Z</time></trkpt><trkpt lat="31.2521806173" lon="35.5870427750"><ele>98.19</ele><time>2015-11-21T09:31:49Z</time></trkpt><trkpt lat="31.2521783542" lon="35.5870565213"><ele>98.67</ele><time>2015-11-21T09:31:50Z</time></trkpt><trkpt lat="31.2521737441" lon="35.5870745424"><ele>98.67</ele><time>2015-11-21T09:31:51Z</time></trkpt><trkpt lat="31.2521707267" lon="35.5870929826"><ele>98.67</ele><time>2015-11-21T09:31:52Z</time></trkpt><trkpt lat="31.2521688826" lon="35.5871106684"><ele>99.15</ele><time>2015-11-21T09:31:53Z</time></trkpt><trkpt lat="31.2521693017" lon="35.5871286895"><ele>99.15</ele><time>2015-11-21T09:31:54Z</time></trkpt><trkpt lat="31.2521701399" lon="35.5871465430"><ele>99.63</ele><time>2015-11-21T09:31:55Z</time></trkpt><trkpt lat="31.2521755043" lon="35.5871791486"><ele>99.63</ele><time>2015-11-21T09:31:57Z</time></trkpt><trkpt lat="31.2521805335" lon="35.5871936493"><ele>100.11</ele><time>2015-11-21T09:31:58Z</time></trkpt><trkpt lat="31.2521919329" lon="35.5872167833"><ele>100.11</ele><time>2015-11-21T09:32:10Z</time></trkpt><trkpt lat="31.2521745823" lon="35.5871991813"><ele>100.60</ele><time>2015-11-21T09:32:32Z</time></trkpt><trkpt lat="31.2521760073" lon="35.5872012768"><ele>100.60</ele><time>2015-11-21T09:32:55Z</time></trkpt><trkpt lat="31.2521843892" lon="35.5872531608"><ele>100.60</ele><time>2015-11-21T09:33:08Z</time></trkpt><trkpt lat="31.2521656975" lon="35.5872669909"><ele>100.11</ele><time>2015-11-21T09:33:34Z</time></trkpt><trkpt lat="31.2521477602" lon="35.5872653984"><ele>100.11</ele><time>2015-11-21T09:34:14Z</time></trkpt><trkpt lat="31.2521527894" lon="35.5872778036"><ele>100.11</ele><time>2015-11-21T09:34:46Z</time></trkpt><trkpt lat="31.2521962915" lon="35.5872555077"><ele>101.08</ele><time>2015-11-21T09:35:01Z</time></trkpt><trkpt lat="31.2522205152" lon="35.5872508138"><ele>101.08</ele><time>2015-11-21T09:35:20Z</time></trkpt><trkpt lat="31.2522091996" lon="35.5872712657"><ele>101.08</ele><time>2015-11-21T09:35:42Z</time></trkpt><trkpt lat="31.2522211019" lon="35.5872799829"><ele>100.60</ele><time>2015-11-21T09:35:58Z</time></trkpt><trkpt lat="31.2522318307" lon="35.5872832518"><ele>100.60</ele><time>2015-11-21T09:35:59Z</time></trkpt><trkpt lat="31.2522606645" lon="35.5872970819"><ele>100.60</ele><time>2015-11-21T09:36:02Z</time></trkpt><trkpt lat="31.2522702198" lon="35.5873059668"><ele>101.08</ele><time>2015-11-21T09:36:03Z</time></trkpt><trkpt lat="31.2522809487" lon="35.5873142648"><ele>101.08</ele><time>2015-11-21T09:36:04Z</time></trkpt><trkpt lat="31.2522926833" lon="35.5873208027"><ele>101.08</ele><time>2015-11-21T09:36:05Z</time></trkpt><trkpt lat="31.2523061782" lon="35.5873252451"><ele>101.08</ele><time>2015-11-21T09:36:06Z</time></trkpt><trkpt lat="31.2523213495" lon="35.5873279274"><ele>101.08</ele><time>2015-11-21T09:36:07Z</time></trkpt><trkpt lat="31.2523381133" lon="35.5873290170"><ele>101.56</ele><time>2015-11-21T09:36:08Z</time></trkpt><trkpt lat="31.2523615826" lon="35.5873290170"><ele>101.08</ele><time>2015-11-21T09:36:10Z</time></trkpt><trkpt lat="31.2523756642" lon="35.5873270892"><ele>101.56</ele><time>2015-11-21T09:36:11Z</time></trkpt><trkpt lat="31.2523917574" lon="35.5873257481"><ele>101.56</ele><time>2015-11-21T09:36:12Z</time></trkpt><trkpt lat="31.2526598107" lon="35.5872757919"><ele>102.52</ele><time>2015-11-21T09:36:26Z</time></trkpt><trkpt lat="31.2527142931" lon="35.5872715171"><ele>103.00</ele><time>2015-11-21T09:36:29Z</time></trkpt><trkpt lat="31.2527318951" lon="35.5872735288"><ele>103.48</ele><time>2015-11-21T09:36:30Z</time></trkpt><trkpt lat="31.2527487427" lon="35.5872743670"><ele>103.48</ele><time>2015-11-21T09:36:31Z</time></trkpt><trkpt lat="31.2528164685" lon="35.5872845091"><ele>103.96</ele><time>2015-11-21T09:36:35Z</time></trkpt><trkpt lat="31.2528324779" lon="35.5872964114"><ele>103.96</ele><time>2015-11-21T09:36:36Z</time></trkpt><trkpt lat="31.2528630719" lon="35.5873202998"><ele>104.44</ele><time>2015-11-21T09:36:38Z</time></trkpt><trkpt lat="31.2528765667" lon="35.5873336270"><ele>104.92</ele><time>2015-11-21T09:36:39Z</time></trkpt><trkpt lat="31.2528898939" lon="35.5873477086"><ele>105.40</ele><time>2015-11-21T09:36:40Z</time></trkpt><trkpt lat="31.2528968509" lon="35.5873627122"><ele>105.40</ele><time>2015-11-21T09:36:41Z</time></trkpt><trkpt lat="31.2529002037" lon="35.5873793922"><ele>105.88</ele><time>2015-11-21T09:36:42Z</time></trkpt><trkpt lat="31.2529045623" lon="35.5873959884"><ele>106.36</ele><time>2015-11-21T09:36:43Z</time></trkpt><trkpt lat="31.2529093400" lon="35.5874215532"><ele>106.84</ele><time>2015-11-21T09:36:45Z</time></trkpt><trkpt lat="31.2529072445" lon="35.5874361377"><ele>107.32</ele><time>2015-11-21T09:36:46Z</time></trkpt><trkpt lat="31.2529061548" lon="35.5874504708"><ele>107.81</ele><time>2015-11-21T09:36:47Z</time></trkpt><trkpt lat="31.2529025506" lon="35.5874669831"><ele>107.81</ele><time>2015-11-21T09:36:48Z</time></trkpt><trkpt lat="31.2528991979" lon="35.5874851719"><ele>108.29</ele><time>2015-11-21T09:36:49Z</time></trkpt><trkpt lat="31.2528987788" lon="35.5875029415"><ele>108.77</ele><time>2015-11-21T09:36:50Z</time></trkpt><trkpt lat="31.2528994493" lon="35.5875189509"><ele>108.77</ele><time>2015-11-21T09:36:51Z</time></trkpt><trkpt lat="31.2528564502" lon="35.5876326934"><ele>111.17</ele><time>2015-11-21T09:37:00Z</time></trkpt><trkpt lat="31.2528506666" lon="35.5876476131"><ele>111.17</ele><time>2015-11-21T09:37:01Z</time></trkpt><trkpt lat="31.2528389320" lon="35.5876601022"><ele>111.65</ele><time>2015-11-21T09:37:02Z</time></trkpt><trkpt lat="31.2528266106" lon="35.5876727588"><ele>111.65</ele><time>2015-11-21T09:37:03Z</time></trkpt><trkpt lat="31.2528163008" lon="35.5876854993"><ele>111.65</ele><time>2015-11-21T09:37:04Z</time></trkpt><trkpt lat="31.2528083380" lon="35.5876968987"><ele>112.13</ele><time>2015-11-21T09:37:05Z</time></trkpt><trkpt lat="31.2528028060" lon="35.5877093878"><ele>112.13</ele><time>2015-11-21T09:37:06Z</time></trkpt><trkpt lat="31.2527282909" lon="35.5878742598"><ele>114.05</ele><time>2015-11-21T09:37:18Z</time></trkpt><trkpt lat="31.2527021393" lon="35.5879526306"><ele>115.01</ele><time>2015-11-21T09:37:24Z</time></trkpt><trkpt lat="31.2527004629" lon="35.5879656225"><ele>115.01</ele><time>2015-11-21T09:37:25Z</time></trkpt><trkpt lat="31.2526972778" lon="35.5879784469"><ele>115.50</ele><time>2015-11-21T09:37:26Z</time></trkpt><trkpt lat="31.2526913267" lon="35.5879930314"><ele>115.50</ele><time>2015-11-21T09:37:27Z</time></trkpt><trkpt lat="31.2526852079" lon="35.5880076997"><ele>115.98</ele><time>2015-11-21T09:37:28Z</time></trkpt><trkpt lat="31.2526790053" lon="35.5880240444"><ele>115.98</ele><time>2015-11-21T09:37:29Z</time></trkpt><trkpt lat="31.2526753172" lon="35.5880383775"><ele>115.98</ele><time>2015-11-21T09:37:30Z</time></trkpt><trkpt lat="31.2526709586" lon="35.5880529620"><ele>115.98</ele><time>2015-11-21T09:37:31Z</time></trkpt><trkpt lat="31.2526638340" lon="35.5880677979"><ele>115.98</ele><time>2015-11-21T09:37:32Z</time></trkpt><trkpt lat="31.2526571285" lon="35.5880801193"><ele>116.46</ele><time>2015-11-21T09:37:33Z</time></trkpt><trkpt lat="31.2526513450" lon="35.5880942009"><ele>116.46</ele><time>2015-11-21T09:37:34Z</time></trkpt><trkpt lat="31.2526446395" lon="35.5881070253"><ele>116.46</ele><time>2015-11-21T09:37:35Z</time></trkpt><trkpt lat="31.2525737286" lon="35.5882637668"><ele>118.38</ele><time>2015-11-21T09:37:46Z</time></trkpt><trkpt lat="31.2525743991" lon="35.5882751662"><ele>118.38</ele><time>2015-11-21T09:37:47Z</time></trkpt><trkpt lat="31.2525754888" lon="35.5882853922"><ele>118.38</ele><time>2015-11-21T09:37:48Z</time></trkpt><trkpt lat="31.2525712140" lon="35.5882986356"><ele>118.38</ele><time>2015-11-21T09:37:49Z</time></trkpt><trkpt lat="31.2525650114" lon="35.5883110408"><ele>118.86</ele><time>2015-11-21T09:37:50Z</time></trkpt><trkpt lat="31.2525600661" lon="35.5883239489"><ele>118.86</ele><time>2015-11-21T09:37:51Z</time></trkpt><trkpt lat="31.2525498401" lon="35.5883910041"><ele>119.82</ele><time>2015-11-21T09:37:56Z</time></trkpt><trkpt lat="31.2525386922" lon="35.5884288065"><ele>120.30</ele><time>2015-11-21T09:37:59Z</time></trkpt><trkpt lat="31.2525390275" lon="35.5884436425"><ele>120.30</ele><time>2015-11-21T09:38:00Z</time></trkpt><trkpt lat="31.2525341660" lon="35.5884557962"><ele>120.30</ele><time>2015-11-21T09:38:01Z</time></trkpt><trkpt lat="31.2525292207" lon="35.5884721410"><ele>120.78</ele><time>2015-11-21T09:38:02Z</time></trkpt><trkpt lat="31.2525237724" lon="35.5884891562"><ele>120.78</ele><time>2015-11-21T09:38:03Z</time></trkpt><trkpt lat="31.2525210902" lon="35.5885039084"><ele>120.78</ele><time>2015-11-21T09:38:04Z</time></trkpt><trkpt lat="31.2525232695" lon="35.5885184091"><ele>121.26</ele><time>2015-11-21T09:38:05Z</time></trkpt><trkpt lat="31.2525234371" lon="35.5885324068"><ele>121.26</ele><time>2015-11-21T09:38:06Z</time></trkpt><trkpt lat="31.2525200006" lon="35.5885469075"><ele>121.26</ele><time>2015-11-21T09:38:07Z</time></trkpt><trkpt lat="31.2525158096" lon="35.5885605700"><ele>121.26</ele><time>2015-11-21T09:38:08Z</time></trkpt><trkpt lat="31.2525106128" lon="35.5885749869"><ele>121.74</ele><time>2015-11-21T09:38:09Z</time></trkpt><trkpt lat="31.2525094394" lon="35.5885890685"><ele>121.74</ele><time>2015-11-21T09:38:10Z</time></trkpt><trkpt lat="31.2525068410" lon="35.5886049103"><ele>121.74</ele><time>2015-11-21T09:38:11Z</time></trkpt><trkpt lat="31.2525049970" lon="35.5886193272"><ele>122.22</ele><time>2015-11-21T09:38:12Z</time></trkpt><trkpt lat="31.2525054161" lon="35.5886346661"><ele>122.22</ele><time>2015-11-21T09:38:13Z</time></trkpt><trkpt lat="31.2525069248" lon="35.5886507593"><ele>122.22</ele><time>2015-11-21T09:38:14Z</time></trkpt><trkpt lat="31.2525071763" lon="35.5886636674"><ele>122.71</ele><time>2015-11-21T09:38:15Z</time></trkpt><trkpt lat="31.2525097746" lon="35.5886792578"><ele>122.71</ele><time>2015-11-21T09:38:16Z</time></trkpt><trkpt lat="31.2525121216" lon="35.5886964407"><ele>122.71</ele><time>2015-11-21T09:38:17Z</time></trkpt><trkpt lat="31.2525149714" lon="35.5887129530"><ele>122.71</ele><time>2015-11-21T09:38:18Z</time></trkpt><trkpt lat="31.2525184918" lon="35.5887293816"><ele>123.19</ele><time>2015-11-21T09:38:19Z</time></trkpt><trkpt lat="31.2525225151" lon="35.5887457263"><ele>123.19</ele><time>2015-11-21T09:38:20Z</time></trkpt><trkpt lat="31.2525273766" lon="35.5887611490"><ele>123.19</ele><time>2015-11-21T09:38:21Z</time></trkpt><trkpt lat="31.2525333278" lon="35.5887778290"><ele>123.19</ele><time>2015-11-21T09:38:22Z</time></trkpt><trkpt lat="31.2525389437" lon="35.5887951795"><ele>123.19</ele><time>2015-11-21T09:38:23Z</time></trkpt><trkpt lat="31.2525427155" lon="35.5888131168"><ele>123.19</ele><time>2015-11-21T09:38:24Z</time></trkpt><trkpt lat="31.2525482476" lon="35.5888307188"><ele>123.67</ele><time>2015-11-21T09:38:25Z</time></trkpt><trkpt lat="31.2526337430" lon="35.5889960937"><ele>125.11</ele><time>2015-11-21T09:38:36Z</time></trkpt><trkpt lat="31.2526428793" lon="35.5890071578"><ele>125.59</ele><time>2015-11-21T09:38:37Z</time></trkpt><trkpt lat="31.2527029775" lon="35.5890656635"><ele>126.55</ele><time>2015-11-21T09:38:42Z</time></trkpt><trkpt lat="31.2527169753" lon="35.5890807509"><ele>127.03</ele><time>2015-11-21T09:38:43Z</time></trkpt><trkpt lat="31.2527331524" lon="35.5890898034"><ele>127.03</ele><time>2015-11-21T09:38:44Z</time></trkpt><trkpt lat="31.2527587172" lon="35.5891012028"><ele>127.03</ele><time>2015-11-21T09:38:46Z</time></trkpt><trkpt lat="31.2527710386" lon="35.5891110934"><ele>127.51</ele><time>2015-11-21T09:38:47Z</time></trkpt><trkpt lat="31.2527860422" lon="35.5891218223"><ele>127.51</ele><time>2015-11-21T09:38:48Z</time></trkpt><trkpt lat="31.2529531773" lon="35.5892525800"><ele>130.88</ele><time>2015-11-21T09:39:01Z</time></trkpt><trkpt lat="31.2530187238" lon="35.5893486366"><ele>132.32</ele><time>2015-11-21T09:39:08Z</time></trkpt><trkpt lat="31.2530282792" lon="35.5893633887"><ele>132.80</ele><time>2015-11-21T09:39:09Z</time></trkpt><trkpt lat="31.2530333083" lon="35.5893778894"><ele>133.28</ele><time>2015-11-21T09:39:10Z</time></trkpt><trkpt lat="31.2530369125" lon="35.5893926416"><ele>133.28</ele><time>2015-11-21T09:39:11Z</time></trkpt><trkpt lat="31.2530429475" lon="35.5894094054"><ele>133.76</ele><time>2015-11-21T09:39:12Z</time></trkpt><trkpt lat="31.2530464679" lon="35.5894243252"><ele>134.24</ele><time>2015-11-21T09:39:13Z</time></trkpt><trkpt lat="31.2530509103" lon="35.5894385744"><ele>134.24</ele><time>2015-11-21T09:39:14Z</time></trkpt><trkpt lat="31.2530528381" lon="35.5894529913"><ele>134.24</ele><time>2015-11-21T09:39:15Z</time></trkpt><trkpt lat="31.2530532572" lon="35.5894678272"><ele>134.72</ele><time>2015-11-21T09:39:16Z</time></trkpt><trkpt lat="31.2530571129" lon="35.5894821603"><ele>134.72</ele><time>2015-11-21T09:39:17Z</time></trkpt><trkpt lat="31.2530647404" lon="35.5894959904"><ele>135.20</ele><time>2015-11-21T09:39:18Z</time></trkpt><trkpt lat="31.2530717812" lon="35.5895090662"><ele>135.20</ele><time>2015-11-21T09:39:19Z</time></trkpt><trkpt lat="31.2530750502" lon="35.5895239022"><ele>135.20</ele><time>2015-11-21T09:39:20Z</time></trkpt><trkpt lat="31.2530775648" lon="35.5895402469"><ele>135.68</ele><time>2015-11-21T09:39:21Z</time></trkpt><trkpt lat="31.2530805822" lon="35.5895555858"><ele>135.68</ele><time>2015-11-21T09:39:22Z</time></trkpt><trkpt lat="31.2531027105" lon="35.5897706654"><ele>138.09</ele><time>2015-11-21T09:39:36Z</time></trkpt><trkpt lat="31.2531020399" lon="35.5897879321"><ele>138.09</ele><time>2015-11-21T09:39:37Z</time></trkpt><trkpt lat="31.2531046383" lon="35.5898055341"><ele>138.09</ele><time>2015-11-21T09:39:38Z</time></trkpt><trkpt lat="31.2531055603" lon="35.5898204539"><ele>138.09</ele><time>2015-11-21T09:39:39Z</time></trkpt><trkpt lat="31.2531083263" lon="35.5898362957"><ele>138.57</ele><time>2015-11-21T09:39:40Z</time></trkpt><trkpt lat="31.2531104218" lon="35.5898533948"><ele>138.57</ele><time>2015-11-21T09:39:41Z</time></trkpt><trkpt lat="31.2531137746" lon="35.5898701586"><ele>139.05</ele><time>2015-11-21T09:39:42Z</time></trkpt><trkpt lat="31.2531140260" lon="35.5898875091"><ele>139.05</ele><time>2015-11-21T09:39:43Z</time></trkpt><trkpt lat="31.2531150319" lon="35.5899063684"><ele>139.05</ele><time>2015-11-21T09:39:44Z</time></trkpt><trkpt lat="31.2531175464" lon="35.5899269041"><ele>139.05</ele><time>2015-11-21T09:39:45Z</time></trkpt><trkpt lat="31.2531173788" lon="35.5899466015"><ele>139.53</ele><time>2015-11-21T09:39:46Z</time></trkpt><trkpt lat="31.2531168759" lon="35.5899658799"><ele>139.53</ele><time>2015-11-21T09:39:47Z</time></trkpt><trkpt lat="31.2531048059" lon="35.5902714003"><ele>141.93</ele><time>2015-11-21T09:40:03Z</time></trkpt><trkpt lat="31.2531054765" lon="35.5903537106"><ele>142.89</ele><time>2015-11-21T09:40:07Z</time></trkpt><trkpt lat="31.2531043030" lon="35.5903734080"><ele>142.89</ele><time>2015-11-21T09:40:08Z</time></trkpt><trkpt lat="31.2530856114" lon="35.5905593187"><ele>144.82</ele><time>2015-11-21T09:40:17Z</time></trkpt><trkpt lat="31.2530597113" lon="35.5905963667"><ele>145.30</ele><time>2015-11-21T09:40:19Z</time></trkpt><trkpt lat="31.2530419417" lon="35.5906039104"><ele>145.30</ele><time>2015-11-21T09:40:20Z</time></trkpt><trkpt lat="31.2530236691" lon="35.5906086881"><ele>145.78</ele><time>2015-11-21T09:40:21Z</time></trkpt><trkpt lat="31.2530042231" lon="35.5906068441"><ele>146.26</ele><time>2015-11-21T09:40:22Z</time></trkpt><trkpt lat="31.2529569492" lon="35.5905696284"><ele>147.22</ele><time>2015-11-21T09:40:25Z</time></trkpt><trkpt lat="31.2528497446" lon="35.5902482662"><ele>149.62</ele><time>2015-11-21T09:40:42Z</time></trkpt><trkpt lat="31.2528133672" lon="35.5900294986"><ele>151.06</ele><time>2015-11-21T09:40:53Z</time></trkpt><trkpt lat="31.2527249381" lon="35.5897150096"><ele>152.99</ele><time>2015-11-21T09:41:09Z</time></trkpt><trkpt lat="31.2525692023" lon="35.5895991717"><ele>155.87</ele><time>2015-11-21T09:41:22Z</time></trkpt><trkpt lat="31.2524757441" lon="35.5896616168"><ele>156.83</ele><time>2015-11-21T09:41:29Z</time></trkpt><trkpt lat="31.2524219323" lon="35.5898903590"><ele>158.75</ele><time>2015-11-21T09:41:43Z</time></trkpt><trkpt lat="31.2524099462" lon="35.5902117211"><ele>161.64</ele><time>2015-11-21T09:42:01Z</time></trkpt><trkpt lat="31.2524154782" lon="35.5902988091"><ele>162.12</ele><time>2015-11-21T09:42:06Z</time></trkpt><trkpt lat="31.2524189986" lon="35.5904010683"><ele>163.08</ele><time>2015-11-21T09:42:12Z</time></trkpt><trkpt lat="31.2524444796" lon="35.5905741546"><ele>165.00</ele><time>2015-11-21T09:42:22Z</time></trkpt><trkpt lat="31.2524765823" lon="35.5907635018"><ele>166.93</ele><time>2015-11-21T09:42:34Z</time></trkpt><trkpt lat="31.2525282986" lon="35.5910133664"><ele>170.29</ele><time>2015-11-21T09:42:50Z</time></trkpt><trkpt lat="31.2525308132" lon="35.5910425354"><ele>170.77</ele><time>2015-11-21T09:42:52Z</time></trkpt><trkpt lat="31.2525759079" lon="35.5912677571"><ele>173.66</ele><time>2015-11-21T09:43:07Z</time></trkpt><trkpt lat="31.2525857985" lon="35.5912974291"><ele>173.66</ele><time>2015-11-21T09:43:09Z</time></trkpt><trkpt lat="31.2526173145" lon="35.5915231537"><ele>177.50</ele><time>2015-11-21T09:43:23Z</time></trkpt><trkpt lat="31.2526197452" lon="35.5915852636"><ele>177.98</ele><time>2015-11-21T09:43:27Z</time></trkpt><trkpt lat="31.2526210025" lon="35.5916169472"><ele>178.46</ele><time>2015-11-21T09:43:29Z</time></trkpt><trkpt lat="31.2525595631" lon="35.5917003471"><ele>179.90</ele><time>2015-11-21T09:43:36Z</time></trkpt><trkpt lat="31.2525272928" lon="35.5917374790"><ele>180.87</ele><time>2015-11-21T09:43:48Z</time></trkpt><trkpt lat="31.2525011413" lon="35.5917415023"><ele>181.35</ele><time>2015-11-21T09:44:09Z</time></trkpt><trkpt lat="31.2524262071" lon="35.5917698331"><ele>182.79</ele><time>2015-11-21T09:44:22Z</time></trkpt><trkpt lat="31.2524231058" lon="35.5917700846"><ele>182.79</ele><time>2015-11-21T09:44:23Z</time></trkpt><trkpt lat="31.2523943558" lon="35.5917671509"><ele>182.79</ele><time>2015-11-21T09:44:26Z</time></trkpt><trkpt lat="31.2522284780" lon="35.5916612037"><ele>184.23</ele><time>2015-11-21T09:44:40Z</time></trkpt><trkpt lat="31.2521760911" lon="35.5915897060"><ele>184.71</ele><time>2015-11-21T09:44:45Z</time></trkpt><trkpt lat="31.2519611791" lon="35.5913610477"><ele>186.63</ele><time>2015-11-21T09:45:03Z</time></trkpt><trkpt lat="31.2518424913" lon="35.5913000274"><ele>188.08</ele><time>2015-11-21T09:45:12Z</time></trkpt><trkpt lat="31.2517973967" lon="35.5912692659"><ele>188.56</ele><time>2015-11-21T09:45:16Z</time></trkpt><trkpt lat="31.2517587561" lon="35.5912744626"><ele>188.56</ele><time>2015-11-21T09:45:19Z</time></trkpt><trkpt lat="31.2516891863" lon="35.5912722833"><ele>189.52</ele><time>2015-11-21T09:45:24Z</time></trkpt><trkpt lat="31.2514966540" lon="35.5913908873"><ele>192.40</ele><time>2015-11-21T09:45:40Z</time></trkpt><trkpt lat="31.2514591031" lon="35.5914369039"><ele>192.88</ele><time>2015-11-21T09:45:44Z</time></trkpt><trkpt lat="31.2513411697" lon="35.5916253291"><ele>195.77</ele><time>2015-11-21T09:46:00Z</time></trkpt><trkpt lat="31.2513189577" lon="35.5916632153"><ele>196.73</ele><time>2015-11-21T09:46:03Z</time></trkpt><trkpt lat="31.2512382399" lon="35.5918086413"><ele>199.13</ele><time>2015-11-21T09:46:15Z</time></trkpt><trkpt lat="31.2511565164" lon="35.5919721723"><ele>201.05</ele><time>2015-11-21T09:46:29Z</time></trkpt><trkpt lat="31.2511500623" lon="35.5920046940"><ele>202.01</ele><time>2015-11-21T09:46:34Z</time></trkpt><trkpt lat="31.2510882039" lon="35.5921367090"><ele>203.94</ele><time>2015-11-21T09:46:46Z</time></trkpt><trkpt lat="31.2510638125" lon="35.5921799596"><ele>204.42</ele><time>2015-11-21T09:46:50Z</time></trkpt><trkpt lat="31.2510052230" lon="35.5922497809"><ele>205.38</ele><time>2015-11-21T09:46:57Z</time></trkpt><trkpt lat="31.2509720307" lon="35.5923444964"><ele>206.82</ele><time>2015-11-21T09:47:04Z</time></trkpt><trkpt lat="31.2509367429" lon="35.5924278963"><ele>207.78</ele><time>2015-11-21T09:47:11Z</time></trkpt><trkpt lat="31.2508233357" lon="35.5926265474"><ele>210.19</ele><time>2015-11-21T09:47:26Z</time></trkpt><trkpt lat="31.2508135289" lon="35.5926370248"><ele>210.19</ele><time>2015-11-21T09:47:27Z</time></trkpt><trkpt lat="31.2507836055" lon="35.5926940218"><ele>211.15</ele><time>2015-11-21T09:47:32Z</time></trkpt><trkpt lat="31.2506671809" lon="35.5928862188"><ele>213.55</ele><time>2015-11-21T09:47:48Z</time></trkpt><trkpt lat="31.2506596372" lon="35.5929036532"><ele>213.55</ele><time>2015-11-21T09:48:01Z</time></trkpt><trkpt lat="31.2506588828" lon="35.5928977020"><ele>213.55</ele><time>2015-11-21T09:48:15Z</time></trkpt><trkpt lat="31.2506804243" lon="35.5928964447"><ele>212.59</ele><time>2015-11-21T09:48:30Z</time></trkpt><trkpt lat="31.2506802566" lon="35.5928993784"><ele>213.07</ele><time>2015-11-21T09:49:05Z</time></trkpt><trkpt lat="31.2506819330" lon="35.5929277930"><ele>213.07</ele><time>2015-11-21T09:49:46Z</time></trkpt><trkpt lat="31.2506712880" lon="35.5929369293"><ele>213.07</ele><time>2015-11-21T09:50:32Z</time></trkpt><trkpt lat="31.2506840285" lon="35.5929244403"><ele>213.55</ele><time>2015-11-21T09:51:18Z</time></trkpt><trkpt lat="31.2506792508" lon="35.5929354206"><ele>213.07</ele><time>2015-11-21T09:51:58Z</time></trkpt><trkpt lat="31.2506770715" lon="35.5929294694"><ele>213.55</ele><time>2015-11-21T09:52:39Z</time></trkpt><trkpt lat="31.2506771553" lon="35.5929286312"><ele>213.55</ele><time>2015-11-21T09:53:15Z</time></trkpt><trkpt lat="31.2506754790" lon="35.5929267034"><ele>213.07</ele><time>2015-11-21T09:53:59Z</time></trkpt><trkpt lat="31.2506846990" lon="35.5929142144"><ele>213.07</ele><time>2015-11-21T09:54:41Z</time></trkpt><trkpt lat="31.2506769039" lon="35.5929070897"><ele>213.07</ele><time>2015-11-21T09:55:15Z</time></trkpt><trkpt lat="31.2506839447" lon="35.5929270387"><ele>213.07</ele><time>2015-11-21T09:55:56Z</time></trkpt><trkpt lat="31.2506946735" lon="35.5929435510"><ele>214.51</ele><time>2015-11-21T09:56:17Z</time></trkpt><trkpt lat="31.2506762333" lon="35.5930227600"><ele>214.99</ele><time>2015-11-21T09:56:29Z</time></trkpt><trkpt lat="31.2506634928" lon="35.5930619035"><ele>215.47</ele><time>2015-11-21T09:56:33Z</time></trkpt><trkpt lat="31.2506482378" lon="35.5931216665"><ele>215.95</ele><time>2015-11-21T09:56:38Z</time></trkpt><trkpt lat="31.2506404426" lon="35.5932753906"><ele>217.40</ele><time>2015-11-21T09:56:49Z</time></trkpt><trkpt lat="31.2506422028" lon="35.5933652446"><ele>217.88</ele><time>2015-11-21T09:56:55Z</time></trkpt><trkpt lat="31.2507089227" lon="35.5936633050"><ele>219.32</ele><time>2015-11-21T09:57:11Z</time></trkpt><trkpt lat="31.2507842761" lon="35.5938300211"><ele>220.76</ele><time>2015-11-21T09:57:21Z</time></trkpt><trkpt lat="31.2508256827" lon="35.5938938912"><ele>221.24</ele><time>2015-11-21T09:57:25Z</time></trkpt><trkpt lat="31.2508670054" lon="35.5939642992"><ele>221.72</ele><time>2015-11-21T09:57:29Z</time></trkpt><trkpt lat="31.2509625591" lon="35.5940841604"><ele>222.68</ele><time>2015-11-21T09:57:37Z</time></trkpt><trkpt lat="31.2510117609" lon="35.5941363797"><ele>223.16</ele><time>2015-11-21T09:57:41Z</time></trkpt><trkpt lat="31.2511367351" lon="35.5942263175"><ele>224.12</ele><time>2015-11-21T09:57:49Z</time></trkpt><trkpt lat="31.2513814028" lon="35.5943626072"><ele>226.05</ele><time>2015-11-21T09:58:02Z</time></trkpt><trkpt lat="31.2517153379" lon="35.5944868270"><ele>227.97</ele><time>2015-11-21T09:58:19Z</time></trkpt><trkpt lat="31.2520304974" lon="35.5946382042"><ele>230.37</ele><time>2015-11-21T09:58:36Z</time></trkpt><trkpt lat="31.2523346767" lon="35.5948257074"><ele>232.78</ele><time>2015-11-21T09:58:53Z</time></trkpt><trkpt lat="31.2525754049" lon="35.5950378533"><ele>235.66</ele><time>2015-11-21T09:59:09Z</time></trkpt><trkpt lat="31.2526439689" lon="35.5951201636"><ele>236.62</ele><time>2015-11-21T09:59:15Z</time></trkpt><trkpt lat="31.2526587211" lon="35.5951333232"><ele>236.62</ele><time>2015-11-21T09:59:16Z</time></trkpt><trkpt lat="31.2526700366" lon="35.5951481592"><ele>237.10</ele><time>2015-11-21T09:59:17Z</time></trkpt><trkpt lat="31.2528349925" lon="35.5953692738"><ele>239.99</ele><time>2015-11-21T09:59:32Z</time></trkpt><trkpt lat="31.2529823463" lon="35.5955918971"><ele>242.39</ele><time>2015-11-21T09:59:47Z</time></trkpt><trkpt lat="31.2531057280" lon="35.5957920570"><ele>245.75</ele><time>2015-11-21T09:59:59Z</time></trkpt><trkpt lat="31.2532448675" lon="35.5960359704"><ele>248.16</ele><time>2015-11-21T10:00:14Z</time></trkpt><trkpt lat="31.2533622980" lon="35.5962933786"><ele>251.04</ele><time>2015-11-21T10:00:29Z</time></trkpt><trkpt lat="31.2534748670" lon="35.5965611804"><ele>253.93</ele><time>2015-11-21T10:00:45Z</time></trkpt><trkpt lat="31.2535397429" lon="35.5967372842"><ele>255.37</ele><time>2015-11-21T10:00:55Z</time></trkpt><trkpt lat="31.2535455264" lon="35.5967578199"><ele>255.85</ele><time>2015-11-21T10:00:56Z</time></trkpt><trkpt lat="31.2535538245" lon="35.5967766792"><ele>255.85</ele><time>2015-11-21T10:00:57Z</time></trkpt><trkpt lat="31.2536607776" lon="35.5970315728"><ele>259.21</ele><time>2015-11-21T10:01:11Z</time></trkpt><trkpt lat="31.2537627853" lon="35.5972540285"><ele>261.14</ele><time>2015-11-21T10:01:24Z</time></trkpt><trkpt lat="31.2538690679" lon="35.5974795856"><ele>263.54</ele><time>2015-11-21T10:01:38Z</time></trkpt><trkpt lat="31.2540304195" lon="35.5977491476"><ele>266.90</ele><time>2015-11-21T10:01:55Z</time></trkpt><trkpt lat="31.2542077806" lon="35.5980018619"><ele>269.79</ele><time>2015-11-21T10:02:13Z</time></trkpt><trkpt lat="31.2543455791" lon="35.5982145946"><ele>272.67</ele><time>2015-11-21T10:02:28Z</time></trkpt><trkpt lat="31.2545422185" lon="35.5984590948"><ele>275.07</ele><time>2015-11-21T10:02:47Z</time></trkpt><trkpt lat="31.2545507681" lon="35.5984740146"><ele>275.56</ele><time>2015-11-21T10:02:48Z</time></trkpt><trkpt lat="31.2545592338" lon="35.5984907784"><ele>275.56</ele><time>2015-11-21T10:02:49Z</time></trkpt><trkpt lat="31.2546997983" lon="35.5987221189"><ele>278.44</ele><time>2015-11-21T10:03:04Z</time></trkpt><trkpt lat="31.2548046559" lon="35.5989845563"><ele>280.36</ele><time>2015-11-21T10:03:20Z</time></trkpt><trkpt lat="31.2548665144" lon="35.5991525296"><ele>281.32</ele><time>2015-11-21T10:03:31Z</time></trkpt><trkpt lat="31.2548748124" lon="35.5991678685"><ele>281.32</ele><time>2015-11-21T10:03:32Z</time></trkpt><trkpt lat="31.2548825238" lon="35.5991824530"><ele>281.32</ele><time>2015-11-21T10:03:33Z</time></trkpt><trkpt lat="31.2549704500" lon="35.5994018074"><ele>284.69</ele><time>2015-11-21T10:03:47Z</time></trkpt><trkpt lat="31.2550882157" lon="35.5996347405"><ele>287.09</ele><time>2015-11-21T10:04:02Z</time></trkpt><trkpt lat="31.2551600486" lon="35.5997941643"><ele>289.01</ele><time>2015-11-21T10:04:12Z</time></trkpt><trkpt lat="31.2552342284" lon="35.5999395903"><ele>289.97</ele><time>2015-11-21T10:04:22Z</time></trkpt><trkpt lat="31.2552371621" lon="35.5999571085"><ele>289.97</ele><time>2015-11-21T10:04:23Z</time></trkpt><trkpt lat="31.2553498149" lon="35.6001887843"><ele>292.86</ele><time>2015-11-21T10:04:39Z</time></trkpt><trkpt lat="31.2554452009" lon="35.6004154310"><ele>295.26</ele><time>2015-11-21T10:04:55Z</time></trkpt><trkpt lat="31.2555470411" lon="35.6006355397"><ele>298.15</ele><time>2015-11-21T10:05:11Z</time></trkpt><trkpt lat="31.2556058820" lon="35.6007732544"><ele>300.07</ele><time>2015-11-21T10:05:21Z</time></trkpt><trkpt lat="31.2556092348" lon="35.6007891800"><ele>300.55</ele><time>2015-11-21T10:05:22Z</time></trkpt><trkpt lat="31.2557150144" lon="35.6010125577"><ele>303.43</ele><time>2015-11-21T10:05:38Z</time></trkpt><trkpt lat="31.2558037788" lon="35.6012307387"><ele>306.80</ele><time>2015-11-21T10:05:54Z</time></trkpt><trkpt lat="31.2558414135" lon="35.6013421342"><ele>307.76</ele><time>2015-11-21T10:06:02Z</time></trkpt><trkpt lat="31.2558482029" lon="35.6013550423"><ele>308.24</ele><time>2015-11-21T10:06:03Z</time></trkpt><trkpt lat="31.2558510527" lon="35.6013692077"><ele>307.76</ele><time>2015-11-21T10:06:04Z</time></trkpt><trkpt lat="31.2558521423" lon="35.6013814453"><ele>308.24</ele><time>2015-11-21T10:06:05Z</time></trkpt><trkpt lat="31.2558555789" lon="35.6013948563"><ele>308.24</ele><time>2015-11-21T10:06:06Z</time></trkpt><trkpt lat="31.2558596861" lon="35.6014082674"><ele>308.72</ele><time>2015-11-21T10:06:07Z</time></trkpt><trkpt lat="31.2558627874" lon="35.6014222652"><ele>308.72</ele><time>2015-11-21T10:06:08Z</time></trkpt><trkpt lat="31.2558673974" lon="35.6014368497"><ele>309.20</ele><time>2015-11-21T10:06:09Z</time></trkpt><trkpt lat="31.2558901124" lon="35.6015118677"><ele>310.64</ele><time>2015-11-21T10:06:15Z</time></trkpt><trkpt lat="31.2558961473" lon="35.6015230995"><ele>310.16</ele><time>2015-11-21T10:06:16Z</time></trkpt><trkpt lat="31.2558977399" lon="35.6015352532"><ele>310.64</ele><time>2015-11-21T10:06:17Z</time></trkpt><trkpt lat="31.2558993325" lon="35.6015540287"><ele>310.64</ele><time>2015-11-21T10:06:19Z</time></trkpt><trkpt lat="31.2559131626" lon="35.6016000453"><ele>311.12</ele><time>2015-11-21T10:06:23Z</time></trkpt><trkpt lat="31.2559160125" lon="35.6016514264"><ele>311.60</ele><time>2015-11-21T10:06:27Z</time></trkpt><trkpt lat="31.2559153419" lon="35.6016650051"><ele>311.60</ele><time>2015-11-21T10:06:28Z</time></trkpt><trkpt lat="31.2559170183" lon="35.6016774103"><ele>312.09</ele><time>2015-11-21T10:06:29Z</time></trkpt><trkpt lat="31.2559207063" lon="35.6017298810"><ele>312.57</ele><time>2015-11-21T10:06:33Z</time></trkpt><trkpt lat="31.2559191976" lon="35.6017458905"><ele>313.05</ele><time>2015-11-21T10:06:34Z</time></trkpt><trkpt lat="31.2559200358" lon="35.6017599721"><ele>313.05</ele><time>2015-11-21T10:06:35Z</time></trkpt><trkpt lat="31.2559201196" lon="35.6017727125"><ele>313.53</ele><time>2015-11-21T10:06:36Z</time></trkpt><trkpt lat="31.2559190299" lon="35.6017868780"><ele>314.01</ele><time>2015-11-21T10:06:37Z</time></trkpt><trkpt lat="31.2559186947" lon="35.6017997023"><ele>314.01</ele><time>2015-11-21T10:06:38Z</time></trkpt><trkpt lat="31.2559171859" lon="35.6018129457"><ele>314.01</ele><time>2015-11-21T10:06:39Z</time></trkpt><trkpt lat="31.2559156772" lon="35.6018281169"><ele>314.01</ele><time>2015-11-21T10:06:40Z</time></trkpt><trkpt lat="31.2559155934" lon="35.6018427853"><ele>314.49</ele><time>2015-11-21T10:06:41Z</time></trkpt><trkpt lat="31.2559131626" lon="35.6018559448"><ele>314.49</ele><time>2015-11-21T10:06:42Z</time></trkpt><trkpt lat="31.2559063733" lon="35.6018713675"><ele>314.97</ele><time>2015-11-21T10:06:44Z</time></trkpt><trkpt lat="31.2559053674" lon="35.6018846110"><ele>314.97</ele><time>2015-11-21T10:06:45Z</time></trkpt><trkpt lat="31.2559013441" lon="35.6018965971"><ele>314.97</ele><time>2015-11-21T10:06:46Z</time></trkpt><trkpt lat="31.2558916211" lon="35.6019073259"><ele>315.45</ele><time>2015-11-21T10:06:47Z</time></trkpt><trkpt lat="31.2558802217" lon="35.6019390933"><ele>315.45</ele><time>2015-11-21T10:06:57Z</time></trkpt><trkpt lat="31.2558656372" lon="35.6019934919"><ele>315.93</ele><time>2015-11-21T10:07:11Z</time></trkpt><trkpt lat="31.2558493763" lon="35.6020411011"><ele>316.41</ele><time>2015-11-21T10:07:25Z</time></trkpt><trkpt lat="31.2559036911" lon="35.6020761374"><ele>316.89</ele><time>2015-11-21T10:07:29Z</time></trkpt><trkpt lat="31.2559114024" lon="35.6021918915"><ele>318.81</ele><time>2015-11-21T10:07:44Z</time></trkpt><trkpt lat="31.2559632026" lon="35.6022598688"><ele>317.37</ele><time>2015-11-21T10:07:58Z</time></trkpt><trkpt lat="31.2560461834" lon="35.6022656523"><ele>316.89</ele><time>2015-11-21T10:08:13Z</time></trkpt><trkpt lat="31.2560243066" lon="35.6022647303"><ele>316.41</ele><time>2015-11-21T10:08:48Z</time></trkpt><trkpt lat="31.2560357898" lon="35.6022602879"><ele>316.89</ele><time>2015-11-21T10:09:31Z</time></trkpt><trkpt lat="31.2560309283" lon="35.6022601202"><ele>318.33</ele><time>2015-11-21T10:10:12Z</time></trkpt><trkpt lat="31.2560505420" lon="35.6022636406"><ele>317.37</ele><time>2015-11-21T10:10:52Z</time></trkpt><trkpt lat="31.2560457643" lon="35.6022647303"><ele>318.33</ele><time>2015-11-21T10:11:27Z</time></trkpt><trkpt lat="31.2560438365" lon="35.6022627186"><ele>317.85</ele><time>2015-11-21T10:12:05Z</time></trkpt><trkpt lat="31.2560414895" lon="35.6022529956"><ele>317.37</ele><time>2015-11-21T10:12:32Z</time></trkpt><trkpt lat="31.2560244743" lon="35.6022742856"><ele>316.89</ele><time>2015-11-21T10:13:02Z</time></trkpt><trkpt lat="31.2560288329" lon="35.6022653170"><ele>317.37</ele><time>2015-11-21T10:13:27Z</time></trkpt><trkpt lat="31.2560531404" lon="35.6022604555"><ele>317.37</ele><time>2015-11-21T10:13:56Z</time></trkpt><trkpt lat="31.2560309283" lon="35.6022344716"><ele>317.85</ele><time>2015-11-21T10:14:21Z</time></trkpt><trkpt lat="31.2560203671" lon="35.6022485532"><ele>317.85</ele><time>2015-11-21T10:14:43Z</time></trkpt><trkpt lat="31.2559829839" lon="35.6022692565"><ele>318.33</ele><time>2015-11-21T10:15:05Z</time></trkpt><trkpt lat="31.2559297588" lon="35.6022482179"><ele>318.81</ele><time>2015-11-21T10:15:12Z</time></trkpt><trkpt lat="31.2558960635" lon="35.6021770556"><ele>319.30</ele><time>2015-11-21T10:15:25Z</time></trkpt><trkpt lat="31.2558944710" lon="35.6021843478"><ele>319.78</ele><time>2015-11-21T10:15:43Z</time></trkpt><trkpt lat="31.2558986619" lon="35.6021861080"><ele>319.30</ele><time>2015-11-21T10:15:52Z</time></trkpt><trkpt lat="31.2558380608" lon="35.6021369901"><ele>319.30</ele><time>2015-11-21T10:15:57Z</time></trkpt><trkpt lat="31.2558174413" lon="35.6021366548"><ele>319.30</ele><time>2015-11-21T10:15:58Z</time></trkpt><trkpt lat="31.2558015995" lon="35.6021364033"><ele>319.30</ele><time>2015-11-21T10:15:59Z</time></trkpt><trkpt lat="31.2557912059" lon="35.6021394208"><ele>319.30</ele><time>2015-11-21T10:16:00Z</time></trkpt><trkpt lat="31.2557814829" lon="35.6021444499"><ele>319.30</ele><time>2015-11-21T10:16:01Z</time></trkpt><trkpt lat="31.2557728495" lon="35.6021507364"><ele>319.30</ele><time>2015-11-21T10:16:02Z</time></trkpt><trkpt lat="31.2557613663" lon="35.6021568552"><ele>319.78</ele><time>2015-11-21T10:16:03Z</time></trkpt><trkpt lat="31.2556113303" lon="35.6022640597"><ele>320.74</ele><time>2015-11-21T10:16:15Z</time></trkpt><trkpt lat="31.2555974163" lon="35.6022694241"><ele>320.74</ele><time>2015-11-21T10:16:16Z</time></trkpt><trkpt lat="31.2555857655" lon="35.6022804044"><ele>320.74</ele><time>2015-11-21T10:16:17Z</time></trkpt><trkpt lat="31.2555705104" lon="35.6022887863"><ele>321.22</ele><time>2015-11-21T10:16:18Z</time></trkpt><trkpt lat="31.2555573508" lon="35.6022981741"><ele>321.22</ele><time>2015-11-21T10:16:19Z</time></trkpt><trkpt lat="31.2555434369" lon="35.6023068074"><ele>321.70</ele><time>2015-11-21T10:16:20Z</time></trkpt><trkpt lat="31.2555295229" lon="35.6023147702"><ele>321.70</ele><time>2015-11-21T10:16:21Z</time></trkpt><trkpt lat="31.2555157766" lon="35.6023240741"><ele>322.18</ele><time>2015-11-21T10:16:22Z</time></trkpt><trkpt lat="31.2553989328" lon="35.6024000142"><ele>323.14</ele><time>2015-11-21T10:16:31Z</time></trkpt><trkpt lat="31.2553864438" lon="35.6024105754"><ele>323.14</ele><time>2015-11-21T10:16:32Z</time></trkpt><trkpt lat="31.2552327197" lon="35.6025089789"><ele>325.06</ele><time>2015-11-21T10:16:44Z</time></trkpt><trkpt lat="31.2552232482" lon="35.6025200430"><ele>325.06</ele><time>2015-11-21T10:16:45Z</time></trkpt><trkpt lat="31.2552110106" lon="35.6025277544"><ele>325.54</ele><time>2015-11-21T10:16:46Z</time></trkpt><trkpt lat="31.2551978510" lon="35.6025324482"><ele>325.54</ele><time>2015-11-21T10:16:47Z</time></trkpt><trkpt lat="31.2551846914" lon="35.6025404111"><ele>325.54</ele><time>2015-11-21T10:16:48Z</time></trkpt><trkpt lat="31.2551722024" lon="35.6025534030"><ele>326.02</ele><time>2015-11-21T10:16:49Z</time></trkpt><trkpt lat="31.2549830228" lon="35.6027280819"><ele>328.43</ele><time>2015-11-21T10:17:04Z</time></trkpt><trkpt lat="31.2548707053" lon="35.6029074546"><ele>329.87</ele><time>2015-11-21T10:17:17Z</time></trkpt><trkpt lat="31.2547913287" lon="35.6031074468"><ele>331.79</ele><time>2015-11-21T10:17:30Z</time></trkpt><trkpt lat="31.2546987087" lon="35.6034026574"><ele>334.20</ele><time>2015-11-21T10:17:46Z</time></trkpt><trkpt lat="31.2546184938" lon="35.6036448944"><ele>336.12</ele><time>2015-11-21T10:18:00Z</time></trkpt><trkpt lat="31.2544798572" lon="35.6039406918"><ele>338.04</ele><time>2015-11-21T10:18:15Z</time></trkpt><trkpt lat="31.2542852294" lon="35.6041985191"><ele>339.00</ele><time>2015-11-21T10:18:29Z</time></trkpt><trkpt lat="31.2540895119" lon="35.6044312846"><ele>339.96</ele><time>2015-11-21T10:18:42Z</time></trkpt><trkpt lat="31.2539041881" lon="35.6047805585"><ele>342.37</ele><time>2015-11-21T10:18:57Z</time></trkpt><trkpt lat="31.2537832372" lon="35.6051856559"><ele>343.81</ele><time>2015-11-21T10:19:11Z</time></trkpt><trkpt lat="31.2535647210" lon="35.6056975387"><ele>345.25</ele><time>2015-11-21T10:19:27Z</time></trkpt><trkpt lat="31.2533550896" lon="35.6062743813"><ele>346.21</ele><time>2015-11-21T10:19:45Z</time></trkpt><trkpt lat="31.2531633954" lon="35.6067820732"><ele>347.65</ele><time>2015-11-21T10:20:00Z</time></trkpt><trkpt lat="31.2530207355" lon="35.6073127314"><ele>349.10</ele><time>2015-11-21T10:20:18Z</time></trkpt><trkpt lat="31.2530383375" lon="35.6076699682"><ele>351.02</ele><time>2015-11-21T10:20:32Z</time></trkpt><trkpt lat="31.2530613039" lon="35.6078208424"><ele>352.46</ele><time>2015-11-21T10:20:41Z</time></trkpt><trkpt lat="31.2530619744" lon="35.6078356784"><ele>352.46</ele><time>2015-11-21T10:20:42Z</time></trkpt><trkpt lat="31.2530644890" lon="35.6078529451"><ele>352.46</ele><time>2015-11-21T10:20:43Z</time></trkpt><trkpt lat="31.2531144451" lon="35.6081237644"><ele>354.86</ele><time>2015-11-21T10:20:59Z</time></trkpt><trkpt lat="31.2531157862" lon="35.6081416178"><ele>354.86</ele><time>2015-11-21T10:21:00Z</time></trkpt><trkpt lat="31.2531186361" lon="35.6081566215"><ele>355.34</ele><time>2015-11-21T10:21:01Z</time></trkpt><trkpt lat="31.2531918101" lon="35.6084251776"><ele>357.27</ele><time>2015-11-21T10:21:18Z</time></trkpt><trkpt lat="31.2532029580" lon="35.6084874552"><ele>358.23</ele><time>2015-11-21T10:21:22Z</time></trkpt><trkpt lat="31.2532001920" lon="35.6085026264"><ele>358.71</ele><time>2015-11-21T10:21:23Z</time></trkpt><trkpt lat="31.2532001082" lon="35.6085202284"><ele>358.71</ele><time>2015-11-21T10:21:24Z</time></trkpt><trkpt lat="31.2532056402" lon="35.6085359864"><ele>358.71</ele><time>2015-11-21T10:21:25Z</time></trkpt><trkpt lat="31.2532126810" lon="35.6085524987"><ele>359.19</ele><time>2015-11-21T10:21:26Z</time></trkpt><trkpt lat="31.2532182131" lon="35.6085675023"><ele>359.19</ele><time>2015-11-21T10:21:27Z</time></trkpt><trkpt lat="31.2532178778" lon="35.6085825060"><ele>359.19</ele><time>2015-11-21T10:21:28Z</time></trkpt><trkpt lat="31.2532154471" lon="35.6085965876"><ele>359.67</ele><time>2015-11-21T10:21:29Z</time></trkpt><trkpt lat="31.2532167882" lon="35.6086129323"><ele>359.67</ele><time>2015-11-21T10:21:30Z</time></trkpt><trkpt lat="31.2532211468" lon="35.6086286902"><ele>359.67</ele><time>2015-11-21T10:21:31Z</time></trkpt><trkpt lat="31.2532266788" lon="35.6086437777"><ele>359.67</ele><time>2015-11-21T10:21:32Z</time></trkpt><trkpt lat="31.2532764673" lon="35.6089226436"><ele>362.07</ele><time>2015-11-21T10:21:49Z</time></trkpt><trkpt lat="31.2532734498" lon="35.6089418381"><ele>362.55</ele><time>2015-11-21T10:21:50Z</time></trkpt><trkpt lat="31.2532746233" lon="35.6089612842"><ele>362.55</ele><time>2015-11-21T10:21:51Z</time></trkpt><trkpt lat="31.2532809097" lon="35.6090194546"><ele>363.04</ele><time>2015-11-21T10:21:54Z</time></trkpt><trkpt lat="31.2532791495" lon="35.6090416666"><ele>363.04</ele><time>2015-11-21T10:21:55Z</time></trkpt><trkpt lat="31.2532808259" lon="35.6090642978"><ele>363.04</ele><time>2015-11-21T10:21:56Z</time></trkpt><trkpt lat="31.2532816641" lon="35.6090860069"><ele>363.04</ele><time>2015-11-21T10:21:57Z</time></trkpt><trkpt lat="31.2532820832" lon="35.6091080513"><ele>363.04</ele><time>2015-11-21T10:21:58Z</time></trkpt><trkpt lat="31.2532731146" lon="35.6093005836"><ele>364.00</ele><time>2015-11-21T10:22:08Z</time></trkpt><trkpt lat="31.2532283552" lon="35.6095927767"><ele>367.36</ele><time>2015-11-21T10:22:24Z</time></trkpt><trkpt lat="31.2531623058" lon="35.6098394562"><ele>368.80</ele><time>2015-11-21T10:22:38Z</time></trkpt><trkpt lat="31.2530386727" lon="35.6100893207"><ele>371.69</ele><time>2015-11-21T10:22:53Z</time></trkpt><trkpt lat="31.2528706994" lon="35.6103509199"><ele>372.65</ele><time>2015-11-21T10:23:06Z</time></trkpt><trkpt lat="31.2526751496" lon="35.6106758863"><ele>373.61</ele><time>2015-11-21T10:23:20Z</time></trkpt><trkpt lat="31.2525402848" lon="35.6111733522"><ele>374.57</ele><time>2015-11-21T10:23:36Z</time></trkpt><trkpt lat="31.2526227627" lon="35.6116332673"><ele>374.57</ele><time>2015-11-21T10:23:49Z</time></trkpt><trkpt lat="31.2528825179" lon="35.6120895781"><ele>374.09</ele><time>2015-11-21T10:24:01Z</time></trkpt><trkpt lat="31.2530823424" lon="35.6124833599"><ele>372.65</ele><time>2015-11-21T10:24:08Z</time></trkpt><trkpt lat="31.2532555964" lon="35.6130721048"><ele>371.69</ele><time>2015-11-21T10:24:18Z</time></trkpt><trkpt lat="31.2532647327" lon="35.6131227314"><ele>371.69</ele><time>2015-11-21T10:24:19Z</time></trkpt><trkpt lat="31.2532897107" lon="35.6136654597"><ele>372.65</ele><time>2015-11-21T10:24:32Z</time></trkpt><trkpt lat="31.2532647327" lon="35.6140477583"><ele>373.61</ele><time>2015-11-21T10:24:43Z</time></trkpt><trkpt lat="31.2532136030" lon="35.6143804360"><ele>375.53</ele><time>2015-11-21T10:24:57Z</time></trkpt><trkpt lat="31.2531467993" lon="35.6146643311"><ele>377.45</ele><time>2015-11-21T10:25:11Z</time></trkpt><trkpt lat="31.2531107571" lon="35.6147656683"><ele>378.42</ele><time>2015-11-21T10:25:16Z</time></trkpt><trkpt lat="31.2531057280" lon="35.6147884671"><ele>378.42</ele><time>2015-11-21T10:25:17Z</time></trkpt><trkpt lat="31.2530252617" lon="35.6150518265"><ele>381.30</ele><time>2015-11-21T10:25:31Z</time></trkpt><trkpt lat="31.2529361621" lon="35.6152877770"><ele>380.82</ele><time>2015-11-21T10:25:45Z</time></trkpt><trkpt lat="31.2528329808" lon="35.6156018469"><ele>382.74</ele><time>2015-11-21T10:26:03Z</time></trkpt><trkpt lat="31.2527817674" lon="35.6158747617"><ele>384.18</ele><time>2015-11-21T10:26:18Z</time></trkpt><trkpt lat="31.2527475692" lon="35.6162014045"><ele>387.07</ele><time>2015-11-21T10:26:35Z</time></trkpt><trkpt lat="31.2527101859" lon="35.6164675299"><ele>388.99</ele><time>2015-11-21T10:26:49Z</time></trkpt><trkpt lat="31.2526634149" lon="35.6167332362"><ele>390.91</ele><time>2015-11-21T10:27:05Z</time></trkpt><trkpt lat="31.2526319828" lon="35.6168561988"><ele>392.36</ele><time>2015-11-21T10:27:13Z</time></trkpt><trkpt lat="31.2526257802" lon="35.6168712862"><ele>392.84</ele><time>2015-11-21T10:27:14Z</time></trkpt><trkpt lat="31.2526205834" lon="35.6168857031"><ele>392.84</ele><time>2015-11-21T10:27:15Z</time></trkpt><trkpt lat="31.2526183203" lon="35.6168996170"><ele>392.84</ele><time>2015-11-21T10:27:16Z</time></trkpt><trkpt lat="31.2526148837" lon="35.6169165485"><ele>393.32</ele><time>2015-11-21T10:27:17Z</time></trkpt><trkpt lat="31.2526099384" lon="35.6169325579"><ele>393.32</ele><time>2015-11-21T10:27:18Z</time></trkpt><trkpt lat="31.2525396980" lon="35.6171555165"><ele>395.72</ele><time>2015-11-21T10:27:32Z</time></trkpt><trkpt lat="31.2524323259" lon="35.6174049620"><ele>398.60</ele><time>2015-11-21T10:27:49Z</time></trkpt><trkpt lat="31.2524100300" lon="35.6174481288"><ele>399.57</ele><time>2015-11-21T10:27:52Z</time></trkpt><trkpt lat="31.2524042465" lon="35.6174637191"><ele>399.57</ele><time>2015-11-21T10:27:53Z</time></trkpt><trkpt lat="31.2523074355" lon="35.6176687405"><ele>401.97</ele><time>2015-11-21T10:28:08Z</time></trkpt><trkpt lat="31.2522989698" lon="35.6176811457"><ele>401.97</ele><time>2015-11-21T10:28:09Z</time></trkpt><trkpt lat="31.2522017397" lon="35.6178854965"><ele>403.41</ele><time>2015-11-21T10:28:24Z</time></trkpt><trkpt lat="31.2520921044" lon="35.6180998217"><ele>406.29</ele><time>2015-11-21T10:28:40Z</time></trkpt><trkpt lat="31.2519821338" lon="35.6182877440"><ele>408.22</ele><time>2015-11-21T10:28:54Z</time></trkpt><trkpt lat="31.2519780267" lon="35.6183024123"><ele>408.22</ele><time>2015-11-21T10:28:55Z</time></trkpt><trkpt lat="31.2519703992" lon="35.6183135603"><ele>408.22</ele><time>2015-11-21T10:28:56Z</time></trkpt><trkpt lat="31.2519614305" lon="35.6183269713"><ele>408.70</ele><time>2015-11-21T10:28:57Z</time></trkpt><trkpt lat="31.2519534677" lon="35.6183397118"><ele>408.70</ele><time>2015-11-21T10:28:58Z</time></trkpt><trkpt lat="31.2518849876" lon="35.6184471678"><ele>411.10</ele><time>2015-11-21T10:29:06Z</time></trkpt><trkpt lat="31.2517820578" lon="35.6185922585"><ele>411.10</ele><time>2015-11-21T10:29:17Z</time></trkpt><trkpt lat="31.2517735921" lon="35.6186051667"><ele>411.58</ele><time>2015-11-21T10:29:18Z</time></trkpt><trkpt lat="31.2517635338" lon="35.6186193321"><ele>412.06</ele><time>2015-11-21T10:29:19Z</time></trkpt><trkpt lat="31.2516212091" lon="35.6188046560"><ele>413.02</ele><time>2015-11-21T10:29:34Z</time></trkpt><trkpt lat="31.2515622005" lon="35.6188806798"><ele>413.98</ele><time>2015-11-21T10:29:40Z</time></trkpt><trkpt lat="31.2515515555" lon="35.6188919954"><ele>413.98</ele><time>2015-11-21T10:29:41Z</time></trkpt><trkpt lat="31.2515410781" lon="35.6189049874"><ele>413.98</ele><time>2015-11-21T10:29:42Z</time></trkpt><trkpt lat="31.2515310198" lon="35.6189193204"><ele>413.98</ele><time>2015-11-21T10:29:43Z</time></trkpt><trkpt lat="31.2515206262" lon="35.6189328991"><ele>413.98</ele><time>2015-11-21T10:29:44Z</time></trkpt><trkpt lat="31.2515083048" lon="35.6189452205"><ele>413.50</ele><time>2015-11-21T10:29:45Z</time></trkpt><trkpt lat="31.2514979951" lon="35.6189590506"><ele>413.98</ele><time>2015-11-21T10:29:46Z</time></trkpt><trkpt lat="31.2514859252" lon="35.6189722940"><ele>413.98</ele><time>2015-11-21T10:29:47Z</time></trkpt><trkpt lat="31.2514725979" lon="35.6189867947"><ele>414.47</ele><time>2015-11-21T10:29:48Z</time></trkpt><trkpt lat="31.2514617015" lon="35.6190023012"><ele>414.47</ele><time>2015-11-21T10:29:49Z</time></trkpt><trkpt lat="31.2512584403" lon="35.6192076579"><ele>415.91</ele><time>2015-11-21T10:30:05Z</time></trkpt><trkpt lat="31.2510546762" lon="35.6193962507"><ele>417.35</ele><time>2015-11-21T10:30:21Z</time></trkpt><trkpt lat="31.2510277703" lon="35.6194044650"><ele>417.35</ele><time>2015-11-21T10:30:32Z</time></trkpt><trkpt lat="31.2510374095" lon="35.6194016989"><ele>416.87</ele><time>2015-11-21T10:30:47Z</time></trkpt><trkpt lat="31.2510573585" lon="35.6193959154"><ele>416.39</ele><time>2015-11-21T10:31:20Z</time></trkpt><trkpt lat="31.2510592025" lon="35.6193894614"><ele>416.87</ele><time>2015-11-21T10:31:56Z</time></trkpt><trkpt lat="31.2510662433" lon="35.6193932332"><ele>416.87</ele><time>2015-11-21T10:32:30Z</time></trkpt><trkpt lat="31.2510548439" lon="35.6193821691"><ele>416.87</ele><time>2015-11-21T10:33:02Z</time></trkpt><trkpt lat="31.2510516588" lon="35.6194031239"><ele>417.35</ele><time>2015-11-21T10:33:29Z</time></trkpt><trkpt lat="31.2510488089" lon="35.6193962507"><ele>416.87</ele><time>2015-11-21T10:34:03Z</time></trkpt><trkpt lat="31.2510432769" lon="35.6194022018"><ele>417.83</ele><time>2015-11-21T10:34:30Z</time></trkpt><trkpt lat="31.2510358170" lon="35.6194063928"><ele>417.35</ele><time>2015-11-21T10:35:05Z</time></trkpt><trkpt lat="31.2510247529" lon="35.6194103323"><ele>417.35</ele><time>2015-11-21T10:35:41Z</time></trkpt><trkpt lat="31.2510450371" lon="35.6193934847"><ele>417.35</ele><time>2015-11-21T10:36:25Z</time></trkpt><trkpt lat="31.2510408461" lon="35.6194133498"><ele>417.83</ele><time>2015-11-21T10:37:06Z</time></trkpt><trkpt lat="31.2510331348" lon="35.6193979271"><ele>418.31</ele><time>2015-11-21T10:37:27Z</time></trkpt><trkpt lat="31.2510489766" lon="35.6194135174"><ele>419.27</ele><time>2015-11-21T10:37:46Z</time></trkpt><trkpt lat="31.2510488089" lon="35.6194207259"><ele>418.79</ele><time>2015-11-21T10:38:19Z</time></trkpt><trkpt lat="31.2509858608" lon="35.6194566004"><ele>419.27</ele><time>2015-11-21T10:38:40Z</time></trkpt><trkpt lat="31.2509670015" lon="35.6194790639"><ele>419.27</ele><time>2015-11-21T10:38:47Z</time></trkpt><trkpt lat="31.2509535905" lon="35.6195069756"><ele>419.27</ele><time>2015-11-21T10:38:50Z</time></trkpt><trkpt lat="31.2509436999" lon="35.6195148546"><ele>419.75</ele><time>2015-11-21T10:38:51Z</time></trkpt><trkpt lat="31.2509339768" lon="35.6195260026"><ele>419.27</ele><time>2015-11-21T10:38:52Z</time></trkpt><trkpt lat="31.2509219069" lon="35.6195396651"><ele>419.27</ele><time>2015-11-21T10:38:53Z</time></trkpt><trkpt lat="31.2509073224" lon="35.6195543334"><ele>419.27</ele><time>2015-11-21T10:38:54Z</time></trkpt><trkpt lat="31.2508904748" lon="35.6195682473"><ele>419.27</ele><time>2015-11-21T10:38:55Z</time></trkpt><trkpt lat="31.2508748844" lon="35.6195801497"><ele>419.27</ele><time>2015-11-21T10:38:56Z</time></trkpt><trkpt lat="31.2508602161" lon="35.6195899565"><ele>419.75</ele><time>2015-11-21T10:38:57Z</time></trkpt><trkpt lat="31.2508439552" lon="35.6195994280"><ele>419.75</ele><time>2015-11-21T10:38:58Z</time></trkpt><trkpt lat="31.2508253474" lon="35.6196126714"><ele>419.75</ele><time>2015-11-21T10:38:59Z</time></trkpt><trkpt lat="31.2505753152" lon="35.6198036112"><ele>419.75</ele><time>2015-11-21T10:39:10Z</time></trkpt><trkpt lat="31.2503071781" lon="35.6199476961"><ele>418.79</ele><time>2015-11-21T10:39:25Z</time></trkpt><trkpt lat="31.2498786114" lon="35.6201848201"><ele>417.35</ele><time>2015-11-21T10:39:40Z</time></trkpt><trkpt lat="31.2495083828" lon="35.6206250377"><ele>416.39</ele><time>2015-11-21T10:39:55Z</time></trkpt><trkpt lat="31.2494227197" lon="35.6207817793"><ele>416.39</ele><time>2015-11-21T10:39:59Z</time></trkpt><trkpt lat="31.2491792254" lon="35.6213180535"><ele>416.39</ele><time>2015-11-21T10:40:13Z</time></trkpt><trkpt lat="31.2488066498" lon="35.6217823271"><ele>416.39</ele><time>2015-11-21T10:40:30Z</time></trkpt><trkpt lat="31.2482819427" lon="35.6221499573"><ele>416.39</ele><time>2015-11-21T10:40:49Z</time></trkpt><trkpt lat="31.2477937806" lon="35.6224525440"><ele>417.35</ele><time>2015-11-21T10:41:07Z</time></trkpt><trkpt lat="31.2473986577" lon="35.6227018218"><ele>419.27</ele><time>2015-11-21T10:41:23Z</time></trkpt><trkpt lat="31.2470288482" lon="35.6229734793"><ele>422.16</ele><time>2015-11-21T10:41:40Z</time></trkpt><trkpt lat="31.2468224019" lon="35.6231597252"><ele>423.60</ele><time>2015-11-21T10:41:54Z</time></trkpt><trkpt lat="31.2465765607" lon="35.6234000344"><ele>426.00</ele><time>2015-11-21T10:42:12Z</time></trkpt><trkpt lat="31.2464005407" lon="35.6236128509"><ele>426.48</ele><time>2015-11-21T10:42:26Z</time></trkpt><trkpt lat="31.2461880594" lon="35.6238814071"><ele>427.92</ele><time>2015-11-21T10:42:42Z</time></trkpt><trkpt lat="31.2459536176" lon="35.6242472772"><ele>429.37</ele><time>2015-11-21T10:43:01Z</time></trkpt><trkpt lat="31.2457698025" lon="35.6245225389"><ele>430.33</ele><time>2015-11-21T10:43:15Z</time></trkpt><trkpt lat="31.2455329299" lon="35.6248909235"><ele>432.25</ele><time>2015-11-21T10:43:32Z</time></trkpt><trkpt lat="31.2452911958" lon="35.6252765749"><ele>432.73</ele><time>2015-11-21T10:43:50Z</time></trkpt><trkpt lat="31.2450636271" lon="35.6256069057"><ele>434.65</ele><time>2015-11-21T10:44:07Z</time></trkpt><trkpt lat="31.2448762916" lon="35.6258760486"><ele>436.58</ele><time>2015-11-21T10:44:22Z</time></trkpt><trkpt lat="31.2446870282" lon="35.6261376478"><ele>437.54</ele><time>2015-11-21T10:44:37Z</time></trkpt><trkpt lat="31.2444981840" lon="35.6263958942"><ele>439.46</ele><time>2015-11-21T10:44:53Z</time></trkpt><trkpt lat="31.2443105131" lon="35.6266508717"><ele>440.90</ele><time>2015-11-21T10:45:08Z</time></trkpt><trkpt lat="31.2440934218" lon="35.6269329228"><ele>442.82</ele><time>2015-11-21T10:45:26Z</time></trkpt><trkpt lat="31.2439026497" lon="35.6271770038"><ele>446.19</ele><time>2015-11-21T10:45:42Z</time></trkpt><trkpt lat="31.2437294796" lon="35.6273948494"><ele>446.19</ele><time>2015-11-21T10:45:56Z</time></trkpt><trkpt lat="31.2435326725" lon="35.6276519224"><ele>447.63</ele><time>2015-11-21T10:46:12Z</time></trkpt><trkpt lat="31.2433626037" lon="35.6278825924"><ele>449.07</ele><time>2015-11-21T10:46:27Z</time></trkpt><trkpt lat="31.2431915291" lon="35.6281080656"><ele>450.52</ele><time>2015-11-21T10:46:41Z</time></trkpt><trkpt lat="31.2429776229" lon="35.6284194533"><ele>451.48</ele><time>2015-11-21T10:46:58Z</time></trkpt><trkpt lat="31.2428244855" lon="35.6286111474"><ele>451.96</ele><time>2015-11-21T10:47:12Z</time></trkpt><trkpt lat="31.2426900398" lon="35.6287822220"><ele>451.96</ele><time>2015-11-21T10:47:26Z</time></trkpt><trkpt lat="31.2426736113" lon="35.6287735049"><ele>453.40</ele><time>2015-11-21T10:47:41Z</time></trkpt><trkpt lat="31.2426872738" lon="35.6287876703"><ele>454.36</ele><time>2015-11-21T10:48:06Z</time></trkpt><trkpt lat="31.2426865194" lon="35.6287783664"><ele>452.44</ele><time>2015-11-21T10:48:23Z</time></trkpt><trkpt lat="31.2426876929" lon="35.6287723314"><ele>452.92</ele><time>2015-11-21T10:48:47Z</time></trkpt><trkpt lat="31.2426834181" lon="35.6287848204"><ele>451.96</ele><time>2015-11-21T10:49:03Z</time></trkpt><trkpt lat="31.2426591944" lon="35.6288277358"><ele>452.44</ele><time>2015-11-21T10:49:08Z</time></trkpt><trkpt lat="31.2425015308" lon="35.6290377025"><ele>453.40</ele><time>2015-11-21T10:49:22Z</time></trkpt><trkpt lat="31.2421868742" lon="35.6294416264"><ele>454.36</ele><time>2015-11-21T10:49:41Z</time></trkpt><trkpt lat="31.2418818567" lon="35.6298648287"><ele>454.36</ele><time>2015-11-21T10:49:57Z</time></trkpt><trkpt lat="31.2416303158" lon="35.6302310340"><ele>454.84</ele><time>2015-11-21T10:50:11Z</time></trkpt><trkpt lat="31.2413454149" lon="35.6307656318"><ele>454.36</ele><time>2015-11-21T10:50:27Z</time></trkpt><trkpt lat="31.2410647888" lon="35.6313760020"><ele>454.36</ele><time>2015-11-21T10:50:44Z</time></trkpt><trkpt lat="31.2408036087" lon="35.6319576222"><ele>455.80</ele><time>2015-11-21T10:51:02Z</time></trkpt><trkpt lat="31.2405263353" lon="35.6325371470"><ele>455.80</ele><time>2015-11-21T10:51:18Z</time></trkpt><trkpt lat="31.2402418535" lon="35.6331455894"><ele>456.28</ele><time>2015-11-21T10:51:36Z</time></trkpt><trkpt lat="31.2400162127" lon="35.6336358469"><ele>456.76</ele><time>2015-11-21T10:51:52Z</time></trkpt><trkpt lat="31.2398723792" lon="35.6339497492"><ele>456.28</ele><time>2015-11-21T10:52:02Z</time></trkpt><trkpt lat="31.2396319862" lon="35.6344559323"><ele>457.24</ele><time>2015-11-21T10:52:19Z</time></trkpt><trkpt lat="31.2394350115" lon="35.6348660588"><ele>459.17</ele><time>2015-11-21T10:52:34Z</time></trkpt><trkpt lat="31.2392282300" lon="35.6353220344"><ele>462.05</ele><time>2015-11-21T10:52:53Z</time></trkpt><trkpt lat="31.2391377054" lon="35.6355468370"><ele>463.01</ele><time>2015-11-21T10:53:05Z</time></trkpt><trkpt lat="31.2390586641" lon="35.6357382797"><ele>463.49</ele><time>2015-11-21T10:53:15Z</time></trkpt><trkpt lat="31.2390478514" lon="35.6357552949"><ele>463.97</ele><time>2015-11-21T10:53:16Z</time></trkpt><trkpt lat="31.2390408106" lon="35.6357754953"><ele>463.97</ele><time>2015-11-21T10:53:17Z</time></trkpt><trkpt lat="31.2390352786" lon="35.6357981265"><ele>463.97</ele><time>2015-11-21T10:53:18Z</time></trkpt><trkpt lat="31.2390297465" lon="35.6358200870"><ele>464.45</ele><time>2015-11-21T10:53:19Z</time></trkpt><trkpt lat="31.2390231248" lon="35.6358406227"><ele>464.45</ele><time>2015-11-21T10:53:20Z</time></trkpt><trkpt lat="31.2390143238" lon="35.6358597334"><ele>464.93</ele><time>2015-11-21T10:53:21Z</time></trkpt><trkpt lat="31.2389112264" lon="35.6361844484"><ele>466.38</ele><time>2015-11-21T10:53:36Z</time></trkpt><trkpt lat="31.2388560735" lon="35.6365185510"><ele>468.30</ele><time>2015-11-21T10:53:51Z</time></trkpt><trkpt lat="31.2388631143" lon="35.6369327009"><ele>470.22</ele><time>2015-11-21T10:54:08Z</time></trkpt><trkpt lat="31.2388947140" lon="35.6372102257"><ele>473.59</ele><time>2015-11-21T10:54:21Z</time></trkpt><trkpt lat="31.2389562372" lon="35.6375507824"><ele>476.47</ele><time>2015-11-21T10:54:38Z</time></trkpt><trkpt lat="31.2389959674" lon="35.6378248706"><ele>478.39</ele><time>2015-11-21T10:54:52Z</time></trkpt><trkpt lat="31.2389953807" lon="35.6381420419"><ele>481.28</ele><time>2015-11-21T10:55:07Z</time></trkpt><trkpt lat="31.2389924470" lon="35.6381760724"><ele>481.28</ele><time>2015-11-21T10:55:09Z</time></trkpt><trkpt lat="31.2389895972" lon="35.6381926686"><ele>481.76</ele><time>2015-11-21T10:55:10Z</time></trkpt><trkpt lat="31.2389426585" lon="35.6384741329"><ele>484.64</ele><time>2015-11-21T10:55:27Z</time></trkpt><trkpt lat="31.2388152536" lon="35.6386934035"><ele>485.60</ele><time>2015-11-21T10:55:42Z</time></trkpt><trkpt lat="31.2386515550" lon="35.6389113329"><ele>486.56</ele><time>2015-11-21T10:56:00Z</time></trkpt><trkpt lat="31.2385454401" lon="35.6390389893"><ele>487.05</ele><time>2015-11-21T10:56:11Z</time></trkpt><trkpt lat="31.2385347951" lon="35.6390481256"><ele>487.05</ele><time>2015-11-21T10:56:12Z</time></trkpt><trkpt lat="31.2385238148" lon="35.6390595250"><ele>487.05</ele><time>2015-11-21T10:56:13Z</time></trkpt><trkpt lat="31.2385152653" lon="35.6390710082"><ele>487.53</ele><time>2015-11-21T10:56:14Z</time></trkpt><trkpt lat="31.2385073863" lon="35.6390817370"><ele>487.53</ele><time>2015-11-21T10:56:15Z</time></trkpt><trkpt lat="31.2384969927" lon="35.6390910409"><ele>488.01</ele><time>2015-11-21T10:56:16Z</time></trkpt><trkpt lat="31.2384849228" lon="35.6391001772"><ele>488.49</ele><time>2015-11-21T10:56:17Z</time></trkpt><trkpt lat="31.2384751160" lon="35.6391104031"><ele>488.97</ele><time>2015-11-21T10:56:18Z</time></trkpt><trkpt lat="31.2384655606" lon="35.6391223893"><ele>488.97</ele><time>2015-11-21T10:56:19Z</time></trkpt><trkpt lat="31.2384570949" lon="35.6391342916"><ele>488.97</ele><time>2015-11-21T10:56:20Z</time></trkpt><trkpt lat="31.2384483777" lon="35.6391461939"><ele>488.97</ele><time>2015-11-21T10:56:21Z</time></trkpt><trkpt lat="31.2384405825" lon="35.6391571742"><ele>488.97</ele><time>2015-11-21T10:56:22Z</time></trkpt><trkpt lat="31.2384316139" lon="35.6391692441"><ele>488.97</ele><time>2015-11-21T10:56:23Z</time></trkpt><trkpt lat="31.2384223938" lon="35.6391796377"><ele>488.97</ele><time>2015-11-21T10:56:24Z</time></trkpt><trkpt lat="31.2384111620" lon="35.6391911209"><ele>489.45</ele><time>2015-11-21T10:56:25Z</time></trkpt><trkpt lat="31.2384016067" lon="35.6392008439"><ele>489.45</ele><time>2015-11-21T10:56:26Z</time></trkpt><trkpt lat="31.2383902073" lon="35.6392097287"><ele>489.45</ele><time>2015-11-21T10:56:27Z</time></trkpt><trkpt lat="31.2383772992" lon="35.6392191164"><ele>489.45</ele><time>2015-11-21T10:56:28Z</time></trkpt><trkpt lat="31.2383043766" lon="35.6392949726"><ele>489.45</ele><time>2015-11-21T10:56:35Z</time></trkpt><trkpt lat="31.2382952403" lon="35.6393077970"><ele>489.45</ele><time>2015-11-21T10:56:36Z</time></trkpt><trkpt lat="31.2382853497" lon="35.6393194478"><ele>489.45</ele><time>2015-11-21T10:56:37Z</time></trkpt><trkpt lat="31.2382759620" lon="35.6393305957"><ele>489.93</ele><time>2015-11-21T10:56:38Z</time></trkpt><trkpt lat="31.2382661551" lon="35.6393428333"><ele>489.93</ele><time>2015-11-21T10:56:39Z</time></trkpt><trkpt lat="31.2382565159" lon="35.6393553223"><ele>489.93</ele><time>2015-11-21T10:56:40Z</time></trkpt><trkpt lat="31.2382467091" lon="35.6393677276"><ele>489.93</ele><time>2015-11-21T10:56:41Z</time></trkpt><trkpt lat="31.2382358965" lon="35.6393803842"><ele>489.93</ele><time>2015-11-21T10:56:42Z</time></trkpt><trkpt lat="31.2382260896" lon="35.6393908616"><ele>490.41</ele><time>2015-11-21T10:56:43Z</time></trkpt><trkpt lat="31.2382152770" lon="35.6394005846"><ele>490.41</ele><time>2015-11-21T10:56:44Z</time></trkpt><trkpt lat="31.2380055618" lon="35.6396148261"><ele>491.85</ele><time>2015-11-21T10:57:03Z</time></trkpt><trkpt lat="31.2378330622" lon="35.6398459151"><ele>493.29</ele><time>2015-11-21T10:57:23Z</time></trkpt><trkpt lat="31.2377866264" lon="35.6399203464"><ele>493.77</ele><time>2015-11-21T10:57:29Z</time></trkpt><trkpt lat="31.2377789989" lon="35.6399309915"><ele>493.77</ele><time>2015-11-21T10:57:30Z</time></trkpt><trkpt lat="31.2377719581" lon="35.6399424747"><ele>494.26</ele><time>2015-11-21T10:57:31Z</time></trkpt><trkpt lat="31.2377652526" lon="35.6399535388"><ele>494.26</ele><time>2015-11-21T10:57:32Z</time></trkpt><trkpt lat="31.2377566192" lon="35.6399646867"><ele>494.26</ele><time>2015-11-21T10:57:33Z</time></trkpt><trkpt lat="31.2376382668" lon="35.6401643436"><ele>496.66</ele><time>2015-11-21T10:57:50Z</time></trkpt><trkpt lat="31.2375524361" lon="35.6403444707"><ele>498.58</ele><time>2015-11-21T10:58:04Z</time></trkpt><trkpt lat="31.2374295574" lon="35.6406312156"><ele>500.98</ele><time>2015-11-21T10:58:22Z</time></trkpt><trkpt lat="31.2374039926" lon="35.6406948343"><ele>501.46</ele><time>2015-11-21T10:58:26Z</time></trkpt><trkpt lat="31.2373970356" lon="35.6407090835"><ele>501.46</ele><time>2015-11-21T10:58:27Z</time></trkpt><trkpt lat="31.2373915873" lon="35.6407249253"><ele>501.46</ele><time>2015-11-21T10:58:28Z</time></trkpt><trkpt lat="31.2373845465" lon="35.6407405157"><ele>501.46</ele><time>2015-11-21T10:58:29Z</time></trkpt><trkpt lat="31.2373794336" lon="35.6407560222"><ele>501.95</ele><time>2015-11-21T10:58:30Z</time></trkpt><trkpt lat="31.2373719737" lon="35.6407688465"><ele>501.95</ele><time>2015-11-21T10:58:31Z</time></trkpt><trkpt lat="31.2373643462" lon="35.6407828443"><ele>502.43</ele><time>2015-11-21T10:58:32Z</time></trkpt><trkpt lat="31.2373587303" lon="35.6407988537"><ele>501.95</ele><time>2015-11-21T10:58:33Z</time></trkpt><trkpt lat="31.2373525277" lon="35.6408136059"><ele>502.91</ele><time>2015-11-21T10:58:34Z</time></trkpt><trkpt lat="31.2373470794" lon="35.6408283580"><ele>502.43</ele><time>2015-11-21T10:58:35Z</time></trkpt><trkpt lat="31.2373421341" lon="35.6408452895"><ele>502.43</ele><time>2015-11-21T10:58:36Z</time></trkpt><trkpt lat="31.2373360153" lon="35.6408618018"><ele>502.91</ele><time>2015-11-21T10:58:37Z</time></trkpt><trkpt lat="31.2373293936" lon="35.6408768054"><ele>502.91</ele><time>2015-11-21T10:58:38Z</time></trkpt><trkpt lat="31.2373231910" lon="35.6408924796"><ele>503.39</ele><time>2015-11-21T10:58:39Z</time></trkpt><trkpt lat="31.2373161502" lon="35.6409079023"><ele>503.39</ele><time>2015-11-21T10:58:40Z</time></trkpt><trkpt lat="31.2373101152" lon="35.6409258395"><ele>503.39</ele><time>2015-11-21T10:58:41Z</time></trkpt><trkpt lat="31.2371894158" lon="35.6412531529"><ele>503.87</ele><time>2015-11-21T10:58:59Z</time></trkpt><trkpt lat="31.2370415591" lon="35.6416379660"><ele>506.75</ele><time>2015-11-21T10:59:20Z</time></trkpt><trkpt lat="31.2370059360" lon="35.6417298317"><ele>507.71</ele><time>2015-11-21T10:59:26Z</time></trkpt><trkpt lat="31.2369988952" lon="35.6417459249"><ele>507.71</ele><time>2015-11-21T10:59:27Z</time></trkpt><trkpt lat="31.2369495258" lon="35.6418774370"><ele>508.19</ele><time>2015-11-21T10:59:35Z</time></trkpt><trkpt lat="31.2369439937" lon="35.6418952066"><ele>508.19</ele><time>2015-11-21T10:59:36Z</time></trkpt><trkpt lat="31.2369377073" lon="35.6419126410"><ele>508.67</ele><time>2015-11-21T10:59:37Z</time></trkpt><trkpt lat="31.2369319238" lon="35.6419263873"><ele>508.67</ele><time>2015-11-21T10:59:38Z</time></trkpt><trkpt lat="31.2369250506" lon="35.6419423968"><ele>508.19</ele><time>2015-11-21T10:59:39Z</time></trkpt><trkpt lat="31.2369177584" lon="35.6419594958"><ele>508.67</ele><time>2015-11-21T10:59:40Z</time></trkpt><trkpt lat="31.2369100470" lon="35.6419788580"><ele>509.16</ele><time>2015-11-21T10:59:41Z</time></trkpt><trkpt lat="31.2369026709" lon="35.6419963762"><ele>508.67</ele><time>2015-11-21T10:59:42Z</time></trkpt><trkpt lat="31.2367510423" lon="35.6423656829"><ele>510.12</ele><time>2015-11-21T11:00:01Z</time></trkpt><trkpt lat="31.2366405688" lon="35.6426692754"><ele>511.56</ele><time>2015-11-21T11:00:17Z</time></trkpt><trkpt lat="31.2365213782" lon="35.6430046353"><ele>513.96</ele><time>2015-11-21T11:00:34Z</time></trkpt><trkpt lat="31.2364013493" lon="35.6432827469"><ele>514.44</ele><time>2015-11-21T11:00:50Z</time></trkpt><trkpt lat="31.2362805661" lon="35.6435250677"><ele>515.40</ele><time>2015-11-21T11:01:05Z</time></trkpt><trkpt lat="31.2361688353" lon="35.6436950527"><ele>516.85</ele><time>2015-11-21T11:01:16Z</time></trkpt><trkpt lat="31.2361573521" lon="35.6437036023"><ele>516.37</ele><time>2015-11-21T11:01:17Z</time></trkpt><trkpt lat="31.2361496408" lon="35.6437144987"><ele>517.33</ele><time>2015-11-21T11:01:18Z</time></trkpt><trkpt lat="31.2361413427" lon="35.6437289994"><ele>517.81</ele><time>2015-11-21T11:01:19Z</time></trkpt><trkpt lat="31.2361327931" lon="35.6437427457"><ele>517.33</ele><time>2015-11-21T11:01:20Z</time></trkpt><trkpt lat="31.2361232378" lon="35.6437574979"><ele>517.33</ele><time>2015-11-21T11:01:21Z</time></trkpt><trkpt lat="31.2361136824" lon="35.6437713280"><ele>517.33</ele><time>2015-11-21T11:01:22Z</time></trkpt><trkpt lat="31.2361040432" lon="35.6437854096"><ele>516.85</ele><time>2015-11-21T11:01:23Z</time></trkpt><trkpt lat="31.2360941526" lon="35.6437972281"><ele>517.81</ele><time>2015-11-21T11:01:24Z</time></trkpt><trkpt lat="31.2360851001" lon="35.6438092981"><ele>517.33</ele><time>2015-11-21T11:01:25Z</time></trkpt><trkpt lat="31.2360760476" lon="35.6438212004"><ele>517.81</ele><time>2015-11-21T11:01:26Z</time></trkpt><trkpt lat="31.2360660732" lon="35.6438324321"><ele>517.81</ele><time>2015-11-21T11:01:27Z</time></trkpt><trkpt lat="31.2360563502" lon="35.6438438315"><ele>517.81</ele><time>2015-11-21T11:01:28Z</time></trkpt><trkpt lat="31.2360479683" lon="35.6438583322"><ele>517.33</ele><time>2015-11-21T11:01:29Z</time></trkpt><trkpt lat="31.2358893827" lon="35.6440237071"><ele>520.69</ele><time>2015-11-21T11:01:40Z</time></trkpt><trkpt lat="31.2356145401" lon="35.6441926025"><ele>521.65</ele><time>2015-11-21T11:01:56Z</time></trkpt><trkpt lat="31.2353111152" lon="35.6442404632"><ele>521.17</ele><time>2015-11-21T11:02:10Z</time></trkpt><trkpt lat="31.2352404557" lon="35.6442480069"><ele>522.13</ele><time>2015-11-21T11:02:14Z</time></trkpt><trkpt lat="31.2352219317" lon="35.6442452408"><ele>521.65</ele><time>2015-11-21T11:02:15Z</time></trkpt><trkpt lat="31.2352060899" lon="35.6442462467"><ele>521.65</ele><time>2015-11-21T11:02:16Z</time></trkpt><trkpt lat="31.2351888232" lon="35.6442473363"><ele>521.65</ele><time>2015-11-21T11:02:17Z</time></trkpt><trkpt lat="31.2351716403" lon="35.6442465819"><ele>521.65</ele><time>2015-11-21T11:02:18Z</time></trkpt><trkpt lat="31.2351557985" lon="35.6442477554"><ele>522.13</ele><time>2015-11-21T11:02:19Z</time></trkpt><trkpt lat="31.2351404596" lon="35.6442519464"><ele>522.13</ele><time>2015-11-21T11:02:20Z</time></trkpt><trkpt lat="31.2351250369" lon="35.6442546286"><ele>522.13</ele><time>2015-11-21T11:02:21Z</time></trkpt><trkpt lat="31.2351067644" lon="35.6442533713"><ele>522.61</ele><time>2015-11-21T11:02:22Z</time></trkpt><trkpt lat="31.2350884918" lon="35.6442526169"><ele>522.13</ele><time>2015-11-21T11:02:23Z</time></trkpt><trkpt lat="31.2350713089" lon="35.6442496832"><ele>522.13</ele><time>2015-11-21T11:02:24Z</time></trkpt><trkpt lat="31.2350559700" lon="35.6442495156"><ele>521.65</ele><time>2015-11-21T11:02:25Z</time></trkpt><trkpt lat="31.2347519584" lon="35.6442452408"><ele>523.58</ele><time>2015-11-21T11:02:41Z</time></trkpt><trkpt lat="31.2344657164" lon="35.6442489289"><ele>524.06</ele><time>2015-11-21T11:02:57Z</time></trkpt><trkpt lat="31.2342044525" lon="35.6442666985"><ele>525.50</ele><time>2015-11-21T11:03:14Z</time></trkpt><trkpt lat="31.2339406740" lon="35.6442768406"><ele>528.38</ele><time>2015-11-21T11:03:31Z</time></trkpt><trkpt lat="31.2336748838" lon="35.6443038303"><ele>529.82</ele><time>2015-11-21T11:03:49Z</time></trkpt><trkpt lat="31.2334547751" lon="35.6443103682"><ele>532.71</ele><time>2015-11-21T11:04:03Z</time></trkpt><trkpt lat="31.2334378436" lon="35.6443126313"><ele>532.23</ele><time>2015-11-21T11:04:04Z</time></trkpt><trkpt lat="31.2331033219" lon="35.6443477515"><ele>533.67</ele><time>2015-11-21T11:04:23Z</time></trkpt><trkpt lat="31.2328233663" lon="35.6444117054"><ele>535.59</ele><time>2015-11-21T11:04:38Z</time></trkpt><trkpt lat="31.2325074524" lon="35.6445504259"><ele>536.55</ele><time>2015-11-21T11:04:55Z</time></trkpt><trkpt lat="31.2323127408" lon="35.6446360052"><ele>537.03</ele><time>2015-11-21T11:05:11Z</time></trkpt><trkpt lat="31.2323008385" lon="35.6446393579"><ele>536.07</ele><time>2015-11-21T11:05:30Z</time></trkpt><trkpt lat="31.2323215418" lon="35.6446221750"><ele>536.55</ele><time>2015-11-21T11:05:48Z</time></trkpt><trkpt lat="31.2323247269" lon="35.6446174812"><ele>537.51</ele><time>2015-11-21T11:06:08Z</time></trkpt><trkpt lat="31.2323223799" lon="35.6446139608"><ele>536.07</ele><time>2015-11-21T11:06:11Z</time></trkpt><trkpt lat="31.2323258165" lon="35.6446274556"><ele>536.55</ele><time>2015-11-21T11:06:42Z</time></trkpt><trkpt lat="31.2323248107" lon="35.6446222588"><ele>536.55</ele><time>2015-11-21T11:07:03Z</time></trkpt><trkpt lat="31.2323212065" lon="35.6446329877"><ele>536.55</ele><time>2015-11-21T11:07:28Z</time></trkpt><trkpt lat="31.2323268224" lon="35.6446202472"><ele>536.55</ele><time>2015-11-21T11:08:03Z</time></trkpt><trkpt lat="31.2323233020" lon="35.6446212530"><ele>536.07</ele><time>2015-11-21T11:08:35Z</time></trkpt><trkpt lat="31.2323233020" lon="35.6446324009"><ele>536.55</ele><time>2015-11-21T11:09:06Z</time></trkpt><trkpt lat="31.2323236372" lon="35.6446259469"><ele>536.07</ele><time>2015-11-21T11:09:37Z</time></trkpt><trkpt lat="31.2323269062" lon="35.6446332391"><ele>536.55</ele><time>2015-11-21T11:10:03Z</time></trkpt><trkpt lat="31.2323334441" lon="35.6446285453"><ele>536.55</ele><time>2015-11-21T11:10:27Z</time></trkpt><trkpt lat="31.2323325220" lon="35.6446277909"><ele>536.55</ele><time>2015-11-21T11:10:53Z</time></trkpt><trkpt lat="31.2323313486" lon="35.6446339935"><ele>537.03</ele><time>2015-11-21T11:11:19Z</time></trkpt><trkpt lat="31.2323303428" lon="35.6446316466"><ele>536.55</ele><time>2015-11-21T11:11:41Z</time></trkpt><trkpt lat="31.2323267385" lon="35.6446372624"><ele>537.51</ele><time>2015-11-21T11:12:10Z</time></trkpt><trkpt lat="31.2323250622" lon="35.6446335744"><ele>537.03</ele><time>2015-11-21T11:12:39Z</time></trkpt><trkpt lat="31.2323251460" lon="35.6446318980"><ele>537.51</ele><time>2015-11-21T11:13:02Z</time></trkpt><trkpt lat="31.2323311809" lon="35.6446239352"><ele>537.99</ele><time>2015-11-21T11:13:26Z</time></trkpt><trkpt lat="31.2323281635" lon="35.6446239352"><ele>537.51</ele><time>2015-11-21T11:13:50Z</time></trkpt><trkpt lat="31.2323247269" lon="35.6446170621"><ele>538.48</ele><time>2015-11-21T11:14:15Z</time></trkpt><trkpt lat="31.2323275767" lon="35.6446171459"><ele>537.51</ele><time>2015-11-21T11:14:37Z</time></trkpt><trkpt lat="31.2323314324" lon="35.6446090993"><ele>538.48</ele><time>2015-11-21T11:15:10Z</time></trkpt><trkpt lat="31.2323297560" lon="35.6446161401"><ele>538.48</ele><time>2015-11-21T11:15:36Z</time></trkpt><trkpt lat="31.2323329411" lon="35.6446152180"><ele>537.99</ele><time>2015-11-21T11:16:08Z</time></trkpt><trkpt lat="31.2323298398" lon="35.6446074229"><ele>538.48</ele><time>2015-11-21T11:16:35Z</time></trkpt><trkpt lat="31.2323303428" lon="35.6446174812"><ele>538.48</ele><time>2015-11-21T11:17:03Z</time></trkpt><trkpt lat="31.2323298398" lon="35.6446091831"><ele>539.44</ele><time>2015-11-21T11:17:29Z</time></trkpt><trkpt lat="31.2323285826" lon="35.6446158048"><ele>538.48</ele><time>2015-11-21T11:18:00Z</time></trkpt><trkpt lat="31.2323226314" lon="35.6446242705"><ele>539.44</ele><time>2015-11-21T11:18:27Z</time></trkpt><trkpt lat="31.2323226314" lon="35.6446289644"><ele>538.96</ele><time>2015-11-21T11:18:58Z</time></trkpt><trkpt lat="31.2323271576" lon="35.6446184870"><ele>538.48</ele><time>2015-11-21T11:19:23Z</time></trkpt><trkpt lat="31.2323180214" lon="35.6446193252"><ele>538.48</ele><time>2015-11-21T11:19:50Z</time></trkpt><trkpt lat="31.2323223799" lon="35.6446208339"><ele>539.44</ele><time>2015-11-21T11:20:15Z</time></trkpt><trkpt lat="31.2323207874" lon="35.6446298026"><ele>539.44</ele><time>2015-11-21T11:20:36Z</time></trkpt><trkpt lat="31.2322991621" lon="35.6446504220"><ele>539.92</ele><time>2015-11-21T11:20:59Z</time></trkpt><trkpt lat="31.2322870083" lon="35.6446530204"><ele>538.96</ele><time>2015-11-21T11:21:03Z</time></trkpt><trkpt lat="31.2322733458" lon="35.6446592230"><ele>538.96</ele><time>2015-11-21T11:21:18Z</time></trkpt><trkpt lat="31.2322269101" lon="35.6447013002"><ele>538.96</ele><time>2015-11-21T11:21:30Z</time></trkpt><trkpt lat="31.2322155945" lon="35.6447075866"><ele>538.96</ele><time>2015-11-21T11:21:31Z</time></trkpt><trkpt lat="31.2322039437" lon="35.6447167229"><ele>538.96</ele><time>2015-11-21T11:21:32Z</time></trkpt><trkpt lat="31.2321896944" lon="35.6447261944"><ele>538.48</ele><time>2015-11-21T11:21:33Z</time></trkpt><trkpt lat="31.2321712542" lon="35.6447351631"><ele>537.99</ele><time>2015-11-21T11:21:34Z</time></trkpt><trkpt lat="31.2321519759" lon="35.6447457243"><ele>538.48</ele><time>2015-11-21T11:21:35Z</time></trkpt><trkpt lat="31.2321315240" lon="35.6447582133"><ele>538.48</ele><time>2015-11-21T11:21:36Z</time></trkpt><trkpt lat="31.2321125809" lon="35.6447696127"><ele>538.48</ele><time>2015-11-21T11:21:37Z</time></trkpt><trkpt lat="31.2320958171" lon="35.6447823532"><ele>538.48</ele><time>2015-11-21T11:21:38Z</time></trkpt><trkpt lat="31.2317133509" lon="35.6450962555"><ele>538.96</ele><time>2015-11-21T11:21:52Z</time></trkpt><trkpt lat="31.2313552760" lon="35.6454461999"><ele>535.11</ele><time>2015-11-21T11:22:00Z</time></trkpt><trkpt lat="31.2312983628" lon="35.6454980839"><ele>534.63</ele><time>2015-11-21T11:22:01Z</time></trkpt><trkpt lat="31.2309866399" lon="35.6457980722"><ele>530.79</ele><time>2015-11-21T11:22:06Z</time></trkpt><trkpt lat="31.2308473326" lon="35.6459296681"><ele>530.30</ele><time>2015-11-21T11:22:08Z</time></trkpt><trkpt lat="31.2306356058" lon="35.6461405568"><ele>528.38</ele><time>2015-11-21T11:22:11Z</time></trkpt><trkpt lat="31.2298509758" lon="35.6469844468"><ele>527.90</ele><time>2015-11-21T11:22:25Z</time></trkpt><trkpt lat="31.2294478901" lon="35.6474909652"><ele>529.34</ele><time>2015-11-21T11:22:38Z</time></trkpt><trkpt lat="31.2292236742" lon="35.6478134170"><ele>531.75</ele><time>2015-11-21T11:22:53Z</time></trkpt><trkpt lat="31.2289676070" lon="35.6482141558"><ele>533.19</ele><time>2015-11-21T11:23:12Z</time></trkpt><trkpt lat="31.2287445646" lon="35.6485746615"><ele>535.11</ele><time>2015-11-21T11:23:29Z</time></trkpt><trkpt lat="31.2285327539" lon="35.6488843728"><ele>537.51</ele><time>2015-11-21T11:23:46Z</time></trkpt><trkpt lat="31.2282900978" lon="35.6491463911"><ele>539.44</ele><time>2015-11-21T11:24:03Z</time></trkpt><trkpt lat="31.2281022593" lon="35.6493195612"><ele>541.84</ele><time>2015-11-21T11:24:16Z</time></trkpt><trkpt lat="31.2280882616" lon="35.6493255123"><ele>541.84</ele><time>2015-11-21T11:24:17Z</time></trkpt><trkpt lat="31.2280771974" lon="35.6493295357"><ele>542.32</ele><time>2015-11-21T11:24:18Z</time></trkpt><trkpt lat="31.2280650437" lon="35.6493339781"><ele>542.32</ele><time>2015-11-21T11:24:19Z</time></trkpt><trkpt lat="31.2280347850" lon="35.6493439525"><ele>541.84</ele><time>2015-11-21T11:24:33Z</time></trkpt><trkpt lat="31.2280165963" lon="35.6493722834"><ele>542.32</ele><time>2015-11-21T11:24:50Z</time></trkpt><trkpt lat="31.2280124892" lon="35.6493772287"><ele>542.80</ele><time>2015-11-21T11:25:09Z</time></trkpt><trkpt lat="31.2280259840" lon="35.6493739597"><ele>542.80</ele><time>2015-11-21T11:25:27Z</time></trkpt><trkpt lat="31.2279854994" lon="35.6494109239"><ele>543.28</ele><time>2015-11-21T11:25:44Z</time></trkpt><trkpt lat="31.2279743515" lon="35.6494131871"><ele>543.28</ele><time>2015-11-21T11:25:45Z</time></trkpt><trkpt lat="31.2279639579" lon="35.6494174618"><ele>543.28</ele><time>2015-11-21T11:25:46Z</time></trkpt><trkpt lat="31.2279533967" lon="35.6494255085"><ele>543.76</ele><time>2015-11-21T11:25:47Z</time></trkpt><trkpt lat="31.2279440090" lon="35.6494343933"><ele>543.76</ele><time>2015-11-21T11:25:48Z</time></trkpt><trkpt lat="31.2279333640" lon="35.6494416017"><ele>543.76</ele><time>2015-11-21T11:25:49Z</time></trkpt><trkpt lat="31.2279199529" lon="35.6494470499"><ele>544.24</ele><time>2015-11-21T11:25:50Z</time></trkpt><trkpt lat="31.2278733496" lon="35.6494820863"><ele>545.69</ele><time>2015-11-21T11:25:54Z</time></trkpt><trkpt lat="31.2276872713" lon="35.6496013608"><ele>547.13</ele><time>2015-11-21T11:26:07Z</time></trkpt><trkpt lat="31.2275400851" lon="35.6496848445"><ele>548.57</ele><time>2015-11-21T11:26:17Z</time></trkpt><trkpt lat="31.2275243271" lon="35.6496910471"><ele>548.57</ele><time>2015-11-21T11:26:18Z</time></trkpt><trkpt lat="31.2272417732" lon="35.6498219725"><ele>551.45</ele><time>2015-11-21T11:26:36Z</time></trkpt><trkpt lat="31.2270053197" lon="35.6499175262"><ele>553.86</ele><time>2015-11-21T11:26:51Z</time></trkpt><trkpt lat="31.2267224304" lon="35.6500328612"><ele>554.82</ele><time>2015-11-21T11:27:08Z</time></trkpt><trkpt lat="31.2264495157" lon="35.6501280796"><ele>556.26</ele><time>2015-11-21T11:27:25Z</time></trkpt><trkpt lat="31.2261459231" lon="35.6502363738"><ele>557.70</ele><time>2015-11-21T11:27:43Z</time></trkpt><trkpt lat="31.2258135807" lon="35.6503667962"><ele>559.14</ele><time>2015-11-21T11:28:00Z</time></trkpt><trkpt lat="31.2254925538" lon="35.6505169161"><ele>561.07</ele><time>2015-11-21T11:28:17Z</time></trkpt><trkpt lat="31.2251948286" lon="35.6507087778"><ele>562.51</ele><time>2015-11-21T11:28:34Z</time></trkpt><trkpt lat="31.2249069102" lon="35.6509595644"><ele>563.95</ele><time>2015-11-21T11:28:52Z</time></trkpt><trkpt lat="31.2248470634" lon="35.6510300562"><ele>564.91</ele><time>2015-11-21T11:28:56Z</time></trkpt><trkpt lat="31.2248345744" lon="35.6510490831"><ele>564.91</ele><time>2015-11-21T11:28:57Z</time></trkpt><trkpt lat="31.2248190679" lon="35.6510671880"><ele>564.91</ele><time>2015-11-21T11:28:58Z</time></trkpt><trkpt lat="31.2248019688" lon="35.6510817725"><ele>564.91</ele><time>2015-11-21T11:28:59Z</time></trkpt><trkpt lat="31.2247848697" lon="35.6510976981"><ele>564.91</ele><time>2015-11-21T11:29:00Z</time></trkpt><trkpt lat="31.2245137990" lon="35.6514163781"><ele>566.83</ele><time>2015-11-21T11:29:19Z</time></trkpt><trkpt lat="31.2243051734" lon="35.6517163664"><ele>568.76</ele><time>2015-11-21T11:29:38Z</time></trkpt><trkpt lat="31.2242643535" lon="35.6517746206"><ele>568.76</ele><time>2015-11-21T11:29:42Z</time></trkpt><trkpt lat="31.2242519483" lon="35.6517874449"><ele>569.24</ele><time>2015-11-21T11:29:43Z</time></trkpt><trkpt lat="31.2242436502" lon="35.6518021133"><ele>569.24</ele><time>2015-11-21T11:29:44Z</time></trkpt><trkpt lat="31.2242331728" lon="35.6518162787"><ele>569.24</ele><time>2015-11-21T11:29:45Z</time></trkpt><trkpt lat="31.2242221925" lon="35.6518294383"><ele>569.24</ele><time>2015-11-21T11:29:46Z</time></trkpt><trkpt lat="31.2242124695" lon="35.6518436037"><ele>569.72</ele><time>2015-11-21T11:29:47Z</time></trkpt><trkpt lat="31.2240416463" lon="35.6520993356"><ele>571.64</ele><time>2015-11-21T11:30:05Z</time></trkpt><trkpt lat="31.2238570768" lon="35.6523607671"><ele>573.56</ele><time>2015-11-21T11:30:23Z</time></trkpt><trkpt lat="31.2237397302" lon="35.6525359489"><ele>575.01</ele><time>2015-11-21T11:30:36Z</time></trkpt><trkpt lat="31.2237281632" lon="35.6525496114"><ele>575.49</ele><time>2015-11-21T11:30:37Z</time></trkpt><trkpt lat="31.2237200327" lon="35.6525636930"><ele>575.49</ele><time>2015-11-21T11:30:38Z</time></trkpt><trkpt lat="31.2237133272" lon="35.6525777746"><ele>575.49</ele><time>2015-11-21T11:30:39Z</time></trkpt><trkpt lat="31.2237051129" lon="35.6525894254"><ele>575.49</ele><time>2015-11-21T11:30:40Z</time></trkpt><trkpt lat="31.2236963958" lon="35.6526031718"><ele>575.97</ele><time>2015-11-21T11:30:41Z</time></trkpt><trkpt lat="31.2236882653" lon="35.6526168343"><ele>575.97</ele><time>2015-11-21T11:30:42Z</time></trkpt><trkpt lat="31.2236716691" lon="35.6526453327"><ele>575.97</ele><time>2015-11-21T11:30:44Z</time></trkpt><trkpt lat="31.2236603536" lon="35.6526579056"><ele>575.97</ele><time>2015-11-21T11:30:45Z</time></trkpt><trkpt lat="31.2234938890" lon="35.6529116258"><ele>577.89</ele><time>2015-11-21T11:31:02Z</time></trkpt><trkpt lat="31.2233099900" lon="35.6531356741"><ele>579.81</ele><time>2015-11-21T11:31:19Z</time></trkpt><trkpt lat="31.2232502270" lon="35.6532142125"><ele>580.77</ele><time>2015-11-21T11:31:25Z</time></trkpt><trkpt lat="31.2232358102" lon="35.6532229297"><ele>580.77</ele><time>2015-11-21T11:31:26Z</time></trkpt><trkpt lat="31.2232235726" lon="35.6532345805"><ele>581.25</ele><time>2015-11-21T11:31:27Z</time></trkpt><trkpt lat="31.2231760472" lon="35.6532787532"><ele>581.25</ele><time>2015-11-21T11:31:31Z</time></trkpt><trkpt lat="31.2231638096" lon="35.6532895658"><ele>581.25</ele><time>2015-11-21T11:31:32Z</time></trkpt><trkpt lat="31.2231519073" lon="35.6533011328"><ele>581.25</ele><time>2015-11-21T11:31:33Z</time></trkpt><trkpt lat="31.2231394183" lon="35.6533133704"><ele>581.73</ele><time>2015-11-21T11:31:34Z</time></trkpt><trkpt lat="31.2231281865" lon="35.6533261109"><ele>581.73</ele><time>2015-11-21T11:31:35Z</time></trkpt><trkpt lat="31.2231178768" lon="35.6533393543"><ele>581.73</ele><time>2015-11-21T11:31:36Z</time></trkpt><trkpt lat="31.2231066450" lon="35.6533518434"><ele>581.73</ele><time>2015-11-21T11:31:37Z</time></trkpt><trkpt lat="31.2230416015" lon="35.6534246821"><ele>582.70</ele><time>2015-11-21T11:31:43Z</time></trkpt><trkpt lat="31.2230301183" lon="35.6534338184"><ele>582.70</ele><time>2015-11-21T11:31:44Z</time></trkpt><trkpt lat="31.2230217364" lon="35.6534434576"><ele>582.70</ele><time>2015-11-21T11:31:45Z</time></trkpt><trkpt lat="31.2229428627" lon="35.6535369996"><ele>582.70</ele><time>2015-11-21T11:31:52Z</time></trkpt><trkpt lat="31.2229283620" lon="35.6535477284"><ele>583.18</ele><time>2015-11-21T11:31:53Z</time></trkpt><trkpt lat="31.2229162920" lon="35.6535592116"><ele>582.70</ele><time>2015-11-21T11:31:54Z</time></trkpt><trkpt lat="31.2229028810" lon="35.6535724550"><ele>583.18</ele><time>2015-11-21T11:31:55Z</time></trkpt><trkpt lat="31.2228867039" lon="35.6535892189"><ele>583.18</ele><time>2015-11-21T11:31:56Z</time></trkpt><trkpt lat="31.2225786690" lon="35.6539449468"><ele>585.58</ele><time>2015-11-21T11:32:15Z</time></trkpt><trkpt lat="31.2222293951" lon="35.6543214619"><ele>586.54</ele><time>2015-11-21T11:32:32Z</time></trkpt><trkpt lat="31.2217801251" lon="35.6547197700"><ele>587.98</ele><time>2015-11-21T11:32:51Z</time></trkpt><trkpt lat="31.2212959863" lon="35.6550677028"><ele>586.54</ele><time>2015-11-21T11:33:07Z</time></trkpt><trkpt lat="31.2207547668" lon="35.6554529350"><ele>586.54</ele><time>2015-11-21T11:33:25Z</time></trkpt><trkpt lat="31.2203185726" lon="35.6557274424"><ele>587.02</ele><time>2015-11-21T11:33:41Z</time></trkpt><trkpt lat="31.2199936900" lon="35.6559098326"><ele>588.46</ele><time>2015-11-21T11:33:55Z</time></trkpt><trkpt lat="31.2197567336" lon="35.6560742855"><ele>590.39</ele><time>2015-11-21T11:34:07Z</time></trkpt><trkpt lat="31.2197347730" lon="35.6560814101"><ele>590.39</ele><time>2015-11-21T11:34:08Z</time></trkpt><trkpt lat="31.2194787059" lon="35.6562343799"><ele>593.27</ele><time>2015-11-21T11:34:22Z</time></trkpt><trkpt lat="31.2191920448" lon="35.6563619524"><ele>596.15</ele><time>2015-11-21T11:34:39Z</time></trkpt><trkpt lat="31.2189058866" lon="35.6564227212"><ele>598.08</ele><time>2015-11-21T11:34:57Z</time></trkpt><trkpt lat="31.2186417729" lon="35.6564222183"><ele>599.52</ele><time>2015-11-21T11:35:14Z</time></trkpt><trkpt lat="31.2184696924" lon="35.6563967373"><ele>601.44</ele><time>2015-11-21T11:35:26Z</time></trkpt><trkpt lat="31.2182137929" lon="35.6563535705"><ele>601.92</ele><time>2015-11-21T11:35:43Z</time></trkpt><trkpt lat="31.2179619167" lon="35.6563632935"><ele>602.88</ele><time>2015-11-21T11:35:58Z</time></trkpt><trkpt lat="31.2177041732" lon="35.6564688217"><ele>603.85</ele><time>2015-11-21T11:36:12Z</time></trkpt><trkpt lat="31.2173465174" lon="35.6567192730"><ele>604.33</ele><time>2015-11-21T11:36:30Z</time></trkpt><trkpt lat="31.2170512229" lon="35.6569651142"><ele>605.77</ele><time>2015-11-21T11:36:46Z</time></trkpt><trkpt lat="31.2168049626" lon="35.6571758352"><ele>607.21</ele><time>2015-11-21T11:36:59Z</time></trkpt><trkpt lat="31.2165110931" lon="35.6574222632"><ele>608.65</ele><time>2015-11-21T11:37:17Z</time></trkpt><trkpt lat="31.2162659224" lon="35.6576129515"><ele>610.09</ele><time>2015-11-21T11:37:31Z</time></trkpt><trkpt lat="31.2159887329" lon="35.6578352395"><ele>611.54</ele><time>2015-11-21T11:37:47Z</time></trkpt><trkpt lat="31.2156530377" lon="35.6580754649"><ele>611.06</ele><time>2015-11-21T11:38:05Z</time></trkpt><trkpt lat="31.2153324299" lon="35.6583094038"><ele>612.02</ele><time>2015-11-21T11:38:22Z</time></trkpt><trkpt lat="31.2150983233" lon="35.6584840827"><ele>612.50</ele><time>2015-11-21T11:38:35Z</time></trkpt><trkpt lat="31.2147632148" lon="35.6587329414"><ele>613.46</ele><time>2015-11-21T11:38:53Z</time></trkpt><trkpt lat="31.2144369073" lon="35.6589733344"><ele>614.90</ele><time>2015-11-21T11:39:12Z</time></trkpt><trkpt lat="31.2141572870" lon="35.6591587421"><ele>616.34</ele><time>2015-11-21T11:39:29Z</time></trkpt><trkpt lat="31.2139905710" lon="35.6592730712"><ele>617.78</ele><time>2015-11-21T11:39:40Z</time></trkpt><trkpt lat="31.2139753997" lon="35.6592792738"><ele>617.78</ele><time>2015-11-21T11:39:41Z</time></trkpt><trkpt lat="31.2139596418" lon="35.6592869852"><ele>617.78</ele><time>2015-11-21T11:39:42Z</time></trkpt><trkpt lat="31.2139432132" lon="35.6592949480"><ele>617.78</ele><time>2015-11-21T11:39:43Z</time></trkpt><trkpt lat="31.2139267009" lon="35.6593037490"><ele>617.78</ele><time>2015-11-21T11:39:44Z</time></trkpt><trkpt lat="31.2136750761" lon="35.6594079360"><ele>619.71</ele><time>2015-11-21T11:40:00Z</time></trkpt><trkpt lat="31.2134661991" lon="35.6594547909"><ele>620.67</ele><time>2015-11-21T11:40:13Z</time></trkpt><trkpt lat="31.2132077850" lon="35.6594732311"><ele>621.63</ele><time>2015-11-21T11:40:28Z</time></trkpt><trkpt lat="31.2129072100" lon="35.6594753265"><ele>623.07</ele><time>2015-11-21T11:40:46Z</time></trkpt><trkpt lat="31.2126622908" lon="35.6595200859"><ele>625.47</ele><time>2015-11-21T11:41:01Z</time></trkpt><trkpt lat="31.2124404218" lon="35.6596087664"><ele>628.36</ele><time>2015-11-21T11:41:16Z</time></trkpt><trkpt lat="31.2121876236" lon="35.6597170606"><ele>630.28</ele><time>2015-11-21T11:41:34Z</time></trkpt><trkpt lat="31.2120131962" lon="35.6598080881"><ele>631.72</ele><time>2015-11-21T11:41:48Z</time></trkpt><trkpt lat="31.2117914949" lon="35.6599028874"><ele>634.13</ele><time>2015-11-21T11:42:04Z</time></trkpt><trkpt lat="31.2115134671" lon="35.6600090861"><ele>635.57</ele><time>2015-11-21T11:42:24Z</time></trkpt><trkpt lat="31.2112896703" lon="35.6601081602"><ele>637.49</ele><time>2015-11-21T11:42:40Z</time></trkpt><trkpt lat="31.2110072840" lon="35.6602570228"><ele>640.38</ele><time>2015-11-21T11:43:01Z</time></trkpt><trkpt lat="31.2108177692" lon="35.6603475474"><ele>642.78</ele><time>2015-11-21T11:43:15Z</time></trkpt><trkpt lat="31.2106355466" lon="35.6604482979"><ele>644.70</ele><time>2015-11-21T11:43:29Z</time></trkpt><trkpt lat="31.2104113307" lon="35.6605722662"><ele>647.10</ele><time>2015-11-21T11:43:46Z</time></trkpt><trkpt lat="31.2102053873" lon="35.6606791355"><ele>649.51</ele><time>2015-11-21T11:44:02Z</time></trkpt><trkpt lat="31.2099831831" lon="35.6607934646"><ele>652.39</ele><time>2015-11-21T11:44:19Z</time></trkpt><trkpt lat="31.2098009605" lon="35.6608850788"><ele>653.35</ele><time>2015-11-21T11:44:33Z</time></trkpt><trkpt lat="31.2095707934" lon="35.6609858293"><ele>655.76</ele><time>2015-11-21T11:44:50Z</time></trkpt><trkpt lat="31.2093759980" lon="35.6610729173"><ele>657.68</ele><time>2015-11-21T11:45:04Z</time></trkpt><trkpt lat="31.2091988046" lon="35.6611697283"><ele>660.56</ele><time>2015-11-21T11:45:18Z</time></trkpt><trkpt lat="31.2091590744" lon="35.6611884199"><ele>661.52</ele><time>2015-11-21T11:45:21Z</time></trkpt><trkpt lat="31.2089729961" lon="35.6612668745"><ele>663.45</ele><time>2015-11-21T11:45:35Z</time></trkpt><trkpt lat="31.2089589983" lon="35.6612752564"><ele>663.93</ele><time>2015-11-21T11:45:36Z</time></trkpt><trkpt lat="31.2089440785" lon="35.6612796988"><ele>663.93</ele><time>2015-11-21T11:45:37Z</time></trkpt><trkpt lat="31.2089305837" lon="35.6612861529"><ele>663.93</ele><time>2015-11-21T11:45:38Z</time></trkpt><trkpt lat="31.2089179270" lon="35.6612928584"><ele>664.41</ele><time>2015-11-21T11:45:39Z</time></trkpt><trkpt lat="31.2089060247" lon="35.6612969656"><ele>664.41</ele><time>2015-11-21T11:45:40Z</time></trkpt><trkpt lat="31.2088942900" lon="35.6613027491"><ele>664.41</ele><time>2015-11-21T11:45:41Z</time></trkpt><trkpt lat="31.2088812981" lon="35.6613076944"><ele>664.89</ele><time>2015-11-21T11:45:42Z</time></trkpt><trkpt lat="31.2086786237" lon="35.6613851432"><ele>665.85</ele><time>2015-11-21T11:45:58Z</time></trkpt><trkpt lat="31.2084531505" lon="35.6614668667"><ele>667.77</ele><time>2015-11-21T11:46:15Z</time></trkpt><trkpt lat="31.2082271744" lon="35.6615728140"><ele>669.22</ele><time>2015-11-21T11:46:32Z</time></trkpt><trkpt lat="31.2079623062" lon="35.6616897415"><ele>670.66</ele><time>2015-11-21T11:46:47Z</time></trkpt><trkpt lat="31.2076852005" lon="35.6618008856"><ele>672.10</ele><time>2015-11-21T11:47:03Z</time></trkpt><trkpt lat="31.2074709591" lon="35.6619001273"><ele>672.58</ele><time>2015-11-21T11:47:16Z</time></trkpt><trkpt lat="31.2071795203" lon="35.6620200723"><ele>674.02</ele><time>2015-11-21T11:47:34Z</time></trkpt><trkpt lat="31.2071638461" lon="35.6620177254"><ele>674.50</ele><time>2015-11-21T11:47:35Z</time></trkpt><trkpt lat="31.2071363535" lon="35.6620224193"><ele>674.50</ele><time>2015-11-21T11:47:37Z</time></trkpt><trkpt lat="31.2071240321" lon="35.6620274484"><ele>674.50</ele><time>2015-11-21T11:47:38Z</time></trkpt><trkpt lat="31.2071102019" lon="35.6620301306"><ele>674.98</ele><time>2015-11-21T11:47:39Z</time></trkpt><trkpt lat="31.2070964556" lon="35.6620310526"><ele>674.98</ele><time>2015-11-21T11:47:40Z</time></trkpt><trkpt lat="31.2070835475" lon="35.6620349921"><ele>675.46</ele><time>2015-11-21T11:47:41Z</time></trkpt><trkpt lat="31.2070050091" lon="35.6620511692"><ele>675.94</ele><time>2015-11-21T11:47:55Z</time></trkpt><trkpt lat="31.2069922686" lon="35.6620682683"><ele>675.46</ele><time>2015-11-21T11:48:13Z</time></trkpt><trkpt lat="31.2069724873" lon="35.6620572880"><ele>675.46</ele><time>2015-11-21T11:48:24Z</time></trkpt><trkpt lat="31.2069842219" lon="35.6620260235"><ele>675.46</ele><time>2015-11-21T11:48:57Z</time></trkpt><trkpt lat="31.2069975492" lon="35.6620142050"><ele>675.94</ele><time>2015-11-21T11:49:31Z</time></trkpt><trkpt lat="31.2069861498" lon="35.6620243471"><ele>675.94</ele><time>2015-11-21T11:50:01Z</time></trkpt><trkpt lat="31.2069737446" lon="35.6620348245"><ele>676.42</ele><time>2015-11-21T11:50:35Z</time></trkpt><trkpt lat="31.2069701403" lon="35.6620333157"><ele>676.42</ele><time>2015-11-21T11:51:13Z</time></trkpt><trkpt lat="31.2069662847" lon="35.6620303821"><ele>676.42</ele><time>2015-11-21T11:51:50Z</time></trkpt><trkpt lat="31.2069729064" lon="35.6620179769"><ele>676.42</ele><time>2015-11-21T11:52:26Z</time></trkpt><trkpt lat="31.2069697212" lon="35.6620104332"><ele>676.42</ele><time>2015-11-21T11:52:56Z</time></trkpt><trkpt lat="31.2069681287" lon="35.6620086730"><ele>676.42</ele><time>2015-11-21T11:53:29Z</time></trkpt><trkpt lat="31.2069563940" lon="35.6620204914"><ele>676.91</ele><time>2015-11-21T11:53:50Z</time></trkpt><trkpt lat="31.2069641054" lon="35.6620331481"><ele>676.42</ele><time>2015-11-21T11:54:13Z</time></trkpt><trkpt lat="31.2069654465" lon="35.6620297953"><ele>676.42</ele><time>2015-11-21T11:54:40Z</time></trkpt><trkpt lat="31.2069673743" lon="35.6620182283"><ele>676.91</ele><time>2015-11-21T11:55:10Z</time></trkpt><trkpt lat="31.2069533765" lon="35.6620380934"><ele>676.42</ele><time>2015-11-21T11:55:44Z</time></trkpt><trkpt lat="31.2069642730" lon="35.6620218325"><ele>676.42</ele><time>2015-11-21T11:56:08Z</time></trkpt><trkpt lat="31.2069778517" lon="35.6620377582"><ele>676.42</ele><time>2015-11-21T11:56:29Z</time></trkpt><trkpt lat="31.2069847248" lon="35.6620678492"><ele>676.42</ele><time>2015-11-21T11:56:33Z</time></trkpt><trkpt lat="31.2069869041" lon="35.6620828528"><ele>676.42</ele><time>2015-11-21T11:56:34Z</time></trkpt><trkpt lat="31.2069838867" lon="35.6620950904"><ele>676.42</ele><time>2015-11-21T11:56:35Z</time></trkpt><trkpt lat="31.2069781031" lon="35.6621068250"><ele>676.42</ele><time>2015-11-21T11:56:36Z</time></trkpt><trkpt lat="31.2069698889" lon="35.6621185597"><ele>676.42</ele><time>2015-11-21T11:56:37Z</time></trkpt><trkpt lat="31.2069579866" lon="35.6621261034"><ele>676.42</ele><time>2015-11-21T11:56:38Z</time></trkpt><trkpt lat="31.2069433182" lon="35.6621337309"><ele>676.42</ele><time>2015-11-21T11:56:39Z</time></trkpt><trkpt lat="31.2069302425" lon="35.6621445436"><ele>676.91</ele><time>2015-11-21T11:56:40Z</time></trkpt><trkpt lat="31.2069153227" lon="35.6621516682"><ele>676.91</ele><time>2015-11-21T11:56:41Z</time></trkpt><trkpt lat="31.2068997324" lon="35.6621587090"><ele>676.91</ele><time>2015-11-21T11:56:42Z</time></trkpt><trkpt lat="31.2068835553" lon="35.6621671747"><ele>676.91</ele><time>2015-11-21T11:56:43Z</time></trkpt><trkpt lat="31.2068676297" lon="35.6621762272"><ele>677.39</ele><time>2015-11-21T11:56:44Z</time></trkpt><trkpt lat="31.2068523746" lon="35.6621862017"><ele>677.39</ele><time>2015-11-21T11:56:45Z</time></trkpt><trkpt lat="31.2068362813" lon="35.6621968467"><ele>677.39</ele><time>2015-11-21T11:56:46Z</time></trkpt><trkpt lat="31.2068178412" lon="35.6622060668"><ele>676.91</ele><time>2015-11-21T11:56:47Z</time></trkpt><trkpt lat="31.2065072078" lon="35.6623778120"><ele>679.31</ele><time>2015-11-21T11:57:05Z</time></trkpt><trkpt lat="31.2061899528" lon="35.6625707634"><ele>681.23</ele><time>2015-11-21T11:57:23Z</time></trkpt><trkpt lat="31.2059302814" lon="35.6627182011"><ele>681.71</ele><time>2015-11-21T11:57:38Z</time></trkpt><trkpt lat="31.2056012917" lon="35.6629123259"><ele>683.63</ele><time>2015-11-21T11:57:57Z</time></trkpt><trkpt lat="31.2053258624" lon="35.6630720850"><ele>685.08</ele><time>2015-11-21T11:58:13Z</time></trkpt><trkpt lat="31.2050337531" lon="35.6632439140"><ele>687.00</ele><time>2015-11-21T11:58:30Z</time></trkpt><trkpt lat="31.2046938669" lon="35.6634365302"><ele>687.96</ele><time>2015-11-21T11:58:48Z</time></trkpt><trkpt lat="31.2044130731" lon="35.6636212673"><ele>689.88</ele><time>2015-11-21T11:59:03Z</time></trkpt><trkpt lat="31.2041404098" lon="35.6638214272"><ele>690.36</ele><time>2015-11-21T11:59:20Z</time></trkpt><trkpt lat="31.2039285153" lon="35.6639945135"><ele>692.77</ele><time>2015-11-21T11:59:35Z</time></trkpt><trkpt lat="31.2037218176" lon="35.6642037258"><ele>693.73</ele><time>2015-11-21T11:59:48Z</time></trkpt><trkpt lat="31.2033661734" lon="35.6646251678"><ele>692.29</ele><time>2015-11-21T12:00:04Z</time></trkpt><trkpt lat="31.2029796001" lon="35.6650280859"><ele>692.77</ele><time>2015-11-21T12:00:20Z</time></trkpt><trkpt lat="31.2026426475" lon="35.6653681397"><ele>693.25</ele><time>2015-11-21T12:00:33Z</time></trkpt><trkpt lat="31.2023760192" lon="35.6657271367"><ele>694.21</ele><time>2015-11-21T12:00:49Z</time></trkpt><trkpt lat="31.2022190262" lon="35.6660017278"><ele>697.57</ele><time>2015-11-21T12:01:03Z</time></trkpt><trkpt lat="31.2020767853" lon="35.6662831083"><ele>699.98</ele><time>2015-11-21T12:01:20Z</time></trkpt><trkpt lat="31.2020368036" lon="35.6663676817"><ele>699.98</ele><time>2015-11-21T12:01:25Z</time></trkpt><trkpt lat="31.2020260748" lon="35.6663830206"><ele>700.46</ele><time>2015-11-21T12:01:26Z</time></trkpt><trkpt lat="31.2018833309" lon="35.6666832604"><ele>702.38</ele><time>2015-11-21T12:01:44Z</time></trkpt><trkpt lat="31.2017672416" lon="35.6669182051"><ele>703.82</ele><time>2015-11-21T12:01:59Z</time></trkpt><trkpt lat="31.2016555946" lon="35.6671236455"><ele>705.26</ele><time>2015-11-21T12:02:12Z</time></trkpt><trkpt lat="31.2015233282" lon="35.6673396472"><ele>706.71</ele><time>2015-11-21T12:02:26Z</time></trkpt><trkpt lat="31.2013555225" lon="35.6675907690"><ele>708.15</ele><time>2015-11-21T12:02:42Z</time></trkpt><trkpt lat="31.2011756469" lon="35.6678684615"><ele>710.07</ele><time>2015-11-21T12:02:59Z</time></trkpt><trkpt lat="31.2009878922" lon="35.6681583915"><ele>711.51</ele><time>2015-11-21T12:03:18Z</time></trkpt><trkpt lat="31.2009192444" lon="35.6682638358"><ele>712.47</ele><time>2015-11-21T12:03:25Z</time></trkpt><trkpt lat="31.2009101920" lon="35.6682794262"><ele>712.95</ele><time>2015-11-21T12:03:26Z</time></trkpt><trkpt lat="31.2007367704" lon="35.6685332302"><ele>714.40</ele><time>2015-11-21T12:03:42Z</time></trkpt><trkpt lat="31.2005475070" lon="35.6688124314"><ele>714.40</ele><time>2015-11-21T12:03:58Z</time></trkpt><trkpt lat="31.2003304996" lon="35.6691512279"><ele>715.84</ele><time>2015-11-21T12:04:13Z</time></trkpt><trkpt lat="31.2001006678" lon="35.6695196964"><ele>715.36</ele><time>2015-11-21T12:04:27Z</time></trkpt><trkpt lat="31.1997451074" lon="35.6701228581"><ele>713.92</ele><time>2015-11-21T12:04:43Z</time></trkpt><trkpt lat="31.1997238174" lon="35.6701678690"><ele>713.92</ele><time>2015-11-21T12:04:44Z</time></trkpt><trkpt lat="31.1994492263" lon="35.6708170474"><ele>710.55</ele><time>2015-11-21T12:04:57Z</time></trkpt><trkpt lat="31.1994260922" lon="35.6708792411"><ele>710.07</ele><time>2015-11-21T12:04:58Z</time></trkpt><trkpt lat="31.1991907284" lon="35.6715642102"><ele>707.19</ele><time>2015-11-21T12:05:08Z</time></trkpt><trkpt lat="31.1988636665" lon="35.6725197472"><ele>706.23</ele><time>2015-11-21T12:05:23Z</time></trkpt><trkpt lat="31.1987504270" lon="35.6728594657"><ele>708.63</ele><time>2015-11-21T12:05:35Z</time></trkpt><trkpt lat="31.1986577231" lon="35.6731750444"><ele>710.55</ele><time>2015-11-21T12:05:48Z</time></trkpt><trkpt lat="31.1986069288" lon="35.6734517310"><ele>713.44</ele><time>2015-11-21T12:06:02Z</time></trkpt><trkpt lat="31.1985910032" lon="35.6737979874"><ele>714.88</ele><time>2015-11-21T12:06:19Z</time></trkpt><trkpt lat="31.1986528616" lon="35.6742117181"><ele>715.84</ele><time>2015-11-21T12:06:36Z</time></trkpt><trkpt lat="31.1987427995" lon="35.6746460684"><ele>716.32</ele><time>2015-11-21T12:06:51Z</time></trkpt><trkpt lat="31.1987899058" lon="35.6751622260"><ele>716.80</ele><time>2015-11-21T12:07:06Z</time></trkpt><trkpt lat="31.1987136304" lon="35.6757283397"><ele>715.36</ele><time>2015-11-21T12:07:18Z</time></trkpt><trkpt lat="31.1986957770" lon="35.6757839955"><ele>715.36</ele><time>2015-11-21T12:07:19Z</time></trkpt><trkpt lat="31.1983521190" lon="35.6767505128"><ele>712.95</ele><time>2015-11-21T12:07:35Z</time></trkpt><trkpt lat="31.1982220318" lon="35.6771398522"><ele>712.47</ele><time>2015-11-21T12:07:42Z</time></trkpt><trkpt lat="31.1980980635" lon="35.6780385599"><ele>713.92</ele><time>2015-11-21T12:08:00Z</time></trkpt><trkpt lat="31.1980064493" lon="35.6790295523"><ele>714.40</ele><time>2015-11-21T12:08:21Z</time></trkpt><trkpt lat="31.1978264060" lon="35.6801514700"><ele>711.51</ele><time>2015-11-21T12:08:39Z</time></trkpt><trkpt lat="31.1976858415" lon="35.6807717308"><ele>708.63</ele><time>2015-11-21T12:08:48Z</time></trkpt><trkpt lat="31.1975924671" lon="35.6812474877"><ele>708.15</ele><time>2015-11-21T12:08:57Z</time></trkpt><trkpt lat="31.1975819897" lon="35.6812945940"><ele>708.63</ele><time>2015-11-21T12:08:58Z</time></trkpt><trkpt lat="31.1975695007" lon="35.6813394371"><ele>708.63</ele><time>2015-11-21T12:08:59Z</time></trkpt><trkpt lat="31.1974757072" lon="35.6818462908"><ele>710.55</ele><time>2015-11-21T12:09:13Z</time></trkpt><trkpt lat="31.1973447818" lon="35.6824538950"><ele>712.47</ele><time>2015-11-21T12:09:33Z</time></trkpt><trkpt lat="31.1972396728" lon="35.6829579826"><ele>714.40</ele><time>2015-11-21T12:09:52Z</time></trkpt><trkpt lat="31.1971902195" lon="35.6832482480"><ele>713.92</ele><time>2015-11-21T12:10:04Z</time></trkpt><trkpt lat="31.1971433647" lon="35.6836105138"><ele>714.40</ele><time>2015-11-21T12:10:18Z</time></trkpt><trkpt lat="31.1970836855" lon="35.6840533298"><ele>714.40</ele><time>2015-11-21T12:10:31Z</time></trkpt><trkpt lat="31.1970339809" lon="35.6844966486"><ele>715.36</ele><time>2015-11-21T12:10:45Z</time></trkpt><trkpt lat="31.1969879642" lon="35.6850972120"><ele>715.84</ele><time>2015-11-21T12:11:01Z</time></trkpt><trkpt lat="31.1969230883" lon="35.6856033951"><ele>714.88</ele><time>2015-11-21T12:11:16Z</time></trkpt><trkpt lat="31.1968476512" lon="35.6859471370"><ele>714.40</ele><time>2015-11-21T12:11:25Z</time></trkpt><trkpt lat="31.1966140475" lon="35.6867659651"><ele>712.47</ele><time>2015-11-21T12:11:40Z</time></trkpt><trkpt lat="31.1965095252" lon="35.6871983875"><ele>711.51</ele><time>2015-11-21T12:11:47Z</time></trkpt><trkpt lat="31.1964822840" lon="35.6875440571"><ele>711.51</ele><time>2015-11-21T12:11:53Z</time></trkpt><trkpt lat="31.1964863911" lon="35.6875979528"><ele>711.51</ele><time>2015-11-21T12:11:54Z</time></trkpt><trkpt lat="31.1964929290" lon="35.6876470707"><ele>711.51</ele><time>2015-11-21T12:11:55Z</time></trkpt><trkpt lat="31.1966701224" lon="35.6882006116"><ele>712.95</ele><time>2015-11-21T12:12:10Z</time></trkpt><trkpt lat="31.1969357450" lon="35.6886958983"><ele>715.84</ele><time>2015-11-21T12:12:29Z</time></trkpt><trkpt lat="31.1971871182" lon="35.6891476829"><ele>718.24</ele><time>2015-11-21T12:12:47Z</time></trkpt><trkpt lat="31.1974305287" lon="35.6895751599"><ele>719.20</ele><time>2015-11-21T12:13:03Z</time></trkpt><trkpt lat="31.1976432614" lon="35.6900116894"><ele>719.20</ele><time>2015-11-21T12:13:17Z</time></trkpt><trkpt lat="31.1978310999" lon="35.6904370710"><ele>719.20</ele><time>2015-11-21T12:13:36Z</time></trkpt><trkpt lat="31.1979969777" lon="35.6908544060"><ele>718.72</ele><time>2015-11-21T12:13:52Z</time></trkpt><trkpt lat="31.1981262267" lon="35.6912207790"><ele>718.72</ele><time>2015-11-21T12:14:05Z</time></trkpt><trkpt lat="31.1982281506" lon="35.6918408722"><ele>717.28</ele><time>2015-11-21T12:14:21Z</time></trkpt><trkpt lat="31.1982264742" lon="35.6918895710"><ele>717.28</ele><time>2015-11-21T12:14:22Z</time></trkpt><trkpt lat="31.1982213613" lon="35.6919874717"><ele>716.80</ele><time>2015-11-21T12:14:24Z</time></trkpt><trkpt lat="31.1980503704" lon="35.6928340439"><ele>714.88</ele><time>2015-11-21T12:14:40Z</time></trkpt><trkpt lat="31.1978316866" lon="35.6937050074"><ele>713.44</ele><time>2015-11-21T12:14:56Z</time></trkpt><trkpt lat="31.1974974163" lon="35.6942949258"><ele>712.47</ele><time>2015-11-21T12:15:10Z</time></trkpt><trkpt lat="31.1971142795" lon="35.6946322974"><ele>712.47</ele><time>2015-11-21T12:15:24Z</time></trkpt><trkpt lat="31.1966686975" lon="35.6949953176"><ele>711.99</ele><time>2015-11-21T12:15:39Z</time></trkpt><trkpt lat="31.1963083595" lon="35.6951675657"><ele>710.07</ele><time>2015-11-21T12:15:48Z</time></trkpt><trkpt lat="31.1962546315" lon="35.6951814797"><ele>710.07</ele><time>2015-11-21T12:15:49Z</time></trkpt><trkpt lat="31.1956912838" lon="35.6952817272"><ele>706.71</ele><time>2015-11-21T12:15:57Z</time></trkpt><trkpt lat="31.1945911590" lon="35.6952830683"><ele>708.63</ele><time>2015-11-21T12:16:10Z</time></trkpt><trkpt lat="31.1944664363" lon="35.6952797156"><ele>709.11</ele><time>2015-11-21T12:16:12Z</time></trkpt><trkpt lat="31.1939863209" lon="35.6952544022"><ele>711.99</ele><time>2015-11-21T12:16:24Z</time></trkpt><trkpt lat="31.1935776193" lon="35.6952278316"><ele>714.88</ele><time>2015-11-21T12:16:41Z</time></trkpt><trkpt lat="31.1932922155" lon="35.6951984111"><ele>717.76</ele><time>2015-11-21T12:16:56Z</time></trkpt><trkpt lat="31.1930998508" lon="35.6951739360"><ele>718.72</ele><time>2015-11-21T12:17:08Z</time></trkpt><trkpt lat="31.1930849310" lon="35.6951740198"><ele>718.72</ele><time>2015-11-21T12:17:09Z</time></trkpt><trkpt lat="31.1930685863" lon="35.6951713376"><ele>719.20</ele><time>2015-11-21T12:17:10Z</time></trkpt><trkpt lat="31.1927422788" lon="35.6951513886"><ele>722.09</ele><time>2015-11-21T12:17:30Z</time></trkpt><trkpt lat="31.1926195677" lon="35.6951579265"><ele>722.57</ele><time>2015-11-21T12:17:38Z</time></trkpt><trkpt lat="31.1926055700" lon="35.6951613631"><ele>722.57</ele><time>2015-11-21T12:17:39Z</time></trkpt><trkpt lat="31.1923430488" lon="35.6952153426"><ele>724.49</ele><time>2015-11-21T12:17:56Z</time></trkpt><trkpt lat="31.1921049189" lon="35.6953246426"><ele>727.37</ele><time>2015-11-21T12:18:13Z</time></trkpt><trkpt lat="31.1919040047" lon="35.6954426598"><ele>729.78</ele><time>2015-11-21T12:18:27Z</time></trkpt><trkpt lat="31.1917252187" lon="35.6955497805"><ele>731.70</ele><time>2015-11-21T12:18:41Z</time></trkpt><trkpt lat="31.1916698143" lon="35.6955754291"><ele>732.18</ele><time>2015-11-21T12:18:45Z</time></trkpt><trkpt lat="31.1916574929" lon="35.6955810450"><ele>732.66</ele><time>2015-11-21T12:18:46Z</time></trkpt><trkpt lat="31.1916459259" lon="35.6955861580"><ele>732.66</ele><time>2015-11-21T12:18:47Z</time></trkpt><trkpt lat="31.1916353647" lon="35.6955926120"><ele>732.66</ele><time>2015-11-21T12:18:48Z</time></trkpt><trkpt lat="31.1916243844" lon="35.6955988146"><ele>733.14</ele><time>2015-11-21T12:18:49Z</time></trkpt><trkpt lat="31.1916013341" lon="35.6956126448"><ele>733.62</ele><time>2015-11-21T12:18:51Z</time></trkpt><trkpt lat="31.1915904377" lon="35.6956196856"><ele>733.62</ele><time>2015-11-21T12:18:52Z</time></trkpt><trkpt lat="31.1915772781" lon="35.6956262235"><ele>733.62</ele><time>2015-11-21T12:18:53Z</time></trkpt><trkpt lat="31.1915649567" lon="35.6956341024"><ele>733.62</ele><time>2015-11-21T12:18:54Z</time></trkpt><trkpt lat="31.1915533897" lon="35.6956414785"><ele>733.62</ele><time>2015-11-21T12:18:55Z</time></trkpt><trkpt lat="31.1915398948" lon="35.6956474297"><ele>734.10</ele><time>2015-11-21T12:18:56Z</time></trkpt><trkpt lat="31.1915250588" lon="35.6956526265"><ele>734.10</ele><time>2015-11-21T12:18:57Z</time></trkpt><trkpt lat="31.1913098115" lon="35.6957832165"><ele>735.55</ele><time>2015-11-21T12:19:14Z</time></trkpt><trkpt lat="31.1911002640" lon="35.6959086936"><ele>737.47</ele><time>2015-11-21T12:19:30Z</time></trkpt><trkpt lat="31.1910848413" lon="35.6959157344"><ele>737.95</ele><time>2015-11-21T12:19:31Z</time></trkpt><trkpt lat="31.1910721846" lon="35.6959216017"><ele>737.95</ele><time>2015-11-21T12:19:32Z</time></trkpt><trkpt lat="31.1910578515" lon="35.6959288940"><ele>737.95</ele><time>2015-11-21T12:19:33Z</time></trkpt><trkpt lat="31.1910424288" lon="35.6959356833"><ele>738.43</ele><time>2015-11-21T12:19:34Z</time></trkpt><trkpt lat="31.1908901297" lon="35.6960029900"><ele>739.39</ele><time>2015-11-21T12:19:45Z</time></trkpt><trkpt lat="31.1908755451" lon="35.6960091926"><ele>739.87</ele><time>2015-11-21T12:19:46Z</time></trkpt><trkpt lat="31.1908612959" lon="35.6960126292"><ele>739.87</ele><time>2015-11-21T12:19:47Z</time></trkpt><trkpt lat="31.1908469629" lon="35.6960153952"><ele>739.87</ele><time>2015-11-21T12:19:48Z</time></trkpt><trkpt lat="31.1908325460" lon="35.6960195024"><ele>739.87</ele><time>2015-11-21T12:19:49Z</time></trkpt><trkpt lat="31.1908172071" lon="35.6960233580"><ele>740.35</ele><time>2015-11-21T12:19:50Z</time></trkpt><trkpt lat="31.1908027902" lon="35.6960271299"><ele>740.35</ele><time>2015-11-21T12:19:51Z</time></trkpt><trkpt lat="31.1905923206" lon="35.6960770022"><ele>742.28</ele><time>2015-11-21T12:20:06Z</time></trkpt><trkpt lat="31.1905508302" lon="35.6960850488"><ele>742.76</ele><time>2015-11-21T12:20:09Z</time></trkpt><trkpt lat="31.1905365810" lon="35.6960866414"><ele>742.76</ele><time>2015-11-21T12:20:10Z</time></trkpt><trkpt lat="31.1905221641" lon="35.6960910000"><ele>743.24</ele><time>2015-11-21T12:20:11Z</time></trkpt><trkpt lat="31.1905085854" lon="35.6960964482"><ele>743.24</ele><time>2015-11-21T12:20:12Z</time></trkpt><trkpt lat="31.1904943362" lon="35.6960999686"><ele>743.24</ele><time>2015-11-21T12:20:13Z</time></trkpt><trkpt lat="31.1904789135" lon="35.6961002201"><ele>743.72</ele><time>2015-11-21T12:20:14Z</time></trkpt><trkpt lat="31.1904647481" lon="35.6961003877"><ele>743.72</ele><time>2015-11-21T12:20:15Z</time></trkpt><trkpt lat="31.1902742274" lon="35.6961450633"><ele>745.64</ele><time>2015-11-21T12:20:29Z</time></trkpt><trkpt lat="31.1901282985" lon="35.6961745676"><ele>747.08</ele><time>2015-11-21T12:20:39Z</time></trkpt><trkpt lat="31.1901131272" lon="35.6961768307"><ele>747.08</ele><time>2015-11-21T12:20:40Z</time></trkpt><trkpt lat="31.1900991295" lon="35.6961798482"><ele>747.56</ele><time>2015-11-21T12:20:41Z</time></trkpt><trkpt lat="31.1900325771" lon="35.6961963605"><ele>748.04</ele><time>2015-11-21T12:20:46Z</time></trkpt><trkpt lat="31.1900174897" lon="35.6961972825"><ele>748.04</ele><time>2015-11-21T12:20:47Z</time></trkpt><trkpt lat="31.1900036596" lon="35.6962006353"><ele>748.52</ele><time>2015-11-21T12:20:48Z</time></trkpt><trkpt lat="31.1899898294" lon="35.6962045748"><ele>748.52</ele><time>2015-11-21T12:20:49Z</time></trkpt><trkpt lat="31.1899764184" lon="35.6962079275"><ele>749.00</ele><time>2015-11-21T12:20:50Z</time></trkpt><trkpt lat="31.1899621692" lon="35.6962095201"><ele>749.00</ele><time>2015-11-21T12:20:51Z</time></trkpt><trkpt lat="31.1897789408" lon="35.6962533575"><ele>750.45</ele><time>2015-11-21T12:21:05Z</time></trkpt><trkpt lat="31.1897665355" lon="35.6962581351"><ele>750.93</ele><time>2015-11-21T12:21:06Z</time></trkpt><trkpt lat="31.1897541303" lon="35.6962619070"><ele>750.93</ele><time>2015-11-21T12:21:07Z</time></trkpt><trkpt lat="31.1897395458" lon="35.6962659303"><ele>750.93</ele><time>2015-11-21T12:21:08Z</time></trkpt><trkpt lat="31.1897263862" lon="35.6962712947"><ele>750.93</ele><time>2015-11-21T12:21:09Z</time></trkpt><trkpt lat="31.1897127237" lon="35.6962773297"><ele>751.41</ele><time>2015-11-21T12:21:10Z</time></trkpt><trkpt lat="31.1896980554" lon="35.6962804310"><ele>751.41</ele><time>2015-11-21T12:21:11Z</time></trkpt><trkpt lat="31.1896848120" lon="35.6962833647"><ele>751.41</ele><time>2015-11-21T12:21:12Z</time></trkpt><trkpt lat="31.1894480232" lon="35.6963607296"><ele>753.81</ele><time>2015-11-21T12:21:30Z</time></trkpt><trkpt lat="31.1894347798" lon="35.6963560358"><ele>754.29</ele><time>2015-11-21T12:21:31Z</time></trkpt><trkpt lat="31.1893819738" lon="35.6963023078"><ele>754.77</ele><time>2015-11-21T12:21:36Z</time></trkpt><trkpt lat="31.1892761942" lon="35.6962205842"><ele>755.25</ele><time>2015-11-21T12:21:48Z</time></trkpt><trkpt lat="31.1892288364" lon="35.6961580552"><ele>754.77</ele><time>2015-11-21T12:22:03Z</time></trkpt><trkpt lat="31.1892305966" lon="35.6961516012"><ele>754.77</ele><time>2015-11-21T12:22:17Z</time></trkpt><trkpt lat="31.1891948059" lon="35.6961598992"><ele>755.25</ele><time>2015-11-21T12:22:51Z</time></trkpt><trkpt lat="31.1891949736" lon="35.6961648446"><ele>755.25</ele><time>2015-11-21T12:23:40Z</time></trkpt><trkpt lat="31.1892028525" lon="35.6961315684"><ele>755.73</ele><time>2015-11-21T12:24:15Z</time></trkpt><trkpt lat="31.1892299261" lon="35.6961594801"><ele>756.21</ele><time>2015-11-21T12:24:51Z</time></trkpt><trkpt lat="31.1891896091" lon="35.6961759925"><ele>756.21</ele><time>2015-11-21T12:25:19Z</time></trkpt><trkpt lat="31.1892293394" lon="35.6961701252"><ele>755.73</ele><time>2015-11-21T12:25:55Z</time></trkpt><trkpt lat="31.1892023496" lon="35.6961619947"><ele>756.21</ele><time>2015-11-21T12:26:26Z</time></trkpt><trkpt lat="31.1892118212" lon="35.6961731426"><ele>757.18</ele><time>2015-11-21T12:27:02Z</time></trkpt><trkpt lat="31.1892345361" lon="35.6961590610"><ele>756.69</ele><time>2015-11-21T12:27:35Z</time></trkpt><trkpt lat="31.1891915370" lon="35.6961603183"><ele>756.69</ele><time>2015-11-21T12:28:10Z</time></trkpt><trkpt lat="31.1892012600" lon="35.6961361784"><ele>756.69</ele><time>2015-11-21T12:28:42Z</time></trkpt><trkpt lat="31.1891710851" lon="35.6961484160"><ele>756.69</ele><time>2015-11-21T12:29:20Z</time></trkpt><trkpt lat="31.1891741026" lon="35.6961635873"><ele>756.69</ele><time>2015-11-21T12:30:04Z</time></trkpt><trkpt lat="31.1892134137" lon="35.6961461529"><ele>757.18</ele><time>2015-11-21T12:30:35Z</time></trkpt><trkpt lat="31.1892171018" lon="35.6961248629"><ele>757.18</ele><time>2015-11-21T12:31:10Z</time></trkpt><trkpt lat="31.1891959794" lon="35.6961639225"><ele>757.18</ele><time>2015-11-21T12:31:44Z</time></trkpt><trkpt lat="31.1892030202" lon="35.6961396988"><ele>757.66</ele><time>2015-11-21T12:32:24Z</time></trkpt><trkpt lat="31.1891813949" lon="35.6961425487"><ele>757.66</ele><time>2015-11-21T12:32:54Z</time></trkpt><trkpt lat="31.1892039422" lon="35.6961374357"><ele>757.66</ele><time>2015-11-21T12:33:29Z</time></trkpt><trkpt lat="31.1892090552" lon="35.6961370166"><ele>757.66</ele><time>2015-11-21T12:34:06Z</time></trkpt><trkpt lat="31.1891970690" lon="35.6961427163"><ele>757.66</ele><time>2015-11-21T12:34:43Z</time></trkpt><trkpt lat="31.1891866755" lon="35.6961513497"><ele>757.66</ele><time>2015-11-21T12:35:11Z</time></trkpt><trkpt lat="31.1892136652" lon="35.6961268745"><ele>757.66</ele><time>2015-11-21T12:35:45Z</time></trkpt><trkpt lat="31.1892128270" lon="35.6961489189"><ele>757.66</ele><time>2015-11-21T12:36:17Z</time></trkpt><trkpt lat="31.1892123241" lon="35.6961775012"><ele>757.66</ele><time>2015-11-21T12:36:45Z</time></trkpt><trkpt lat="31.1893953010" lon="35.6963422894"><ele>757.66</ele><time>2015-11-21T12:36:57Z</time></trkpt><trkpt lat="31.1893777829" lon="35.6963850372"><ele>757.66</ele><time>2015-11-21T12:37:04Z</time></trkpt><trkpt lat="31.1893341132" lon="35.6964015495"><ele>758.62</ele><time>2015-11-21T12:37:08Z</time></trkpt><trkpt lat="31.1891477834" lon="35.6964575406"><ele>760.54</ele><time>2015-11-21T12:37:23Z</time></trkpt><trkpt lat="31.1890253238" lon="35.6964986119"><ele>761.98</ele><time>2015-11-21T12:37:33Z</time></trkpt><trkpt lat="31.1887993477" lon="35.6965481490"><ele>764.87</ele><time>2015-11-21T12:37:50Z</time></trkpt><trkpt lat="31.1885970086" lon="35.6965957582"><ele>767.27</ele><time>2015-11-21T12:38:05Z</time></trkpt><trkpt lat="31.1884002015" lon="35.6966124382"><ele>769.19</ele><time>2015-11-21T12:38:19Z</time></trkpt><trkpt lat="31.1881776620" lon="35.6966209039"><ele>771.60</ele><time>2015-11-21T12:38:35Z</time></trkpt><trkpt lat="31.1880243570" lon="35.6966146175"><ele>773.04</ele><time>2015-11-21T12:38:45Z</time></trkpt><trkpt lat="31.1878151447" lon="35.6965990271"><ele>775.44</ele><time>2015-11-21T12:39:00Z</time></trkpt><trkpt lat="31.1876168288" lon="35.6966002006"><ele>777.84</ele><time>2015-11-21T12:39:15Z</time></trkpt><trkpt lat="31.1874389648" lon="35.6966431998"><ele>780.25</ele><time>2015-11-21T12:39:29Z</time></trkpt><trkpt lat="31.1872017570" lon="35.6967397593"><ele>782.65</ele><time>2015-11-21T12:39:47Z</time></trkpt><trkpt lat="31.1869840790" lon="35.6968358159"><ele>784.57</ele><time>2015-11-21T12:40:04Z</time></trkpt><trkpt lat="31.1867866851" lon="35.6969089061"><ele>786.02</ele><time>2015-11-21T12:40:19Z</time></trkpt><trkpt lat="31.1865851842" lon="35.6969501451"><ele>787.46</ele><time>2015-11-21T12:40:33Z</time></trkpt><trkpt lat="31.1863589566" lon="35.6969685853"><ele>789.38</ele><time>2015-11-21T12:40:49Z</time></trkpt><trkpt lat="31.1861251015" lon="35.6969609577"><ele>792.26</ele><time>2015-11-21T12:41:05Z</time></trkpt><trkpt lat="31.1858863011" lon="35.6969386619"><ele>794.67</ele><time>2015-11-21T12:41:21Z</time></trkpt><trkpt lat="31.1857407074" lon="35.6969165336"><ele>796.11</ele><time>2015-11-21T12:41:31Z</time></trkpt><trkpt lat="31.1854695529" lon="35.6968729477"><ele>799.47</ele><time>2015-11-21T12:41:51Z</time></trkpt><trkpt lat="31.1852160003" lon="35.6968412641"><ele>801.88</ele><time>2015-11-21T12:42:10Z</time></trkpt><trkpt lat="31.1849469412" lon="35.6968512386"><ele>804.76</ele><time>2015-11-21T12:42:29Z</time></trkpt><trkpt lat="31.1846677400" lon="35.6968854368"><ele>807.64</ele><time>2015-11-21T12:42:48Z</time></trkpt><trkpt lat="31.1844389141" lon="35.6969275139"><ele>810.05</ele><time>2015-11-21T12:43:04Z</time></trkpt><trkpt lat="31.1842117645" lon="35.6969871093"><ele>812.45</ele><time>2015-11-21T12:43:20Z</time></trkpt><trkpt lat="31.1839858722" lon="35.6971053779"><ele>814.85</ele><time>2015-11-21T12:43:38Z</time></trkpt><trkpt lat="31.1838398594" lon="35.6972833257"><ele>817.26</ele><time>2015-11-21T12:43:54Z</time></trkpt><trkpt lat="31.1837821919" lon="35.6975214556"><ele>819.66</ele><time>2015-11-21T12:44:10Z</time></trkpt><trkpt lat="31.1838488281" lon="35.6977982260"><ele>822.55</ele><time>2015-11-21T12:44:28Z</time></trkpt><trkpt lat="31.1839468963" lon="35.6979179196"><ele>823.99</ele><time>2015-11-21T12:44:39Z</time></trkpt><trkpt lat="31.1841326393" lon="35.6980148982"><ele>825.43</ele><time>2015-11-21T12:44:54Z</time></trkpt><trkpt lat="31.1843618844" lon="35.6980936043"><ele>827.35</ele><time>2015-11-21T12:45:10Z</time></trkpt><trkpt lat="31.1845745333" lon="35.6981348433"><ele>828.79</ele><time>2015-11-21T12:45:24Z</time></trkpt><trkpt lat="31.1849098932" lon="35.6982109509"><ele>830.24</ele><time>2015-11-21T12:45:41Z</time></trkpt><trkpt lat="31.1853254680" lon="35.6983148027"><ele>832.16</ele><time>2015-11-21T12:45:59Z</time></trkpt><trkpt lat="31.1860170588" lon="35.6984692812"><ele>832.64</ele><time>2015-11-21T12:46:19Z</time></trkpt><trkpt lat="31.1868410837" lon="35.6986800022"><ele>832.64</ele><time>2015-11-21T12:46:34Z</time></trkpt><trkpt lat="31.1873572413" lon="35.6987868715"><ele>834.56</ele><time>2015-11-21T12:46:46Z</time></trkpt><trkpt lat="31.1877293140" lon="35.6988053117"><ele>836.96</ele><time>2015-11-21T12:47:01Z</time></trkpt><trkpt lat="31.1880764086" lon="35.6987582054"><ele>840.33</ele><time>2015-11-21T12:47:17Z</time></trkpt><trkpt lat="31.1884239223" lon="35.6986760627"><ele>843.21</ele><time>2015-11-21T12:47:36Z</time></trkpt><trkpt lat="31.1886949930" lon="35.6986427866"><ele>845.62</ele><time>2015-11-21T12:47:53Z</time></trkpt><trkpt lat="31.1889446899" lon="35.6986253522"><ele>848.02</ele><time>2015-11-21T12:48:09Z</time></trkpt><trkpt lat="31.1891820654" lon="35.6986018829"><ele>849.94</ele><time>2015-11-21T12:48:25Z</time></trkpt><trkpt lat="31.1894062813" lon="35.6985717919"><ele>851.87</ele><time>2015-11-21T12:48:39Z</time></trkpt><trkpt lat="31.1896776035" lon="35.6984859612"><ele>853.79</ele><time>2015-11-21T12:48:56Z</time></trkpt><trkpt lat="31.1899128836" lon="35.6984203309"><ele>855.71</ele><time>2015-11-21T12:49:12Z</time></trkpt><trkpt lat="31.1901672743" lon="35.6983341649"><ele>858.59</ele><time>2015-11-21T12:49:30Z</time></trkpt><trkpt lat="31.1904049013" lon="35.6982701272"><ele>860.04</ele><time>2015-11-21T12:49:45Z</time></trkpt><trkpt lat="31.1907187197" lon="35.6981878169"><ele>862.44</ele><time>2015-11-21T12:50:03Z</time></trkpt><trkpt lat="31.1909467075" lon="35.6981051713"><ele>864.36</ele><time>2015-11-21T12:50:17Z</time></trkpt><trkpt lat="31.1911799759" lon="35.6980383676"><ele>865.80</ele><time>2015-11-21T12:50:31Z</time></trkpt><trkpt lat="31.1915143300" lon="35.6979126390"><ele>868.69</ele><time>2015-11-21T12:50:51Z</time></trkpt><trkpt lat="31.1917851493" lon="35.6978057697"><ele>871.09</ele><time>2015-11-21T12:51:07Z</time></trkpt><trkpt lat="31.1920286436" lon="35.6977132335"><ele>873.98</ele><time>2015-11-21T12:51:23Z</time></trkpt><trkpt lat="31.1922297254" lon="35.6976296660"><ele>875.42</ele><time>2015-11-21T12:51:37Z</time></trkpt><trkpt lat="31.1924645025" lon="35.6975376327"><ele>877.82</ele><time>2015-11-21T12:51:53Z</time></trkpt><trkpt lat="31.1925631575" lon="35.6975058652"><ele>879.26</ele><time>2015-11-21T12:52:00Z</time></trkpt><trkpt lat="31.1925791670" lon="35.6975058652"><ele>879.26</ele><time>2015-11-21T12:52:01Z</time></trkpt><trkpt lat="31.1928192247" lon="35.6975314301"><ele>882.15</ele><time>2015-11-21T12:52:17Z</time></trkpt><trkpt lat="31.1929474678" lon="35.6976672169"><ele>883.59</ele><time>2015-11-21T12:52:29Z</time></trkpt><trkpt lat="31.1929614656" lon="35.6976745091"><ele>884.07</ele><time>2015-11-21T12:52:30Z</time></trkpt><trkpt lat="31.1929821689" lon="35.6976769399"><ele>884.07</ele><time>2015-11-21T12:52:31Z</time></trkpt><trkpt lat="31.1930053029" lon="35.6976813823"><ele>884.55</ele><time>2015-11-21T12:52:32Z</time></trkpt><trkpt lat="31.1930233240" lon="35.6976806279"><ele>884.55</ele><time>2015-11-21T12:52:33Z</time></trkpt><trkpt lat="31.1930365674" lon="35.6976764370"><ele>884.55</ele><time>2015-11-21T12:52:34Z</time></trkpt><trkpt lat="31.1930503137" lon="35.6976761017"><ele>884.55</ele><time>2015-11-21T12:52:35Z</time></trkpt><trkpt lat="31.1931348871" lon="35.6976926140"><ele>885.03</ele><time>2015-11-21T12:52:48Z</time></trkpt><trkpt lat="31.1931518186" lon="35.6976921111"><ele>884.55</ele><time>2015-11-21T12:53:04Z</time></trkpt><trkpt lat="31.1931390781" lon="35.6977014150"><ele>885.03</ele><time>2015-11-21T12:53:18Z</time></trkpt><trkpt lat="31.1931440234" lon="35.6977101322"><ele>885.03</ele><time>2015-11-21T12:53:35Z</time></trkpt><trkpt lat="31.1931408383" lon="35.6977170054"><ele>884.07</ele><time>2015-11-21T12:53:53Z</time></trkpt><trkpt lat="31.1931269243" lon="35.6977205258"><ele>884.55</ele><time>2015-11-21T12:54:36Z</time></trkpt><trkpt lat="31.1931445263" lon="35.6977329310"><ele>885.03</ele><time>2015-11-21T12:55:21Z</time></trkpt><trkpt lat="31.1931234039" lon="35.6977454200"><ele>885.03</ele><time>2015-11-21T12:55:59Z</time></trkpt><trkpt lat="31.1931197997" lon="35.6977368705"><ele>885.99</ele><time>2015-11-21T12:56:48Z</time></trkpt><trkpt lat="31.1931452807" lon="35.6977297459"><ele>885.99</ele><time>2015-11-21T12:57:22Z</time></trkpt><trkpt lat="31.1931557581" lon="35.6977214478"><ele>886.47</ele><time>2015-11-21T12:58:03Z</time></trkpt><trkpt lat="31.1931561772" lon="35.6977054384"><ele>886.95</ele><time>2015-11-21T12:58:42Z</time></trkpt><trkpt lat="31.1931481306" lon="35.6977199391"><ele>886.95</ele><time>2015-11-21T12:59:30Z</time></trkpt><trkpt lat="31.1931555904" lon="35.6977055222"><ele>886.95</ele><time>2015-11-21T13:00:10Z</time></trkpt><trkpt lat="31.1931624636" lon="35.6977081206"><ele>886.95</ele><time>2015-11-21T13:00:49Z</time></trkpt><trkpt lat="31.1931536626" lon="35.6976921111"><ele>887.43</ele><time>2015-11-21T13:01:30Z</time></trkpt><trkpt lat="31.1931278463" lon="35.6976852380"><ele>887.91</ele><time>2015-11-21T13:01:52Z</time></trkpt><trkpt lat="31.1931207217" lon="35.6976974756"><ele>887.91</ele><time>2015-11-21T13:02:01Z</time></trkpt><trkpt lat="31.1929518264" lon="35.6979272235"><ele>887.91</ele><time>2015-11-21T13:02:13Z</time></trkpt><trkpt lat="31.1927331425" lon="35.6981364358"><ele>888.88</ele><time>2015-11-21T13:02:28Z</time></trkpt><trkpt lat="31.1924727168" lon="35.6983015593"><ele>890.80</ele><time>2015-11-21T13:02:43Z</time></trkpt><trkpt lat="31.1922070105" lon="35.6984545290"><ele>892.72</ele><time>2015-11-21T13:02:59Z</time></trkpt><trkpt lat="31.1919693835" lon="35.6985810120"><ele>894.16</ele><time>2015-11-21T13:03:14Z</time></trkpt><trkpt lat="31.1917142384" lon="35.6987320539"><ele>895.61</ele><time>2015-11-21T13:03:32Z</time></trkpt><trkpt lat="31.1915014219" lon="35.6988436170"><ele>898.01</ele><time>2015-11-21T13:03:47Z</time></trkpt><trkpt lat="31.1913191155" lon="35.6989540905"><ele>901.37</ele><time>2015-11-21T13:04:00Z</time></trkpt><trkpt lat="31.1913026869" lon="35.6989619695"><ele>901.37</ele><time>2015-11-21T13:04:01Z</time></trkpt><trkpt lat="31.1912870128" lon="35.6989700999"><ele>900.89</ele><time>2015-11-21T13:04:02Z</time></trkpt><trkpt lat="31.1912746914" lon="35.6989774760"><ele>901.37</ele><time>2015-11-21T13:04:03Z</time></trkpt><trkpt lat="31.1912644655" lon="35.6989863608"><ele>901.37</ele><time>2015-11-21T13:04:04Z</time></trkpt><trkpt lat="31.1912515573" lon="35.6989950780"><ele>900.89</ele><time>2015-11-21T13:04:05Z</time></trkpt><trkpt lat="31.1912388168" lon="35.6990024541"><ele>901.37</ele><time>2015-11-21T13:04:06Z</time></trkpt><trkpt lat="31.1910513975" lon="35.6991045456"><ele>902.82</ele><time>2015-11-21T13:04:20Z</time></trkpt><trkpt lat="31.1908590328" lon="35.6992136780"><ele>905.22</ele><time>2015-11-21T13:04:35Z</time></trkpt><trkpt lat="31.1906727031" lon="35.6993070524"><ele>906.66</ele><time>2015-11-21T13:04:50Z</time></trkpt><trkpt lat="31.1905007064" lon="35.6993798912"><ele>909.06</ele><time>2015-11-21T13:05:05Z</time></trkpt><trkpt lat="31.1902851239" lon="35.6995010097"><ele>911.47</ele><time>2015-11-21T13:05:22Z</time></trkpt><trkpt lat="31.1902101059" lon="35.6995322742"><ele>912.43</ele><time>2015-11-21T13:05:28Z</time></trkpt><trkpt lat="31.1901969463" lon="35.6995370518"><ele>912.43</ele><time>2015-11-21T13:05:29Z</time></trkpt><trkpt lat="31.1901840381" lon="35.6995456852"><ele>912.91</ele><time>2015-11-21T13:05:30Z</time></trkpt><trkpt lat="31.1901722196" lon="35.6995543186"><ele>912.91</ele><time>2015-11-21T13:05:31Z</time></trkpt><trkpt lat="31.1901583057" lon="35.6995645445"><ele>912.91</ele><time>2015-11-21T13:05:32Z</time></trkpt><trkpt lat="31.1899717245" lon="35.6997081265"><ele>916.27</ele><time>2015-11-21T13:05:48Z</time></trkpt><trkpt lat="31.1898187548" lon="35.6998710707"><ele>918.20</ele><time>2015-11-21T13:06:03Z</time></trkpt><trkpt lat="31.1896863207" lon="35.7000743318"><ele>920.12</ele><time>2015-11-21T13:06:19Z</time></trkpt><trkpt lat="31.1895427387" lon="35.7003181614"><ele>922.52</ele><time>2015-11-21T13:06:37Z</time></trkpt><trkpt lat="31.1894356180" lon="35.7005204167"><ele>924.45</ele><time>2015-11-21T13:06:52Z</time></trkpt><trkpt lat="31.1893137451" lon="35.7007547747"><ele>927.33</ele><time>2015-11-21T13:07:08Z</time></trkpt><trkpt lat="31.1891883519" lon="35.7009921502"><ele>929.73</ele><time>2015-11-21T13:07:25Z</time></trkpt><trkpt lat="31.1891799700" lon="35.7010036334"><ele>929.73</ele><time>2015-11-21T13:07:26Z</time></trkpt><trkpt lat="31.1891726777" lon="35.7010163739"><ele>929.73</ele><time>2015-11-21T13:07:27Z</time></trkpt><trkpt lat="31.1891632900" lon="35.7010296173"><ele>929.73</ele><time>2015-11-21T13:07:28Z</time></trkpt><trkpt lat="31.1891540699" lon="35.7010448724"><ele>930.21</ele><time>2015-11-21T13:07:29Z</time></trkpt><trkpt lat="31.1890294310" lon="35.7012439426"><ele>932.62</ele><time>2015-11-21T13:07:45Z</time></trkpt><trkpt lat="31.1889247410" lon="35.7013580203"><ele>934.54</ele><time>2015-11-21T13:07:55Z</time></trkpt><trkpt lat="31.1887200549" lon="35.7014902867"><ele>936.94</ele><time>2015-11-21T13:08:11Z</time></trkpt><trkpt lat="31.1885799095" lon="35.7015687414"><ele>937.90</ele><time>2015-11-21T13:08:22Z</time></trkpt><trkpt lat="31.1885665823" lon="35.7015762012"><ele>937.90</ele><time>2015-11-21T13:08:23Z</time></trkpt><trkpt lat="31.1885535903" lon="35.7015863433"><ele>938.38</ele><time>2015-11-21T13:08:24Z</time></trkpt><trkpt lat="31.1885390896" lon="35.7015943062"><ele>938.38</ele><time>2015-11-21T13:08:25Z</time></trkpt><trkpt lat="31.1885254271" lon="35.7016039453"><ele>938.38</ele><time>2015-11-21T13:08:26Z</time></trkpt><trkpt lat="31.1885108426" lon="35.7016138360"><ele>938.86</ele><time>2015-11-21T13:08:27Z</time></trkpt><trkpt lat="31.1884966772" lon="35.7016229723"><ele>938.86</ele><time>2015-11-21T13:08:28Z</time></trkpt><trkpt lat="31.1884820927" lon="35.7016298454"><ele>938.86</ele><time>2015-11-21T13:08:29Z</time></trkpt><trkpt lat="31.1884671729" lon="35.7016370539"><ele>938.86</ele><time>2015-11-21T13:08:30Z</time></trkpt><trkpt lat="31.1884525884" lon="35.7016453519"><ele>939.35</ele><time>2015-11-21T13:08:31Z</time></trkpt><trkpt lat="31.1884391773" lon="35.7016537338"><ele>939.83</ele><time>2015-11-21T13:08:32Z</time></trkpt><trkpt lat="31.1884258501" lon="35.7016602717"><ele>939.83</ele><time>2015-11-21T13:08:33Z</time></trkpt><trkpt lat="31.1882366706" lon="35.7017715834"><ele>941.75</ele><time>2015-11-21T13:08:47Z</time></trkpt><trkpt lat="31.1882237624" lon="35.7017786242"><ele>941.75</ele><time>2015-11-21T13:08:48Z</time></trkpt><trkpt lat="31.1882101838" lon="35.7017857488"><ele>941.75</ele><time>2015-11-21T13:08:49Z</time></trkpt><trkpt lat="31.1881988682" lon="35.7017958909"><ele>941.75</ele><time>2015-11-21T13:08:50Z</time></trkpt><trkpt lat="31.1881862953" lon="35.7018055301"><ele>942.23</ele><time>2015-11-21T13:08:51Z</time></trkpt><trkpt lat="31.1881722976" lon="35.7018142473"><ele>942.23</ele><time>2015-11-21T13:08:52Z</time></trkpt><trkpt lat="31.1879280489" lon="35.7019549794"><ele>945.11</ele><time>2015-11-21T13:09:10Z</time></trkpt><trkpt lat="31.1878098641" lon="35.7020309195"><ele>946.07</ele><time>2015-11-21T13:09:19Z</time></trkpt><trkpt lat="31.1877963692" lon="35.7020377927"><ele>945.59</ele><time>2015-11-21T13:09:20Z</time></trkpt><trkpt lat="31.1877850536" lon="35.7020469289"><ele>946.07</ele><time>2015-11-21T13:09:21Z</time></trkpt><trkpt lat="31.1876681261" lon="35.7021695562"><ele>948.48</ele><time>2015-11-21T13:09:32Z</time></trkpt><trkpt lat="31.1876583192" lon="35.7021827158"><ele>948.48</ele><time>2015-11-21T13:09:33Z</time></trkpt><trkpt lat="31.1876363587" lon="35.7022179198"><ele>948.96</ele><time>2015-11-21T13:09:36Z</time></trkpt><trkpt lat="31.1876328383" lon="35.7022314146"><ele>949.44</ele><time>2015-11-21T13:09:37Z</time></trkpt><trkpt lat="31.1876279768" lon="35.7022565603"><ele>949.44</ele><time>2015-11-21T13:09:39Z</time></trkpt><trkpt lat="31.1876273900" lon="35.7022720668"><ele>949.92</ele><time>2015-11-21T13:09:40Z</time></trkpt><trkpt lat="31.1876263004" lon="35.7022867352"><ele>949.92</ele><time>2015-11-21T13:09:41Z</time></trkpt><trkpt lat="31.1876480933" lon="35.7024257910"><ele>951.36</ele><time>2015-11-21T13:09:49Z</time></trkpt><trkpt lat="31.1876563076" lon="35.7024661917"><ele>951.84</ele><time>2015-11-21T13:09:51Z</time></trkpt><trkpt lat="31.1877578963" lon="35.7026904915"><ele>953.28</ele><time>2015-11-21T13:10:05Z</time></trkpt><trkpt lat="31.1879237741" lon="35.7030354068"><ele>956.17</ele><time>2015-11-21T13:10:25Z</time></trkpt><trkpt lat="31.1880087666" lon="35.7032989338"><ele>958.57</ele><time>2015-11-21T13:10:40Z</time></trkpt><trkpt lat="31.1880750675" lon="35.7035743631"><ele>960.98</ele><time>2015-11-21T13:10:54Z</time></trkpt><trkpt lat="31.1881535221" lon="35.7038215455"><ele>961.94</ele><time>2015-11-21T13:11:08Z</time></trkpt><trkpt lat="31.1882564519" lon="35.7041165046"><ele>964.34</ele><time>2015-11-21T13:11:25Z</time></trkpt><trkpt lat="31.1883064080" lon="35.7042393833"><ele>965.78</ele><time>2015-11-21T13:11:32Z</time></trkpt><trkpt lat="31.1883459706" lon="35.7044920139"><ele>968.18</ele><time>2015-11-21T13:11:45Z</time></trkpt><trkpt lat="31.1883321404" lon="35.7045262121"><ele>968.67</ele><time>2015-11-21T13:11:47Z</time></trkpt><trkpt lat="31.1883183941" lon="35.7045400422"><ele>969.15</ele><time>2015-11-21T13:11:48Z</time></trkpt><trkpt lat="31.1882863753" lon="35.7045523636"><ele>969.15</ele><time>2015-11-21T13:11:50Z</time></trkpt><trkpt lat="31.1882139556" lon="35.7045158185"><ele>971.07</ele><time>2015-11-21T13:11:55Z</time></trkpt><trkpt lat="31.1882017180" lon="35.7044947799"><ele>971.55</ele><time>2015-11-21T13:11:56Z</time></trkpt><trkpt lat="31.1881914921" lon="35.7044739928"><ele>971.55</ele><time>2015-11-21T13:11:57Z</time></trkpt><trkpt lat="31.1881539412" lon="35.7043843064"><ele>972.03</ele><time>2015-11-21T13:12:08Z</time></trkpt><trkpt lat="31.1880732235" lon="35.7042045146"><ele>972.99</ele><time>2015-11-21T13:12:21Z</time></trkpt><trkpt lat="31.1879621632" lon="35.7039247267"><ele>974.43</ele><time>2015-11-21T13:12:36Z</time></trkpt><trkpt lat="31.1878100317" lon="35.7036659773"><ele>974.43</ele><time>2015-11-21T13:12:52Z</time></trkpt><trkpt lat="31.1876523681" lon="35.7034700923"><ele>974.91</ele><time>2015-11-21T13:13:05Z</time></trkpt><trkpt lat="31.1873470992" lon="35.7032725308"><ele>975.39</ele><time>2015-11-21T13:13:18Z</time></trkpt><trkpt lat="31.1869884375" lon="35.7030400168"><ele>975.88</ele><time>2015-11-21T13:13:32Z</time></trkpt><trkpt lat="31.1866947357" lon="35.7028812636"><ele>977.80</ele><time>2015-11-21T13:13:45Z</time></trkpt><trkpt lat="31.1866283510" lon="35.7027707063"><ele>978.28</ele><time>2015-11-21T13:13:56Z</time></trkpt><trkpt lat="31.1866255850" lon="35.7027532719"><ele>978.28</ele><time>2015-11-21T13:14:01Z</time></trkpt><trkpt lat="31.1866187956" lon="35.7027399447"><ele>978.28</ele><time>2015-11-21T13:14:02Z</time></trkpt><trkpt lat="31.1866111681" lon="35.7027251087"><ele>978.28</ele><time>2015-11-21T13:14:03Z</time></trkpt><trkpt lat="31.1866019480" lon="35.7027095184"><ele>978.28</ele><time>2015-11-21T13:14:04Z</time></trkpt><trkpt lat="31.1865916383" lon="35.7026908267"><ele>978.28</ele><time>2015-11-21T13:14:05Z</time></trkpt><trkpt lat="31.1865826696" lon="35.7026658487"><ele>978.28</ele><time>2015-11-21T13:14:06Z</time></trkpt><trkpt lat="31.1865757965" lon="35.7026384398"><ele>978.76</ele><time>2015-11-21T13:14:07Z</time></trkpt><trkpt lat="31.1865706835" lon="35.7026111148"><ele>978.76</ele><time>2015-11-21T13:14:08Z</time></trkpt><trkpt lat="31.1865664925" lon="35.7025844604"><ele>978.76</ele><time>2015-11-21T13:14:09Z</time></trkpt><trkpt lat="31.1865598708" lon="35.7025549561"><ele>978.76</ele><time>2015-11-21T13:14:10Z</time></trkpt><trkpt lat="31.1865772214" lon="35.7021480147"><ele>980.68</ele><time>2015-11-21T13:14:21Z</time></trkpt><trkpt lat="31.1865819152" lon="35.7020801213"><ele>981.64</ele><time>2015-11-21T13:14:24Z</time></trkpt><trkpt lat="31.1865672469" lon="35.7020669617"><ele>982.12</ele><time>2015-11-21T13:14:25Z</time></trkpt><trkpt lat="31.1865499802" lon="35.7020636927"><ele>982.60</ele><time>2015-11-21T13:14:26Z</time></trkpt><trkpt lat="31.1865333840" lon="35.7020666264"><ele>982.60</ele><time>2015-11-21T13:14:27Z</time></trkpt><trkpt lat="31.1865172908" lon="35.7020704821"><ele>982.60</ele><time>2015-11-21T13:14:28Z</time></trkpt><trkpt lat="31.1865037121" lon="35.7020750083"><ele>982.60</ele><time>2015-11-21T13:14:29Z</time></trkpt><trkpt lat="31.1864908878" lon="35.7020808756"><ele>983.09</ele><time>2015-11-21T13:14:30Z</time></trkpt><trkpt lat="31.1864795722" lon="35.7020911854"><ele>983.09</ele><time>2015-11-21T13:14:31Z</time></trkpt><trkpt lat="31.1864729505" lon="35.7021023333"><ele>982.60</ele><time>2015-11-21T13:14:32Z</time></trkpt><trkpt lat="31.1863519996" lon="35.7023294829"><ele>985.01</ele><time>2015-11-21T13:14:45Z</time></trkpt><trkpt lat="31.1861946713" lon="35.7025789283"><ele>986.45</ele><time>2015-11-21T13:14:58Z</time></trkpt><trkpt lat="31.1861344893" lon="35.7027124520"><ele>987.41</ele><time>2015-11-21T13:15:04Z</time></trkpt><trkpt lat="31.1861218326" lon="35.7027299702"><ele>987.89</ele><time>2015-11-21T13:15:05Z</time></trkpt><trkpt lat="31.1861099303" lon="35.7027502544"><ele>987.89</ele><time>2015-11-21T13:15:06Z</time></trkpt><trkpt lat="31.1860997882" lon="35.7027719636"><ele>987.89</ele><time>2015-11-21T13:15:07Z</time></trkpt><trkpt lat="31.1860845331" lon="35.7027918287"><ele>987.89</ele><time>2015-11-21T13:15:08Z</time></trkpt><trkpt lat="31.1860674340" lon="35.7028137892"><ele>987.89</ele><time>2015-11-21T13:15:09Z</time></trkpt><trkpt lat="31.1860516760" lon="35.7028363366"><ele>988.37</ele><time>2015-11-21T13:15:10Z</time></trkpt><trkpt lat="31.1860352475" lon="35.7028558664"><ele>988.37</ele><time>2015-11-21T13:15:11Z</time></trkpt><trkpt lat="31.1858967785" lon="35.7031168789"><ele>990.78</ele><time>2015-11-21T13:15:24Z</time></trkpt><trkpt lat="31.1858782545" lon="35.7031835150"><ele>991.26</ele><time>2015-11-21T13:15:37Z</time></trkpt><trkpt lat="31.1858833674" lon="35.7032214012"><ele>991.74</ele><time>2015-11-21T13:16:03Z</time></trkpt><trkpt lat="31.1858363450" lon="35.7032711897"><ele>992.22</ele><time>2015-11-21T13:16:31Z</time></trkpt><trkpt lat="31.1857569683" lon="35.7034557592"><ele>993.66</ele><time>2015-11-21T13:16:44Z</time></trkpt><trkpt lat="31.1856133863" lon="35.7039498724"><ele>994.62</ele><time>2015-11-21T13:16:59Z</time></trkpt><trkpt lat="31.1855211854" lon="35.7043034211"><ele>996.06</ele><time>2015-11-21T13:17:12Z</time></trkpt><trkpt lat="31.1853921041" lon="35.7048006356"><ele>997.51</ele><time>2015-11-21T13:17:26Z</time></trkpt><trkpt lat="31.1853112187" lon="35.7051057369"><ele>998.95</ele><time>2015-11-21T13:17:38Z</time></trkpt><trkpt lat="31.1852845643" lon="35.7052488998"><ele>999.43</ele><time>2015-11-21T13:17:47Z</time></trkpt><trkpt lat="31.1852865759" lon="35.7052596286"><ele>999.43</ele><time>2015-11-21T13:17:48Z</time></trkpt><trkpt lat="31.1852885876" lon="35.7052722853"><ele>999.43</ele><time>2015-11-21T13:17:49Z</time></trkpt><trkpt lat="31.1852875818" lon="35.7052848581"><ele>999.43</ele><time>2015-11-21T13:17:50Z</time></trkpt><trkpt lat="31.1852664594" lon="35.7054322120"><ele>999.43</ele><time>2015-11-21T13:18:01Z</time></trkpt><trkpt lat="31.1852564011" lon="35.7055513188"><ele>999.91</ele><time>2015-11-21T13:18:08Z</time></trkpt><trkpt lat="31.1852280702" lon="35.7056809869"><ele>999.43</ele><time>2015-11-21T13:18:19Z</time></trkpt><trkpt lat="31.1852222867" lon="35.7056915481"><ele>999.43</ele><time>2015-11-21T13:18:20Z</time></trkpt><trkpt lat="31.1852171738" lon="35.7057011034"><ele>999.91</ele><time>2015-11-21T13:18:21Z</time></trkpt><trkpt lat="31.1852110550" lon="35.7057109941"><ele>999.91</ele><time>2015-11-21T13:18:22Z</time></trkpt><trkpt lat="31.1852043495" lon="35.7057226449"><ele>999.43</ele><time>2015-11-21T13:18:23Z</time></trkpt><trkpt lat="31.1851950455" lon="35.7057345472"><ele>999.43</ele><time>2015-11-21T13:18:24Z</time></trkpt><trkpt lat="31.1851846520" lon="35.7057485450"><ele>999.43</ele><time>2015-11-21T13:18:25Z</time></trkpt><trkpt lat="31.1851755995" lon="35.7057649735"><ele>999.91</ele><time>2015-11-21T13:18:26Z</time></trkpt><trkpt lat="31.1850324366" lon="35.7060156763"><ele>999.91</ele><time>2015-11-21T13:18:39Z</time></trkpt><trkpt lat="31.1849590112" lon="35.7061144989"><ele>999.43</ele><time>2015-11-21T13:18:52Z</time></trkpt><trkpt lat="31.1849494558" lon="35.7061774470"><ele>999.43</ele><time>2015-11-21T13:18:57Z</time></trkpt><trkpt lat="31.1849447619" lon="35.7061958872"><ele>999.43</ele><time>2015-11-21T13:18:58Z</time></trkpt><trkpt lat="31.1849397328" lon="35.7062151656"><ele>999.43</ele><time>2015-11-21T13:18:59Z</time></trkpt><trkpt lat="31.1849327758" lon="35.7062372100"><ele>999.43</ele><time>2015-11-21T13:19:00Z</time></trkpt><trkpt lat="31.1849148385" lon="35.7062928658"><ele>999.43</ele><time>2015-11-21T13:19:07Z</time></trkpt><trkpt lat="31.1849062890" lon="35.7063067798"><ele>999.43</ele><time>2015-11-21T13:19:08Z</time></trkpt><trkpt lat="31.1848969012" lon="35.7063214481"><ele>999.43</ele><time>2015-11-21T13:19:09Z</time></trkpt><trkpt lat="31.1848905310" lon="35.7063384634"><ele>999.43</ele><time>2015-11-21T13:19:10Z</time></trkpt><trkpt lat="31.1848850828" lon="35.7063571550"><ele>999.43</ele><time>2015-11-21T13:19:11Z</time></trkpt><trkpt lat="31.1848765332" lon="35.7063765172"><ele>999.43</ele><time>2015-11-21T13:19:12Z</time></trkpt><trkpt lat="31.1847005133" lon="35.7067307364"><ele>998.95</ele><time>2015-11-21T13:19:26Z</time></trkpt><trkpt lat="31.1846398283" lon="35.7068141364"><ele>998.47</ele><time>2015-11-21T13:19:29Z</time></trkpt><trkpt lat="31.1846119165" lon="35.7068194170"><ele>997.99</ele><time>2015-11-21T13:19:30Z</time></trkpt><trkpt lat="31.1845830828" lon="35.7068158966"><ele>997.99</ele><time>2015-11-21T13:19:31Z</time></trkpt><trkpt lat="31.1845539976" lon="35.7068066765"><ele>997.99</ele><time>2015-11-21T13:19:32Z</time></trkpt><trkpt lat="31.1845254991" lon="35.7067946065"><ele>997.99</ele><time>2015-11-21T13:19:33Z</time></trkpt><trkpt lat="31.1840329785" lon="35.7066216879"><ele>996.54</ele><time>2015-11-21T13:19:48Z</time></trkpt><trkpt lat="31.1838769075" lon="35.7065911777"><ele>996.06</ele><time>2015-11-21T13:19:53Z</time></trkpt><trkpt lat="31.1838572938" lon="35.7066025771"><ele>995.58</ele><time>2015-11-21T13:19:54Z</time></trkpt><trkpt lat="31.1838412005" lon="35.7066186704"><ele>995.10</ele><time>2015-11-21T13:19:55Z</time></trkpt><trkpt lat="31.1838285439" lon="35.7066358533"><ele>995.10</ele><time>2015-11-21T13:19:56Z</time></trkpt><trkpt lat="31.1838167254" lon="35.7066559698"><ele>995.10</ele><time>2015-11-21T13:19:57Z</time></trkpt><trkpt lat="31.1836353410" lon="35.7069530245"><ele>991.74</ele><time>2015-11-21T13:20:08Z</time></trkpt><trkpt lat="31.1835153122" lon="35.7071408629"><ele>988.85</ele><time>2015-11-21T13:20:16Z</time></trkpt><trkpt lat="31.1834142264" lon="35.7072986942"><ele>985.49</ele><time>2015-11-21T13:20:23Z</time></trkpt><trkpt lat="31.1833348498" lon="35.7074242551"><ele>982.60</ele><time>2015-11-21T13:20:30Z</time></trkpt><trkpt lat="31.1833022442" lon="35.7074539270"><ele>982.12</ele><time>2015-11-21T13:20:38Z</time></trkpt><trkpt lat="31.1832861509" lon="35.7074405160"><ele>982.12</ele><time>2015-11-21T13:20:39Z</time></trkpt><trkpt lat="31.1832718179" lon="35.7074249256"><ele>981.64</ele><time>2015-11-21T13:20:40Z</time></trkpt><trkpt lat="31.1831596680" lon="35.7073118538"><ele>980.68</ele><time>2015-11-21T13:20:51Z</time></trkpt><trkpt lat="31.1829819717" lon="35.7070920803"><ele>978.76</ele><time>2015-11-21T13:21:02Z</time></trkpt><trkpt lat="31.1829155032" lon="35.7070293836"><ele>977.80</ele><time>2015-11-21T13:21:09Z</time></trkpt><trkpt lat="31.1828788742" lon="35.7069898210"><ele>977.80</ele><time>2015-11-21T13:21:13Z</time></trkpt><trkpt lat="31.1828637868" lon="35.7069833670"><ele>977.32</ele><time>2015-11-21T13:21:14Z</time></trkpt><trkpt lat="31.1828471068" lon="35.7069823612"><ele>977.32</ele><time>2015-11-21T13:21:15Z</time></trkpt><trkpt lat="31.1828324385" lon="35.7069828641"><ele>976.84</ele><time>2015-11-21T13:21:16Z</time></trkpt><trkpt lat="31.1828205362" lon="35.7069795951"><ele>976.84</ele><time>2015-11-21T13:21:17Z</time></trkpt><trkpt lat="31.1827822309" lon="35.7069651783"><ele>977.32</ele><time>2015-11-21T13:21:30Z</time></trkpt><trkpt lat="31.1827684846" lon="35.7069716323"><ele>977.80</ele><time>2015-11-21T13:21:32Z</time></trkpt><trkpt lat="31.1827554088" lon="35.7069769967"><ele>978.28</ele><time>2015-11-21T13:21:33Z</time></trkpt><trkpt lat="31.1827428360" lon="35.7069814391"><ele>977.32</ele><time>2015-11-21T13:21:34Z</time></trkpt><trkpt lat="31.1827305146" lon="35.7069865521"><ele>976.36</ele><time>2015-11-21T13:21:35Z</time></trkpt><trkpt lat="31.1827142537" lon="35.7069970295"><ele>975.88</ele><time>2015-11-21T13:21:36Z</time></trkpt><trkpt lat="31.1826935504" lon="35.7070132066"><ele>975.88</ele><time>2015-11-21T13:21:37Z</time></trkpt><trkpt lat="31.1826703325" lon="35.7070334908"><ele>975.88</ele><time>2015-11-21T13:21:38Z</time></trkpt><trkpt lat="31.1826267466" lon="35.7070899010"><ele>975.88</ele><time>2015-11-21T13:21:41Z</time></trkpt><trkpt lat="31.1826213822" lon="35.7070956007"><ele>975.39</ele><time>2015-11-21T13:21:54Z</time></trkpt><trkpt lat="31.1826065462" lon="35.7071204949"><ele>975.88</ele><time>2015-11-21T13:22:24Z</time></trkpt><trkpt lat="31.1826116592" lon="35.7071352471"><ele>975.39</ele><time>2015-11-21T13:22:30Z</time></trkpt><trkpt lat="31.1826104857" lon="35.7071574591"><ele>975.39</ele><time>2015-11-21T13:22:31Z</time></trkpt><trkpt lat="31.1826092284" lon="35.7071797550"><ele>975.39</ele><time>2015-11-21T13:22:32Z</time></trkpt><trkpt lat="31.1826739367" lon="35.7074164599"><ele>972.51</ele><time>2015-11-21T13:22:39Z</time></trkpt><trkpt lat="31.1826990824" lon="35.7074526697"><ele>972.51</ele><time>2015-11-21T13:22:40Z</time></trkpt><trkpt lat="31.1827707477" lon="35.7075399254"><ele>971.07</ele><time>2015-11-21T13:22:49Z</time></trkpt><trkpt lat="31.1827668920" lon="35.7075357344"><ele>971.07</ele><time>2015-11-21T13:23:18Z</time></trkpt><trkpt lat="31.1827621143" lon="35.7075467985"><ele>971.07</ele><time>2015-11-21T13:23:43Z</time></trkpt><trkpt lat="31.1827712506" lon="35.7075473014"><ele>971.07</ele><time>2015-11-21T13:24:12Z</time></trkpt><trkpt lat="31.1827371363" lon="35.7075251732"><ele>972.03</ele><time>2015-11-21T13:24:25Z</time></trkpt><trkpt lat="31.1827299278" lon="35.7075076550"><ele>972.03</ele><time>2015-11-21T13:24:53Z</time></trkpt><trkpt lat="31.1827014294" lon="35.7075376622"><ele>971.07</ele><time>2015-11-21T13:25:21Z</time></trkpt><trkpt lat="31.1827103980" lon="35.7075421046"><ele>971.55</ele><time>2015-11-21T13:25:48Z</time></trkpt><trkpt lat="31.1827129964" lon="35.7075283583"><ele>971.55</ele><time>2015-11-21T13:26:16Z</time></trkpt><trkpt lat="31.1826956458" lon="35.7074934896"><ele>972.03</ele><time>2015-11-21T13:26:26Z</time></trkpt><trkpt lat="31.1826898623" lon="35.7074820902"><ele>972.03</ele><time>2015-11-21T13:26:27Z</time></trkpt><trkpt lat="31.1826847494" lon="35.7074694335"><ele>972.03</ele><time>2015-11-21T13:26:28Z</time></trkpt><trkpt lat="31.1826115754" lon="35.7072768174"><ele>974.43</ele><time>2015-11-21T13:26:49Z</time></trkpt><trkpt lat="31.1825990025" lon="35.7071497478"><ele>975.39</ele><time>2015-11-21T13:27:11Z</time></trkpt><trkpt lat="31.1826067977" lon="35.7070626598"><ele>975.39</ele><time>2015-11-21T13:27:24Z</time></trkpt><trkpt lat="31.1826140061" lon="35.7069857139"><ele>975.39</ele><time>2015-11-21T13:27:41Z</time></trkpt><trkpt lat="31.1826290935" lon="35.7069137134"><ele>973.95</ele><time>2015-11-21T13:27:59Z</time></trkpt><trkpt lat="31.1826356314" lon="35.7068977039"><ele>973.95</ele><time>2015-11-21T13:28:00Z</time></trkpt><trkpt lat="31.1826393194" lon="35.7068777550"><ele>973.47</ele><time>2015-11-21T13:28:01Z</time></trkpt><trkpt lat="31.1826453544" lon="35.7068526093"><ele>973.47</ele><time>2015-11-21T13:28:02Z</time></trkpt><trkpt lat="31.1826493777" lon="35.7068250328"><ele>972.99</ele><time>2015-11-21T13:28:03Z</time></trkpt><trkpt lat="31.1826506350" lon="35.7067995518"><ele>972.51</ele><time>2015-11-21T13:28:04Z</time></trkpt><trkpt lat="31.1826449353" lon="35.7067789324"><ele>972.51</ele><time>2015-11-21T13:28:05Z</time></trkpt><trkpt lat="31.1825941410" lon="35.7065035030"><ele>970.59</ele><time>2015-11-21T13:28:15Z</time></trkpt><trkpt lat="31.1825690791" lon="35.7064657006"><ele>970.11</ele><time>2015-11-21T13:28:16Z</time></trkpt><trkpt lat="31.1825409159" lon="35.7064269762"><ele>970.11</ele><time>2015-11-21T13:28:17Z</time></trkpt><trkpt lat="31.1825166922" lon="35.7063892577"><ele>970.11</ele><time>2015-11-21T13:28:18Z</time></trkpt><trkpt lat="31.1822827533" lon="35.7058134209"><ele>970.11</ele><time>2015-11-21T13:28:33Z</time></trkpt><trkpt lat="31.1822819989" lon="35.7056942303"><ele>972.03</ele><time>2015-11-21T13:28:42Z</time></trkpt><trkpt lat="31.1823042948" lon="35.7055467088"><ele>974.91</ele><time>2015-11-21T13:28:56Z</time></trkpt><trkpt lat="31.1823216453" lon="35.7053709403"><ele>978.28</ele><time>2015-11-21T13:29:13Z</time></trkpt><trkpt lat="31.1823603697" lon="35.7052157074"><ele>981.64</ele><time>2015-11-21T13:29:31Z</time></trkpt><trkpt lat="31.1823825818" lon="35.7051347382"><ele>984.05</ele><time>2015-11-21T13:29:47Z</time></trkpt><trkpt lat="31.1823748704" lon="35.7051383425"><ele>984.05</ele><time>2015-11-21T13:30:04Z</time></trkpt><trkpt lat="31.1823628843" lon="35.7051245123"><ele>984.53</ele><time>2015-11-21T13:30:09Z</time></trkpt><trkpt lat="31.1822470464" lon="35.7050618995"><ele>987.41</ele><time>2015-11-21T13:30:25Z</time></trkpt><trkpt lat="31.1821773089" lon="35.7050005440"><ele>990.30</ele><time>2015-11-21T13:30:39Z</time></trkpt><trkpt lat="31.1821993534" lon="35.7049712073"><ele>989.81</ele><time>2015-11-21T13:30:45Z</time></trkpt><trkpt lat="31.1823134311" lon="35.7049133722"><ele>993.18</ele><time>2015-11-21T13:31:00Z</time></trkpt><trkpt lat="31.1824247427" lon="35.7048906572"><ele>996.06</ele><time>2015-11-21T13:31:15Z</time></trkpt><trkpt lat="31.1825580988" lon="35.7048767433"><ele>998.47</ele><time>2015-11-21T13:31:32Z</time></trkpt><trkpt lat="31.1825911235" lon="35.7048779167"><ele>1000.39</ele><time>2015-11-21T13:31:36Z</time></trkpt><trkpt lat="31.1826979928" lon="35.7048634160"><ele>1001.35</ele><time>2015-11-21T13:31:50Z</time></trkpt><trkpt lat="31.1828331091" lon="35.7048246916"><ele>1002.79</ele><time>2015-11-21T13:32:05Z</time></trkpt><trkpt lat="31.1829678901" lon="35.7047527749"><ele>1005.68</ele><time>2015-11-21T13:32:18Z</time></trkpt><trkpt lat="31.1830056086" lon="35.7046435587"><ele>1007.60</ele><time>2015-11-21T13:32:31Z</time></trkpt><trkpt lat="31.1828740127" lon="35.7045739889"><ele>1009.04</ele><time>2015-11-21T13:32:47Z</time></trkpt><trkpt lat="31.1827870086" lon="35.7044677064"><ele>1010.48</ele><time>2015-11-21T13:33:00Z</time></trkpt><trkpt lat="31.1827584263" lon="35.7044342626"><ele>1010.48</ele><time>2015-11-21T13:33:04Z</time></trkpt><trkpt lat="31.1827451829" lon="35.7044125535"><ele>1010.96</ele><time>2015-11-21T13:33:06Z</time></trkpt><trkpt lat="31.1827284191" lon="35.7043797802"><ele>1011.44</ele><time>2015-11-21T13:33:09Z</time></trkpt><trkpt lat="31.1826169398" lon="35.7042370364"><ele>1012.41</ele><time>2015-11-21T13:33:25Z</time></trkpt><trkpt lat="31.1825538240" lon="35.7041678019"><ele>1013.37</ele><time>2015-11-21T13:33:39Z</time></trkpt><trkpt lat="31.1824691668" lon="35.7041297480"><ele>1013.85</ele><time>2015-11-21T13:33:53Z</time></trkpt><trkpt lat="31.1823348049" lon="35.7040853240"><ele>1014.33</ele><time>2015-11-21T13:34:05Z</time></trkpt><trkpt lat="31.1822874472" lon="35.7040408999"><ele>1014.81</ele><time>2015-11-21T13:34:13Z</time></trkpt><trkpt lat="31.1822696775" lon="35.7039404009"><ele>1015.29</ele><time>2015-11-21T13:34:23Z</time></trkpt><trkpt lat="31.1822733656" lon="35.7038881816"><ele>1016.25</ele><time>2015-11-21T13:34:27Z</time></trkpt><trkpt lat="31.1822785623" lon="35.7038497087"><ele>1016.73</ele><time>2015-11-21T13:34:30Z</time></trkpt><trkpt lat="31.1822763830" lon="35.7038008422"><ele>1017.21</ele><time>2015-11-21T13:34:34Z</time></trkpt><trkpt lat="31.1822902132" lon="35.7036670670"><ele>1018.65</ele><time>2015-11-21T13:34:44Z</time></trkpt><trkpt lat="31.1822797358" lon="35.7036086451"><ele>1019.13</ele><time>2015-11-21T13:34:48Z</time></trkpt><trkpt lat="31.1823178735" lon="35.7033698447"><ele>1020.58</ele><time>2015-11-21T13:35:07Z</time></trkpt><trkpt lat="31.1823652312" lon="35.7031471375"><ele>1021.06</ele><time>2015-11-21T13:35:22Z</time></trkpt><trkpt lat="31.1824071407" lon="35.7030758075"><ele>1021.06</ele><time>2015-11-21T13:35:38Z</time></trkpt><trkpt lat="31.1824324541" lon="35.7029251847"><ele>1022.02</ele><time>2015-11-21T13:35:56Z</time></trkpt><trkpt lat="31.1824337952" lon="35.7028988656"><ele>1021.54</ele><time>2015-11-21T13:35:58Z</time></trkpt><trkpt lat="31.1824438535" lon="35.7028707862"><ele>1022.02</ele><time>2015-11-21T13:36:00Z</time></trkpt><trkpt lat="31.1824845057" lon="35.7026495878"><ele>1022.50</ele><time>2015-11-21T13:36:16Z</time></trkpt><trkpt lat="31.1825420894" lon="35.7025267929"><ele>1022.50</ele><time>2015-11-21T13:36:28Z</time></trkpt><trkpt lat="31.1825683247" lon="35.7024057582"><ele>1022.50</ele><time>2015-11-21T13:36:41Z</time></trkpt><trkpt lat="31.1825586855" lon="35.7023475878"><ele>1022.02</ele><time>2015-11-21T13:36:57Z</time></trkpt><trkpt lat="31.1825538240" lon="35.7023281418"><ele>1022.98</ele><time>2015-11-21T13:37:08Z</time></trkpt><trkpt lat="31.1825903691" lon="35.7022520341"><ele>1022.50</ele><time>2015-11-21T13:37:18Z</time></trkpt><trkpt lat="31.1826041155" lon="35.7021660358"><ele>1021.54</ele><time>2015-11-21T13:37:25Z</time></trkpt><trkpt lat="31.1825520638" lon="35.7021145709"><ele>1021.54</ele><time>2015-11-21T13:37:31Z</time></trkpt><trkpt lat="31.1823192146" lon="35.7020364515"><ele>1022.02</ele><time>2015-11-21T13:37:51Z</time></trkpt><trkpt lat="31.1821478046" lon="35.7019459270"><ele>1022.02</ele><time>2015-11-21T13:38:06Z</time></trkpt><trkpt lat="31.1821594555" lon="35.7019666303"><ele>1021.54</ele><time>2015-11-21T13:38:28Z</time></trkpt><trkpt lat="31.1821581982" lon="35.7019830588"><ele>1022.02</ele><time>2015-11-21T13:38:50Z</time></trkpt><trkpt lat="31.1821504030" lon="35.7019457594"><ele>1022.02</ele><time>2015-11-21T13:39:27Z</time></trkpt><trkpt lat="31.1820728704" lon="35.7018805481"><ele>1022.02</ele><time>2015-11-21T13:39:44Z</time></trkpt><trkpt lat="31.1819513328" lon="35.7017950527"><ele>1021.54</ele><time>2015-11-21T13:40:02Z</time></trkpt><trkpt lat="31.1818734650" lon="35.7016963977"><ele>1021.06</ele><time>2015-11-21T13:40:21Z</time></trkpt><trkpt lat="31.1817231774" lon="35.7016134169"><ele>1021.54</ele><time>2015-11-21T13:40:39Z</time></trkpt><trkpt lat="31.1817182321" lon="35.7016022690"><ele>1021.06</ele><time>2015-11-21T13:40:58Z</time></trkpt><trkpt lat="31.1817409471" lon="35.7015918754"><ele>1021.54</ele><time>2015-11-21T13:41:11Z</time></trkpt><trkpt lat="31.1817068327" lon="35.7015358005"><ele>1020.10</ele><time>2015-11-21T13:41:23Z</time></trkpt><trkpt lat="31.1816596426" lon="35.7014976628"><ele>1020.58</ele><time>2015-11-21T13:41:38Z</time></trkpt><trkpt lat="31.1815831997" lon="35.7015083916"><ele>1022.50</ele><time>2015-11-21T13:41:51Z</time></trkpt><trkpt lat="31.1815214250" lon="35.7014901191"><ele>1023.46</ele><time>2015-11-21T13:42:04Z</time></trkpt><trkpt lat="31.1814649310" lon="35.7014832459"><ele>1025.38</ele><time>2015-11-21T13:42:15Z</time></trkpt><trkpt lat="31.1814107839" lon="35.7014575135"><ele>1025.86</ele><time>2015-11-21T13:42:25Z</time></trkpt><trkpt lat="31.1813810281" lon="35.7014541607"><ele>1026.34</ele><time>2015-11-21T13:42:28Z</time></trkpt><trkpt lat="31.1813074350" lon="35.7014527358"><ele>1027.79</ele><time>2015-11-21T13:42:37Z</time></trkpt><trkpt lat="31.1812516954" lon="35.7014504727"><ele>1029.23</ele><time>2015-11-21T13:42:45Z</time></trkpt><trkpt lat="31.1811973806" lon="35.7014411688"><ele>1029.71</ele><time>2015-11-21T13:42:57Z</time></trkpt><trkpt lat="31.1811915133" lon="35.7014379837"><ele>1029.71</ele><time>2015-11-21T13:42:58Z</time></trkpt><trkpt lat="31.1811489332" lon="35.7014391571"><ele>1030.19</ele><time>2015-11-21T13:43:08Z</time></trkpt><trkpt lat="31.1811662838" lon="35.7013835851"><ele>1029.23</ele><time>2015-11-21T13:43:16Z</time></trkpt><trkpt lat="31.1811677925" lon="35.7013708446"><ele>1030.19</ele><time>2015-11-21T13:43:30Z</time></trkpt><trkpt lat="31.1811664514" lon="35.7013735268"><ele>1029.71</ele><time>2015-11-21T13:43:55Z</time></trkpt><trkpt lat="31.1811706424" lon="35.7013834175"><ele>1026.34</ele><time>2015-11-21T13:44:00Z</time></trkpt><trkpt lat="31.1811700556" lon="35.7013866864"><ele>1030.67</ele><time>2015-11-21T13:44:01Z</time></trkpt><trkpt lat="31.1810916848" lon="35.7014234830"><ele>1030.67</ele><time>2015-11-21T13:44:15Z</time></trkpt><trkpt lat="31.1809774395" lon="35.7014376484"><ele>1030.67</ele><time>2015-11-21T13:44:31Z</time></trkpt><trkpt lat="31.1809725780" lon="35.7014373969"><ele>1030.67</ele><time>2015-11-21T13:44:32Z</time></trkpt><trkpt lat="31.1809285730" lon="35.7014793064"><ele>1030.67</ele><time>2015-11-21T13:44:43Z</time></trkpt><trkpt lat="31.1809285730" lon="35.7014985010"><ele>1030.67</ele><time>2015-11-21T13:44:57Z</time></trkpt><trkpt lat="31.1809247173" lon="35.7015176117"><ele>1030.67</ele><time>2015-11-21T13:44:59Z</time></trkpt><trkpt lat="31.1809554789" lon="35.7016474474"><ele>1030.67</ele><time>2015-11-21T13:45:14Z</time></trkpt><trkpt lat="31.1808456760" lon="35.7016646303"><ele>1029.71</ele><time>2015-11-21T13:45:32Z</time></trkpt><trkpt lat="31.1808968056" lon="35.7017064560"><ele>1031.15</ele><time>2015-11-21T13:45:54Z</time></trkpt><trkpt lat="31.1809607595" lon="35.7017323561"><ele>1029.71</ele><time>2015-11-21T13:46:07Z</time></trkpt><trkpt lat="31.1809970532" lon="35.7017116528"><ele>1029.71</ele><time>2015-11-21T13:46:26Z</time></trkpt><trkpt lat="31.1810114700" lon="35.7017437555"><ele>1030.67</ele><time>2015-11-21T13:46:34Z</time></trkpt><trkpt lat="31.1811066885" lon="35.7017857488"><ele>1031.15</ele><time>2015-11-21T13:46:44Z</time></trkpt><trkpt lat="31.1811702233" lon="35.7018248085"><ele>1032.59</ele><time>2015-11-21T13:46:55Z</time></trkpt><trkpt lat="31.1812186707" lon="35.7018625271"><ele>1032.11</ele><time>2015-11-21T13:47:02Z</time></trkpt><trkpt lat="31.1812719796" lon="35.7018928695"><ele>1033.07</ele><time>2015-11-21T13:47:11Z</time></trkpt><trkpt lat="31.1812857259" lon="35.7019063644"><ele>1033.55</ele><time>2015-11-21T13:47:13Z</time></trkpt><trkpt lat="31.1813362688" lon="35.7019282412"><ele>1033.55</ele><time>2015-11-21T13:47:27Z</time></trkpt><trkpt lat="31.1814062577" lon="35.7019716594"><ele>1033.55</ele><time>2015-11-21T13:47:41Z</time></trkpt><trkpt lat="31.1814668588" lon="35.7019795384"><ele>1033.55</ele><time>2015-11-21T13:47:57Z</time></trkpt><trkpt lat="31.1815183237" lon="35.7017435879"><ele>1033.55</ele><time>2015-11-21T13:48:19Z</time></trkpt><trkpt lat="31.1815554556" lon="35.7017569989"><ele>1032.11</ele><time>2015-11-21T13:48:32Z</time></trkpt><trkpt lat="31.1815502588" lon="35.7017826475"><ele>1032.11</ele><time>2015-11-21T13:48:52Z</time></trkpt><trkpt lat="31.1815345008" lon="35.7017675601"><ele>1032.11</ele><time>2015-11-21T13:49:10Z</time></trkpt><trkpt lat="31.1815149710" lon="35.7017441746"><ele>1032.59</ele><time>2015-11-21T13:49:25Z</time></trkpt><trkpt lat="31.1815153901" lon="35.7017465215"><ele>1032.59</ele><time>2015-11-21T13:49:26Z</time></trkpt><trkpt lat="31.1814490054" lon="35.7018813025"><ele>1032.59</ele><time>2015-11-21T13:49:46Z</time></trkpt><trkpt lat="31.1813356820" lon="35.7022387907"><ele>1032.59</ele><time>2015-11-21T13:50:15Z</time></trkpt><trkpt lat="31.1813067645" lon="35.7021941151"><ele>1032.59</ele><time>2015-11-21T13:50:36Z</time></trkpt><trkpt lat="31.1812446546" lon="35.7022704743"><ele>1033.07</ele><time>2015-11-21T13:50:50Z</time></trkpt><trkpt lat="31.1812045891" lon="35.7022353541"><ele>1035.00</ele><time>2015-11-21T13:51:07Z</time></trkpt><trkpt lat="31.1811797787" lon="35.7022368629"><ele>1035.48</ele><time>2015-11-21T13:51:11Z</time></trkpt><trkpt lat="31.1811321694" lon="35.7022619247"><ele>1034.52</ele><time>2015-11-21T13:51:17Z</time></trkpt><trkpt lat="31.1810131464" lon="35.7021671254"><ele>1034.04</ele><time>2015-11-21T13:51:34Z</time></trkpt><trkpt lat="31.1809936166" lon="35.7021333463"><ele>1033.55</ele><time>2015-11-21T13:51:43Z</time></trkpt><trkpt lat="31.1810002383" lon="35.7021019980"><ele>1033.55</ele><time>2015-11-21T13:51:46Z</time></trkpt><trkpt lat="31.1809698120" lon="35.7019621041"><ele>1033.07</ele><time>2015-11-21T13:52:02Z</time></trkpt><trkpt lat="31.1809104681" lon="35.7019320969"><ele>1032.59</ele><time>2015-11-21T13:52:10Z</time></trkpt><trkpt lat="31.1807839852" lon="35.7018734235"><ele>1031.63</ele><time>2015-11-21T13:52:26Z</time></trkpt><trkpt lat="31.1807744298" lon="35.7018719148"><ele>1032.59</ele><time>2015-11-21T13:52:37Z</time></trkpt><trkpt lat="31.1806495395" lon="35.7017988246"><ele>1030.67</ele><time>2015-11-21T13:52:49Z</time></trkpt><trkpt lat="31.1805843282" lon="35.7017691527"><ele>1029.71</ele><time>2015-11-21T13:52:56Z</time></trkpt><trkpt lat="31.1805580929" lon="35.7017464377"><ele>1029.71</ele><time>2015-11-21T13:52:59Z</time></trkpt><trkpt lat="31.1804705858" lon="35.7017226331"><ele>1029.23</ele><time>2015-11-21T13:53:15Z</time></trkpt><trkpt lat="31.1804109905" lon="35.7016882673"><ele>1027.79</ele><time>2015-11-21T13:53:26Z</time></trkpt><trkpt lat="31.1803606153" lon="35.7016658876"><ele>1024.42</ele><time>2015-11-21T13:53:35Z</time></trkpt><trkpt lat="31.1803215556" lon="35.7016124949"><ele>1024.42</ele><time>2015-11-21T13:53:43Z</time></trkpt><trkpt lat="31.1803157721" lon="35.7015797216"><ele>1023.94</ele><time>2015-11-21T13:53:46Z</time></trkpt><trkpt lat="31.1802469566" lon="35.7014982495"><ele>1023.94</ele><time>2015-11-21T13:53:57Z</time></trkpt><trkpt lat="31.1801407579" lon="35.7014856767"><ele>1025.86</ele><time>2015-11-21T13:54:08Z</time></trkpt><trkpt lat="31.1801105831" lon="35.7014863472"><ele>1024.90</ele><time>2015-11-21T13:54:11Z</time></trkpt><trkpt lat="31.1800887901" lon="35.7014827430"><ele>1025.38</ele><time>2015-11-21T13:54:13Z</time></trkpt><trkpt lat="31.1799110938" lon="35.7014712598"><ele>1024.42</ele><time>2015-11-21T13:54:30Z</time></trkpt><trkpt lat="31.1798592098" lon="35.7014451083"><ele>1024.42</ele><time>2015-11-21T13:54:45Z</time></trkpt><trkpt lat="31.1798910610" lon="35.7014309429"><ele>1023.94</ele><time>2015-11-21T13:54:52Z</time></trkpt><trkpt lat="31.1799340602" lon="35.7014422584"><ele>1024.42</ele><time>2015-11-21T13:54:58Z</time></trkpt><trkpt lat="31.1799870338" lon="35.7014659792"><ele>1024.90</ele><time>2015-11-21T13:55:05Z</time></trkpt><trkpt lat="31.1801332980" lon="35.7014378160"><ele>1023.94</ele><time>2015-11-21T13:55:20Z</time></trkpt><trkpt lat="31.1801795661" lon="35.7014207169"><ele>1023.46</ele><time>2015-11-21T13:55:24Z</time></trkpt><trkpt lat="31.1803447735" lon="35.7013403345"><ele>1021.54</ele><time>2015-11-21T13:55:40Z</time></trkpt><trkpt lat="31.1804315262" lon="35.7013221458"><ele>1023.46</ele><time>2015-11-21T13:55:54Z</time></trkpt><trkpt lat="31.1804922950" lon="35.7013121713"><ele>1023.46</ele><time>2015-11-21T13:56:07Z</time></trkpt><trkpt lat="31.1805637926" lon="35.7013317011"><ele>1023.94</ele><time>2015-11-21T13:56:19Z</time></trkpt><trkpt lat="31.1806516349" lon="35.7013440225"><ele>1024.90</ele><time>2015-11-21T13:56:30Z</time></trkpt><trkpt lat="31.1808000784" lon="35.7014073059"><ele>1026.34</ele><time>2015-11-21T13:56:46Z</time></trkpt><trkpt lat="31.1808204465" lon="35.7014098205"><ele>1026.34</ele><time>2015-11-21T13:56:48Z</time></trkpt><trkpt lat="31.1809504498" lon="35.7014418393"><ele>1026.83</ele><time>2015-11-21T13:57:02Z</time></trkpt><trkpt lat="31.1809819657" lon="35.7014383189"><ele>1027.31</ele><time>2015-11-21T13:57:05Z</time></trkpt><trkpt lat="31.1811586563" lon="35.7014307752"><ele>1026.34</ele><time>2015-11-21T13:57:23Z</time></trkpt><trkpt lat="31.1813055910" lon="35.7014580164"><ele>1024.42</ele><time>2015-11-21T13:57:39Z</time></trkpt><trkpt lat="31.1814363487" lon="35.7014759537"><ele>1021.54</ele><time>2015-11-21T13:57:53Z</time></trkpt><trkpt lat="31.1814960279" lon="35.7014766242"><ele>1020.58</ele><time>2015-11-21T13:58:00Z</time></trkpt><trkpt lat="31.1816319823" lon="35.7014704216"><ele>1017.69</ele><time>2015-11-21T13:58:15Z</time></trkpt><trkpt lat="31.1817093473" lon="35.7015207969"><ele>1017.21</ele><time>2015-11-21T13:58:28Z</time></trkpt><trkpt lat="31.1817178968" lon="35.7015492115"><ele>1016.73</ele><time>2015-11-21T13:58:48Z</time></trkpt><trkpt lat="31.1817527656" lon="35.7015699148"><ele>1016.73</ele><time>2015-11-21T13:59:09Z</time></trkpt><trkpt lat="31.1817497481" lon="35.7015798055"><ele>1017.21</ele><time>2015-11-21T13:59:12Z</time></trkpt><trkpt lat="31.1817439646" lon="35.7016050350"><ele>1016.73</ele><time>2015-11-21T13:59:30Z</time></trkpt><trkpt lat="31.1817540228" lon="35.7015903667"><ele>1017.21</ele><time>2015-11-21T14:00:02Z</time></trkpt><trkpt lat="31.1817163043" lon="35.7016502973"><ele>1017.21</ele><time>2015-11-21T14:00:21Z</time></trkpt><trkpt lat="31.1817255244" lon="35.7016508840"><ele>1016.73</ele><time>2015-11-21T14:00:22Z</time></trkpt><trkpt lat="31.1819190625" lon="35.7017753553"><ele>1017.21</ele><time>2015-11-21T14:00:43Z</time></trkpt><trkpt lat="31.1820029654" lon="35.7018310111"><ele>1017.69</ele><time>2015-11-21T14:01:00Z</time></trkpt><trkpt lat="31.1822257563" lon="35.7019567396"><ele>1018.17</ele><time>2015-11-21T14:01:23Z</time></trkpt><trkpt lat="31.1823350564" lon="35.7020173408"><ele>1018.17</ele><time>2015-11-21T14:01:44Z</time></trkpt><trkpt lat="31.1823606212" lon="35.7020403910"><ele>1018.17</ele><time>2015-11-21T14:02:05Z</time></trkpt><trkpt lat="31.1823713500" lon="35.7020426542"><ele>1018.17</ele><time>2015-11-21T14:02:30Z</time></trkpt><trkpt lat="31.1823616270" lon="35.7020729966"><ele>1018.17</ele><time>2015-11-21T14:03:06Z</time></trkpt><trkpt lat="31.1823698413" lon="35.7020174246"><ele>1018.65</ele><time>2015-11-21T14:03:43Z</time></trkpt><trkpt lat="31.1823716853" lon="35.7020582445"><ele>1018.17</ele><time>2015-11-21T14:04:25Z</time></trkpt><trkpt lat="31.1823659856" lon="35.7020800374"><ele>1018.65</ele><time>2015-11-21T14:05:00Z</time></trkpt><trkpt lat="31.1824739445" lon="35.7021181751"><ele>1018.65</ele><time>2015-11-21T14:05:23Z</time></trkpt><trkpt lat="31.1825563386" lon="35.7022120524"><ele>1018.65</ele><time>2015-11-21T14:05:42Z</time></trkpt><trkpt lat="31.1825378984" lon="35.7023040019"><ele>1019.13</ele><time>2015-11-21T14:05:53Z</time></trkpt><trkpt lat="31.1825068016" lon="35.7025585603"><ele>1020.10</ele><time>2015-11-21T14:06:17Z</time></trkpt><trkpt lat="31.1825150996" lon="35.7026145514"><ele>1019.62</ele><time>2015-11-21T14:06:34Z</time></trkpt><trkpt lat="31.1825242359" lon="35.7026179042"><ele>1020.10</ele><time>2015-11-21T14:06:51Z</time></trkpt><trkpt lat="31.1824854277" lon="35.7026358414"><ele>1019.62</ele><time>2015-11-21T14:07:01Z</time></trkpt><trkpt lat="31.1823404208" lon="35.7025969494"><ele>1019.62</ele><time>2015-11-21T14:07:25Z</time></trkpt><trkpt lat="31.1823351402" lon="35.7025356777"><ele>1020.10</ele><time>2015-11-21T14:07:48Z</time></trkpt><trkpt lat="31.1822452862" lon="35.7025910821"><ele>1020.10</ele><time>2015-11-21T14:08:13Z</time></trkpt><trkpt lat="31.1824743636" lon="35.7024640124"><ele>1020.10</ele><time>2015-11-21T14:08:37Z</time></trkpt><trkpt lat="31.1825067177" lon="35.7025281340"><ele>1020.58</ele><time>2015-11-21T14:09:02Z</time></trkpt><trkpt lat="31.1825075559" lon="35.7025534473"><ele>1020.10</ele><time>2015-11-21T14:09:27Z</time></trkpt><trkpt lat="31.1824544985" lon="35.7025806885"><ele>1020.58</ele><time>2015-11-21T14:09:35Z</time></trkpt><trkpt lat="31.1824122537" lon="35.7026914135"><ele>1020.58</ele><time>2015-11-21T14:09:58Z</time></trkpt><trkpt lat="31.1824981682" lon="35.7025947701"><ele>1021.06</ele><time>2015-11-21T14:10:19Z</time></trkpt><trkpt lat="31.1824394949" lon="35.7025127951"><ele>1021.06</ele><time>2015-11-21T14:10:47Z</time></trkpt><trkpt lat="31.1823900416" lon="35.7025506813"><ele>1021.54</ele><time>2015-11-21T14:11:18Z</time></trkpt><trkpt lat="31.1823897902" lon="35.7025758270"><ele>1022.02</ele><time>2015-11-21T14:11:48Z</time></trkpt><trkpt lat="31.1823581066" lon="35.7025982067"><ele>1022.50</ele><time>2015-11-21T14:12:19Z</time></trkpt><trkpt lat="31.1822606251" lon="35.7025120407"><ele>1022.98</ele><time>2015-11-21T14:12:45Z</time></trkpt><trkpt lat="31.1823561788" lon="35.7025078498"><ele>1023.46</ele><time>2015-11-21T14:13:15Z</time></trkpt><trkpt lat="31.1823471263" lon="35.7025323249"><ele>1023.94</ele><time>2015-11-21T14:13:47Z</time></trkpt><trkpt lat="31.1823218968" lon="35.7024794351"><ele>1024.90</ele><time>2015-11-21T14:14:20Z</time></trkpt><trkpt lat="31.1823504791" lon="35.7025034074"><ele>1025.86</ele><time>2015-11-21T14:14:44Z</time></trkpt><trkpt lat="31.1824290175" lon="35.7025497593"><ele>1026.34</ele><time>2015-11-21T14:15:16Z</time></trkpt><trkpt lat="31.1823872756" lon="35.7024730649"><ele>1027.31</ele><time>2015-11-21T14:15:46Z</time></trkpt><trkpt lat="31.1825764552" lon="35.7024008967"><ele>1028.27</ele><time>2015-11-21T14:16:21Z</time></trkpt><trkpt lat="31.1825264152" lon="35.7024085242"><ele>1029.23</ele><time>2015-11-21T14:16:50Z</time></trkpt><trkpt lat="31.1823638063" lon="35.7023569755"><ele>1029.71</ele><time>2015-11-21T14:17:21Z</time></trkpt><trkpt lat="31.1824009381" lon="35.7023707218"><ele>1029.71</ele><time>2015-11-21T14:17:34Z</time></trkpt><trkpt lat="31.1824547499" lon="35.7023766730"><ele>1003.75</ele><time>2015-11-21T14:18:04Z</time></trkpt><trkpt lat="31.1824320350" lon="35.7025089394"><ele>1003.75</ele><time>2015-11-21T14:18:05Z</time></trkpt><trkpt lat="31.1824636348" lon="35.7024754956"><ele>1003.75</ele><time>2015-11-21T14:18:28Z</time></trkpt><trkpt lat="31.1825245712" lon="35.7025899086"><ele>1003.75</ele><time>2015-11-21T14:18:55Z</time></trkpt><trkpt lat="31.1825458612" lon="35.7025453169"><ele>1003.27</ele><time>2015-11-21T14:19:18Z</time></trkpt><trkpt lat="31.1824829131" lon="35.7026211731"><ele>1003.27</ele><time>2015-11-21T14:19:46Z</time></trkpt><trkpt lat="31.1824715976" lon="35.7026661839"><ele>1003.75</ele><time>2015-11-21T14:20:20Z</time></trkpt><trkpt lat="31.1823596153" lon="35.7025614101"><ele>1003.75</ele><time>2015-11-21T14:20:49Z</time></trkpt><trkpt lat="31.1822664924" lon="35.7025237754"><ele>1004.23</ele><time>2015-11-21T14:21:11Z</time></trkpt><trkpt lat="31.1822716892" lon="35.7024651859"><ele>1005.20</ele><time>2015-11-21T14:21:36Z</time></trkpt><trkpt lat="31.1823330447" lon="35.7024399564"><ele>1006.16</ele><time>2015-11-21T14:22:04Z</time></trkpt><trkpt lat="31.1823806539" lon="35.7024226896"><ele>1005.68</ele><time>2015-11-21T14:22:36Z</time></trkpt><trkpt lat="31.1823211424" lon="35.7025013957"><ele>1006.64</ele><time>2015-11-21T14:23:05Z</time></trkpt><trkpt lat="31.1823812407" lon="35.7025548723"><ele>1007.12</ele><time>2015-11-21T14:23:33Z</time></trkpt><trkpt lat="31.1822736170" lon="35.7025226019"><ele>1007.60</ele><time>2015-11-21T14:24:00Z</time></trkpt><trkpt lat="31.1823112518" lon="35.7025628351"><ele>1008.08</ele><time>2015-11-21T14:24:30Z</time></trkpt><trkpt lat="31.1821887922" lon="35.7024998870"><ele>1009.04</ele><time>2015-11-21T14:24:56Z</time></trkpt><trkpt lat="31.1822667439" lon="35.7024886552"><ele>1009.04</ele><time>2015-11-21T14:25:24Z</time></trkpt><trkpt lat="31.1823050492" lon="35.7025034074"><ele>1010.00</ele><time>2015-11-21T14:25:50Z</time></trkpt><trkpt lat="31.1823430192" lon="35.7024907507"><ele>1010.48</ele><time>2015-11-21T14:26:13Z</time></trkpt><trkpt lat="31.1823666561" lon="35.7024948578"><ele>1011.44</ele><time>2015-11-21T14:26:45Z</time></trkpt><trkpt lat="31.1823969148" lon="35.7025438081"><ele>1010.96</ele><time>2015-11-21T14:27:10Z</time></trkpt><trkpt lat="31.1824680772" lon="35.7026125398"><ele>1011.44</ele><time>2015-11-21T14:27:42Z</time></trkpt><trkpt lat="31.1824337952" lon="35.7025671098"><ele>1011.93</ele><time>2015-11-21T14:28:13Z</time></trkpt><trkpt lat="31.1824747827" lon="35.7026645076"><ele>1011.93</ele><time>2015-11-21T14:28:46Z</time></trkpt><trkpt lat="31.1824767105" lon="35.7026639208"><ele>1012.41</ele><time>2015-11-21T14:29:20Z</time></trkpt><trkpt lat="31.1824051291" lon="35.7026826963"><ele>1012.89</ele><time>2015-11-21T14:29:51Z</time></trkpt><trkpt lat="31.1822454538" lon="35.7026195806"><ele>1013.37</ele><time>2015-11-21T14:30:27Z</time></trkpt><trkpt lat="31.1823332962" lon="35.7026314829"><ele>1013.85</ele><time>2015-11-21T14:30:55Z</time></trkpt><trkpt lat="31.1824331246" lon="35.7025857177"><ele>1001.35</ele><time>2015-11-21T14:57:30Z</time></trkpt><trkpt lat="31.1824747827" lon="35.7026590593"><ele>1004.72</ele><time>2015-11-21T14:57:46Z</time></trkpt><trkpt lat="31.1824656464" lon="35.7026489172"><ele>1008.56</ele><time>2015-11-21T14:57:49Z</time></trkpt><trkpt lat="31.1824636348" lon="35.7026476599"><ele>1009.04</ele><time>2015-11-21T14:57:50Z</time></trkpt><trkpt lat="31.1824508943" lon="35.7026427146"><ele>1012.41</ele><time>2015-11-21T14:57:53Z</time></trkpt><trkpt lat="31.1824469548" lon="35.7026355900"><ele>1016.25</ele><time>2015-11-21T14:57:57Z</time></trkpt><trkpt lat="31.1824579351" lon="35.7026241906"><ele>1018.65</ele><time>2015-11-21T14:58:00Z</time></trkpt><trkpt lat="31.1824657302" lon="35.7026176527"><ele>1022.02</ele><time>2015-11-21T14:58:04Z</time></trkpt><trkpt lat="31.1824675743" lon="35.7026168145"><ele>1021.54</ele><time>2015-11-21T14:58:05Z</time></trkpt><trkpt lat="31.1824660655" lon="35.7026063371"><ele>1024.90</ele><time>2015-11-21T14:58:10Z</time></trkpt><trkpt lat="31.1824675743" lon="35.7026106119"><ele>1025.86</ele><time>2015-11-21T14:58:12Z</time></trkpt><trkpt lat="31.1824667361" lon="35.7026143838"><ele>1027.31</ele><time>2015-11-21T14:58:16Z</time></trkpt><trkpt lat="31.1824534088" lon="35.7026691176"><ele>1028.27</ele><time>2015-11-21T14:58:20Z</time></trkpt><trkpt lat="31.1824277602" lon="35.7027831953"><ele>1028.75</ele><time>2015-11-21T14:58:27Z</time></trkpt><trkpt lat="31.1823848449" lon="35.7030386757"><ele>1028.27</ele><time>2015-11-21T14:58:43Z</time></trkpt><trkpt lat="31.1823751219" lon="35.7031214889"><ele>1027.31</ele><time>2015-11-21T14:58:47Z</time></trkpt><trkpt lat="31.1823493056" lon="35.7032070681"><ele>1026.83</ele><time>2015-11-21T14:58:51Z</time></trkpt><trkpt lat="31.1823458690" lon="35.7032362372"><ele>1027.31</ele><time>2015-11-21T14:58:52Z</time></trkpt><trkpt lat="31.1823397502" lon="35.7032660767"><ele>1027.31</ele><time>2015-11-21T14:58:53Z</time></trkpt><trkpt lat="31.1822636425" lon="35.7036798075"><ele>1024.42</ele><time>2015-11-21T14:59:06Z</time></trkpt><trkpt lat="31.1822388321" lon="35.7039463520"><ele>1021.54</ele><time>2015-11-21T14:59:13Z</time></trkpt><trkpt lat="31.1822413467" lon="35.7040424086"><ele>1021.06</ele><time>2015-11-21T14:59:18Z</time></trkpt><trkpt lat="31.1822574399" lon="35.7040526345"><ele>1020.58</ele><time>2015-11-21T14:59:19Z</time></trkpt><trkpt lat="31.1825410835" lon="35.7042569853"><ele>1017.69</ele><time>2015-11-21T14:59:30Z</time></trkpt><trkpt lat="31.1827703286" lon="35.7044594921"><ele>1014.81</ele><time>2015-11-21T14:59:39Z</time></trkpt><trkpt lat="31.1829458456" lon="35.7045697980"><ele>1012.89</ele><time>2015-11-21T14:59:45Z</time></trkpt><trkpt lat="31.1829886772" lon="35.7046552096"><ele>1012.41</ele><time>2015-11-21T14:59:49Z</time></trkpt><trkpt lat="31.1829828937" lon="35.7046740688"><ele>1011.93</ele><time>2015-11-21T14:59:50Z</time></trkpt><trkpt lat="31.1829693150" lon="35.7046949398"><ele>1011.93</ele><time>2015-11-21T14:59:51Z</time></trkpt><trkpt lat="31.1829511262" lon="35.7047157269"><ele>1011.44</ele><time>2015-11-21T14:59:52Z</time></trkpt><trkpt lat="31.1829337757" lon="35.7047346700"><ele>1010.48</ele><time>2015-11-21T14:59:53Z</time></trkpt><trkpt lat="31.1829162575" lon="35.7047525235"><ele>1010.00</ele><time>2015-11-21T14:59:54Z</time></trkpt><trkpt lat="31.1827810574" lon="35.7048781682"><ele>1006.64</ele><time>2015-11-21T15:00:03Z</time></trkpt><trkpt lat="31.1825734377" lon="35.7049137075"><ele>1003.75</ele><time>2015-11-21T15:00:10Z</time></trkpt><trkpt lat="31.1824898701" lon="35.7049393561"><ele>1001.35</ele><time>2015-11-21T15:00:14Z</time></trkpt><trkpt lat="31.1824798118" lon="35.7049642503"><ele>1000.87</ele><time>2015-11-21T15:00:15Z</time></trkpt><trkpt lat="31.1824745312" lon="35.7049886417"><ele>1000.39</ele><time>2015-11-21T15:00:16Z</time></trkpt><trkpt lat="31.1824769620" lon="35.7050059922"><ele>1000.39</ele><time>2015-11-21T15:00:17Z</time></trkpt><trkpt lat="31.1824882776" lon="35.7050177269"><ele>1000.39</ele><time>2015-11-21T15:00:18Z</time></trkpt><trkpt lat="31.1825071368" lon="35.7050276175"><ele>999.91</ele><time>2015-11-21T15:00:19Z</time></trkpt><trkpt lat="31.1825335398" lon="35.7050396875"><ele>999.91</ele><time>2015-11-21T15:00:20Z</time></trkpt><trkpt lat="31.1826021876" lon="35.7050644141"><ele>999.43</ele><time>2015-11-21T15:00:22Z</time></trkpt><trkpt lat="31.1826436780" lon="35.7050775737"><ele>998.95</ele><time>2015-11-21T15:00:23Z</time></trkpt><trkpt lat="31.1827297602" lon="35.7051130291"><ele>998.47</ele><time>2015-11-21T15:00:25Z</time></trkpt><trkpt lat="31.1827693228" lon="35.7051318046"><ele>997.99</ele><time>2015-11-21T15:00:26Z</time></trkpt><trkpt lat="31.1828036886" lon="35.7051546872"><ele>997.51</ele><time>2015-11-21T15:00:27Z</time></trkpt><trkpt lat="31.1828517169" lon="35.7051957585"><ele>997.51</ele><time>2015-11-21T15:00:35Z</time></trkpt><trkpt lat="31.1828669719" lon="35.7052078284"><ele>997.02</ele><time>2015-11-21T15:00:44Z</time></trkpt><trkpt lat="31.1828809697" lon="35.7052178867"><ele>997.02</ele><time>2015-11-21T15:00:45Z</time></trkpt><trkpt lat="31.1831475142" lon="35.7054788992"><ele>995.10</ele><time>2015-11-21T15:00:57Z</time></trkpt><trkpt lat="31.1834227759" lon="35.7058938034"><ele>992.70</ele><time>2015-11-21T15:01:12Z</time></trkpt><trkpt lat="31.1834098678" lon="35.7059350424"><ele>992.22</ele><time>2015-11-21T15:01:14Z</time></trkpt><trkpt lat="31.1833988875" lon="35.7059911173"><ele>990.78</ele><time>2015-11-21T15:01:26Z</time></trkpt><trkpt lat="31.1832909286" lon="35.7062447537"><ele>987.41</ele><time>2015-11-21T15:01:38Z</time></trkpt><trkpt lat="31.1832661182" lon="35.7062957995"><ele>986.45</ele><time>2015-11-21T15:01:40Z</time></trkpt><trkpt lat="31.1832215264" lon="35.7063777745"><ele>985.49</ele><time>2015-11-21T15:01:51Z</time></trkpt><trkpt lat="31.1831274815" lon="35.7066029124"><ele>984.53</ele><time>2015-11-21T15:02:00Z</time></trkpt><trkpt lat="31.1831041798" lon="35.7066414692"><ele>984.05</ele><time>2015-11-21T15:02:01Z</time></trkpt><trkpt lat="31.1830771063" lon="35.7066788524"><ele>984.05</ele><time>2015-11-21T15:02:02Z</time></trkpt><trkpt lat="31.1828549858" lon="35.7070002984"><ele>981.64</ele><time>2015-11-21T15:02:15Z</time></trkpt><trkpt lat="31.1828310974" lon="35.7069985382"><ele>981.64</ele><time>2015-11-21T15:02:16Z</time></trkpt><trkpt lat="31.1827021837" lon="35.7069824450"><ele>979.72</ele><time>2015-11-21T15:02:28Z</time></trkpt><trkpt lat="31.1826991662" lon="35.7069930062"><ele>980.20</ele><time>2015-11-21T15:02:29Z</time></trkpt><trkpt lat="31.1826930474" lon="35.7070049923"><ele>980.20</ele><time>2015-11-21T15:02:30Z</time></trkpt><trkpt lat="31.1826823186" lon="35.7070130389"><ele>980.20</ele><time>2015-11-21T15:02:31Z</time></trkpt><trkpt lat="31.1826711707" lon="35.7070228457"><ele>980.20</ele><time>2015-11-21T15:02:32Z</time></trkpt><trkpt lat="31.1826613639" lon="35.7070370950"><ele>979.72</ele><time>2015-11-21T15:02:33Z</time></trkpt><trkpt lat="31.1826549936" lon="35.7070557028"><ele>980.20</ele><time>2015-11-21T15:02:34Z</time></trkpt><trkpt lat="31.1826500483" lon="35.7070743106"><ele>979.72</ele><time>2015-11-21T15:02:35Z</time></trkpt><trkpt lat="31.1826446000" lon="35.7070909068"><ele>979.72</ele><time>2015-11-21T15:02:36Z</time></trkpt><trkpt lat="31.1826404091" lon="35.7071101852"><ele>979.72</ele><time>2015-11-21T15:02:37Z</time></trkpt><trkpt lat="31.1826363020" lon="35.7071323972"><ele>979.72</ele><time>2015-11-21T15:02:38Z</time></trkpt><trkpt lat="31.1826318596" lon="35.7071594708"><ele>979.72</ele><time>2015-11-21T15:02:39Z</time></trkpt><trkpt lat="31.1826571729" lon="35.7073777355"><ele>977.80</ele><time>2015-11-21T15:02:45Z</time></trkpt><trkpt lat="31.1826709192" lon="35.7074217405"><ele>977.32</ele><time>2015-11-21T15:02:46Z</time></trkpt><trkpt lat="31.1826903652" lon="35.7074633986"><ele>976.84</ele><time>2015-11-21T15:02:47Z</time></trkpt><trkpt lat="31.1829213705" lon="35.7077299431"><ele>973.95</ele><time>2015-11-21T15:02:53Z</time></trkpt><trkpt lat="31.1829693150" lon="35.7077814918"><ele>973.47</ele><time>2015-11-21T15:02:54Z</time></trkpt><trkpt lat="31.1831331812" lon="35.7079749461"><ele>970.59</ele><time>2015-11-21T15:02:58Z</time></trkpt><trkpt lat="31.1832617596" lon="35.7082027663"><ele>968.18</ele><time>2015-11-21T15:03:08Z</time></trkpt><trkpt lat="31.1832549702" lon="35.7082146686"><ele>967.70</ele><time>2015-11-21T15:03:09Z</time></trkpt><trkpt lat="31.1831920221" lon="35.7082231343"><ele>966.74</ele><time>2015-11-21T15:03:13Z</time></trkpt><trkpt lat="31.1831672955" lon="35.7082066219"><ele>966.74</ele><time>2015-11-21T15:03:14Z</time></trkpt><trkpt lat="31.1831398029" lon="35.7081822306"><ele>965.78</ele><time>2015-11-21T15:03:15Z</time></trkpt><trkpt lat="31.1826778762" lon="35.7077549212"><ele>962.90</ele><time>2015-11-21T15:03:26Z</time></trkpt><trkpt lat="31.1826155148" lon="35.7076939847"><ele>961.94</ele><time>2015-11-21T15:03:28Z</time></trkpt><trkpt lat="31.1824611202" lon="35.7075151149"><ele>960.98</ele><time>2015-11-21T15:03:34Z</time></trkpt><trkpt lat="31.1824408360" lon="35.7074641529"><ele>960.49</ele><time>2015-11-21T15:03:35Z</time></trkpt><trkpt lat="31.1823874433" lon="35.7072760630"><ele>959.53</ele><time>2015-11-21T15:03:38Z</time></trkpt><trkpt lat="31.1822737847" lon="35.7066464145"><ele>956.17</ele><time>2015-11-21T15:03:46Z</time></trkpt><trkpt lat="31.1819410231" lon="35.7061107270"><ele>952.80</ele><time>2015-11-21T15:03:54Z</time></trkpt><trkpt lat="31.1815086007" lon="35.7057647221"><ele>949.92</ele><time>2015-11-21T15:04:01Z</time></trkpt><trkpt lat="31.1811074428" lon="35.7053970918"><ele>946.56</ele><time>2015-11-21T15:04:09Z</time></trkpt><trkpt lat="31.1807896011" lon="35.7047961932"><ele>943.67</ele><time>2015-11-21T15:04:17Z</time></trkpt><trkpt lat="31.1804651376" lon="35.7041287422"><ele>939.83</ele><time>2015-11-21T15:04:25Z</time></trkpt><trkpt lat="31.1800948251" lon="35.7033900451"><ele>937.42</ele><time>2015-11-21T15:04:38Z</time></trkpt><trkpt lat="31.1800702661" lon="35.7033555117"><ele>936.94</ele><time>2015-11-21T15:04:39Z</time></trkpt><trkpt lat="31.1800436117" lon="35.7033252530"><ele>937.42</ele><time>2015-11-21T15:04:40Z</time></trkpt><trkpt lat="31.1800142750" lon="35.7032977603"><ele>937.42</ele><time>2015-11-21T15:04:41Z</time></trkpt><trkpt lat="31.1799861118" lon="35.7032702677"><ele>937.42</ele><time>2015-11-21T15:04:42Z</time></trkpt><trkpt lat="31.1799592897" lon="35.7032425236"><ele>937.42</ele><time>2015-11-21T15:04:43Z</time></trkpt><trkpt lat="31.1799314618" lon="35.7032172102"><ele>936.94</ele><time>2015-11-21T15:04:44Z</time></trkpt><trkpt lat="31.1799055617" lon="35.7031972613"><ele>936.94</ele><time>2015-11-21T15:04:45Z</time></trkpt><trkpt lat="31.1797724571" lon="35.7031334750"><ele>936.94</ele><time>2015-11-21T15:04:57Z</time></trkpt><trkpt lat="31.1796803400" lon="35.7031138614"><ele>935.98</ele><time>2015-11-21T15:05:15Z</time></trkpt><trkpt lat="31.1796116084" lon="35.7031211536"><ele>935.98</ele><time>2015-11-21T15:05:28Z</time></trkpt><trkpt lat="31.1796085071" lon="35.7030996121"><ele>935.98</ele><time>2015-11-21T15:05:52Z</time></trkpt><trkpt lat="31.1795750633" lon="35.7031212375"><ele>935.50</ele><time>2015-11-21T15:06:01Z</time></trkpt><trkpt lat="31.1795595568" lon="35.7031234168"><ele>935.02</ele><time>2015-11-21T15:06:02Z</time></trkpt><trkpt lat="31.1795411166" lon="35.7031226624"><ele>935.02</ele><time>2015-11-21T15:06:03Z</time></trkpt><trkpt lat="31.1795216706" lon="35.7031229977"><ele>935.02</ele><time>2015-11-21T15:06:04Z</time></trkpt><trkpt lat="31.1794995423" lon="35.7031240873"><ele>935.02</ele><time>2015-11-21T15:06:05Z</time></trkpt><trkpt lat="31.1794769950" lon="35.7031245064"><ele>935.50</ele><time>2015-11-21T15:06:06Z</time></trkpt><trkpt lat="31.1794557888" lon="35.7031249255"><ele>935.02</ele><time>2015-11-21T15:06:07Z</time></trkpt><trkpt lat="31.1794373486" lon="35.7031250093"><ele>935.50</ele><time>2015-11-21T15:06:08Z</time></trkpt><trkpt lat="31.1794150528" lon="35.7031385042"><ele>935.02</ele><time>2015-11-21T15:06:11Z</time></trkpt><trkpt lat="31.1794173159" lon="35.7032281067"><ele>935.02</ele><time>2015-11-21T15:06:15Z</time></trkpt><trkpt lat="31.1794227641" lon="35.7032544259"><ele>934.54</ele><time>2015-11-21T15:06:16Z</time></trkpt><trkpt lat="31.1794365942" lon="35.7033130154"><ele>935.02</ele><time>2015-11-21T15:06:18Z</time></trkpt><trkpt lat="31.1794354208" lon="35.7033483032"><ele>934.54</ele><time>2015-11-21T15:06:19Z</time></trkpt><trkpt lat="31.1794328224" lon="35.7033835072"><ele>934.54</ele><time>2015-11-21T15:06:20Z</time></trkpt><trkpt lat="31.1794930045" lon="35.7039903570"><ele>935.98</ele><time>2015-11-21T15:06:34Z</time></trkpt><trkpt lat="31.1795924976" lon="35.7045115437"><ele>937.90</ele><time>2015-11-21T15:06:48Z</time></trkpt><trkpt lat="31.1796416156" lon="35.7050207444"><ele>940.31</ele><time>2015-11-21T15:07:03Z</time></trkpt><trkpt lat="31.1796111893" lon="35.7055400871"><ele>942.71</ele><time>2015-11-21T15:07:18Z</time></trkpt><trkpt lat="31.1796515062" lon="35.7061062846"><ele>945.11</ele><time>2015-11-21T15:07:35Z</time></trkpt><trkpt lat="31.1798048113" lon="35.7065388747"><ele>947.52</ele><time>2015-11-21T15:07:50Z</time></trkpt><trkpt lat="31.1800188851" lon="35.7069599815"><ele>950.88</ele><time>2015-11-21T15:08:06Z</time></trkpt><trkpt lat="31.1801436916" lon="35.7073943317"><ele>953.77</ele><time>2015-11-21T15:08:22Z</time></trkpt><trkpt lat="31.1802085675" lon="35.7077958249"><ele>955.69</ele><time>2015-11-21T15:08:39Z</time></trkpt><trkpt lat="31.1802343838" lon="35.7082142495"><ele>958.09</ele><time>2015-11-21T15:08:57Z</time></trkpt><trkpt lat="31.1802063044" lon="35.7085955422"><ele>960.98</ele><time>2015-11-21T15:09:14Z</time></trkpt><trkpt lat="31.1800648179" lon="35.7089562155"><ele>963.86</ele><time>2015-11-21T15:09:31Z</time></trkpt><trkpt lat="31.1799024604" lon="35.7092647534"><ele>966.26</ele><time>2015-11-21T15:09:48Z</time></trkpt><trkpt lat="31.1798811704" lon="35.7093132008"><ele>966.74</ele><time>2015-11-21T15:09:51Z</time></trkpt><trkpt lat="31.1798865348" lon="35.7093292102"><ele>966.74</ele><time>2015-11-21T15:09:52Z</time></trkpt><trkpt lat="31.1798696034" lon="35.7095280290"><ele>967.70</ele><time>2015-11-21T15:10:01Z</time></trkpt><trkpt lat="31.1798710283" lon="35.7095404342"><ele>967.22</ele><time>2015-11-21T15:10:02Z</time></trkpt><trkpt lat="31.1799418554" lon="35.7095231675"><ele>966.74</ele><time>2015-11-21T15:10:11Z</time></trkpt><trkpt lat="31.1799495667" lon="35.7095369138"><ele>966.74</ele><time>2015-11-21T15:10:38Z</time></trkpt></trkseg></trk></gpx>